<?xml version='1.0' encoding='UTF-8'?><gpx version="1.1" creator="JPX - https://github.com/jenetics/jpx" xmlns="http://www.topografix.com/GPX/1/1"><trk><trkseg><trkpt lat="45.90401149341703" lon="11.000648106915689"><ele>620.0</ele><time>2026-04-04T12:02:14.224Z</time></trkpt><trkpt lat="45.904397700784656" lon="11.000200370575895"><ele>627.0</ele><time>2026-04-04T12:02:25.832Z</time></trkpt><trkpt lat="45.904011578014575" lon="11.000609751737745"><ele>624.6666666666666</ele><time>2026-04-04T12:02:59.004Z</time></trkpt><trkpt lat="45.90428926172655" lon="11.000385490596237"><ele>622.3333333333333</ele><time>2026-04-04T12:03:06.734Z</time></trkpt><trkpt lat="45.90436922906482" lon="11.000410713551972"><ele>620.0</ele><time>2026-04-04T12:03:08.32Z</time></trkpt><trkpt lat="45.904386546966954" lon="11.000290199652573"><ele>620.0</ele><time>2026-04-04T12:03:10.317Z</time></trkpt><trkpt lat="45.90455516128241" lon="11.000259934100326"><ele>620.0</ele><time>2026-04-04T12:03:28.006Z</time></trkpt><trkpt lat="45.9046524568119" lon="11.000180294133013"><ele>620.0</ele><time>2026-04-04T12:03:30.005Z</time></trkpt><trkpt lat="45.90474849480609" lon="11.000167113160202"><ele>620.0</ele><time>2026-04-04T12:03:31.005Z</time></trkpt><trkpt lat="45.904866922932236" lon="11.000086511082792"><ele>620.0</ele><time>2026-04-04T12:03:32.005Z</time></trkpt><trkpt lat="45.90494099885203" lon="11.000046970371633"><ele>620.0</ele><time>2026-04-04T12:03:33.004Z</time></trkpt><trkpt lat="45.90505825228622" lon="10.999997039951639"><ele>620.0</ele><time>2026-04-04T12:03:35.004Z</time></trkpt><trkpt lat="45.90515386300746" lon="10.999946414586672"><ele>620.0</ele><time>2026-04-04T12:03:37.003Z</time></trkpt><trkpt lat="45.9052370716046" lon="10.999879309055537"><ele>620.0</ele><time>2026-04-04T12:03:38.003Z</time></trkpt><trkpt lat="45.905285861522934" lon="10.999767910970832"><ele>617.4</ele><time>2026-04-04T12:03:40.003Z</time></trkpt><trkpt lat="45.90531842348639" lon="10.999606074427229"><ele>614.8</ele><time>2026-04-04T12:03:42.002Z</time></trkpt><trkpt lat="45.905346628323116" lon="10.999480286572886"><ele>612.2</ele><time>2026-04-04T12:03:44.002Z</time></trkpt><trkpt lat="45.90538483956576" lon="10.999393984128263"><ele>609.6</ele><time>2026-04-04T12:03:46.002Z</time></trkpt><trkpt lat="45.90542907240746" lon="10.999304742588816"><ele>607.0</ele><time>2026-04-04T12:03:48.001Z</time></trkpt><trkpt lat="45.90551576853183" lon="10.999206832968037"><ele>607.0</ele><time>2026-04-04T12:03:50.001Z</time></trkpt><trkpt lat="45.90560467387684" lon="10.99917897077529"><ele>607.0</ele><time>2026-04-04T12:03:51.001Z</time></trkpt><trkpt lat="45.90567957365843" lon="10.999160487017758"><ele>607.0</ele><time>2026-04-04T12:03:52.001Z</time></trkpt><trkpt lat="45.90576553933096" lon="10.999139907303555"><ele>607.0</ele><time>2026-04-04T12:03:53.001Z</time></trkpt><trkpt lat="45.905866151066526" lon="10.999112210057596"><ele>607.0</ele><time>2026-04-04T12:03:54.001Z</time></trkpt><trkpt lat="45.90595088868015" lon="10.99908235403431"><ele>607.0</ele><time>2026-04-04T12:03:55.001Z</time></trkpt><trkpt lat="45.90606471808696" lon="10.999010212037787"><ele>610.75</ele><time>2026-04-04T12:03:57.001Z</time></trkpt><trkpt lat="45.90614619881164" lon="10.998891763533729"><ele>614.5</ele><time>2026-04-04T12:03:58Z</time></trkpt><trkpt lat="45.90621521729198" lon="10.998821370277785"><ele>618.25</ele><time>2026-04-04T12:03:59Z</time></trkpt><trkpt lat="45.906362014041484" lon="10.998860641994677"><ele>622.0</ele><time>2026-04-04T12:04:01Z</time></trkpt><trkpt lat="45.90645335469251" lon="10.998926414865345"><ele>622.0</ele><time>2026-04-04T12:04:02Z</time></trkpt><trkpt lat="45.906557231399255" lon="10.998973718202343"><ele>622.0</ele><time>2026-04-04T12:04:03Z</time></trkpt><trkpt lat="45.906640041013056" lon="10.999011678381049"><ele>622.0</ele><time>2026-04-04T12:04:04Z</time></trkpt><trkpt lat="45.90673225320019" lon="10.999042244061028"><ele>622.0</ele><time>2026-04-04T12:04:05Z</time></trkpt><trkpt lat="45.906836254540885" lon="10.9990633986074"><ele>622.0</ele><time>2026-04-04T12:04:06Z</time></trkpt><trkpt lat="45.90692974603923" lon="10.999089940639992"><ele>623.6</ele><time>2026-04-04T12:04:07Z</time></trkpt><trkpt lat="45.90702696953427" lon="10.999111564228729"><ele>625.2</ele><time>2026-04-04T12:04:08Z</time></trkpt><trkpt lat="45.90712574055426" lon="10.999130660669218"><ele>626.8</ele><time>2026-04-04T12:04:09Z</time></trkpt><trkpt lat="45.907231921747226" lon="10.99913975139654"><ele>628.4</ele><time>2026-04-04T12:04:10Z</time></trkpt><trkpt lat="45.907346976810274" lon="10.999125774926906"><ele>630.0</ele><time>2026-04-04T12:04:11Z</time></trkpt><trkpt lat="45.907443350347634" lon="10.999140704650918"><ele>624.8</ele><time>2026-04-04T12:04:12Z</time></trkpt><trkpt lat="45.90753941645865" lon="10.999207395346394"><ele>619.6</ele><time>2026-04-04T12:04:13Z</time></trkpt><trkpt lat="45.907650267390395" lon="10.99927826647838"><ele>614.4</ele><time>2026-04-04T12:04:14Z</time></trkpt><trkpt lat="45.90772558181497" lon="10.999361963804168"><ele>609.2</ele><time>2026-04-04T12:04:15Z</time></trkpt><trkpt lat="45.907796589903924" lon="10.99944855422596"><ele>604.0</ele><time>2026-04-04T12:04:16Z</time></trkpt><trkpt lat="45.907907959661244" lon="10.999473087466058"><ele>604.0</ele><time>2026-04-04T12:04:18Z</time></trkpt><trkpt lat="45.9080626798224" lon="10.999455857902968"><ele>604.0</ele><time>2026-04-04T12:04:19Z</time></trkpt><trkpt lat="45.90817509414789" lon="10.999437556558114"><ele>604.0</ele><time>2026-04-04T12:04:20Z</time></trkpt><trkpt lat="45.90828021584801" lon="10.999448602456633"><ele>604.0</ele><time>2026-04-04T12:04:21Z</time></trkpt><trkpt lat="45.90837890119238" lon="10.999470151450021"><ele>607.25</ele><time>2026-04-04T12:04:22Z</time></trkpt><trkpt lat="45.908475633581595" lon="10.99948837246624"><ele>610.5</ele><time>2026-04-04T12:04:23Z</time></trkpt><trkpt lat="45.90857454338188" lon="10.999517076532737"><ele>613.75</ele><time>2026-04-04T12:04:24Z</time></trkpt><trkpt lat="45.9086982580926" lon="10.999558063351682"><ele>617.0</ele><time>2026-04-04T12:04:25Z</time></trkpt><trkpt lat="45.90882308151418" lon="10.99959076850818"><ele>617.0</ele><time>2026-04-04T12:04:26Z</time></trkpt><trkpt lat="45.90895436937898" lon="10.999640815781797"><ele>617.0</ele><time>2026-04-04T12:04:27Z</time></trkpt><trkpt lat="45.90910121235503" lon="10.99970327821661"><ele>617.0</ele><time>2026-04-04T12:04:28Z</time></trkpt><trkpt lat="45.90922557857379" lon="10.99975406032828"><ele>617.0</ele><time>2026-04-04T12:04:29Z</time></trkpt><trkpt lat="45.90933905209208" lon="10.999770009915338"><ele>625.25</ele><time>2026-04-04T12:04:30Z</time></trkpt><trkpt lat="45.9094371704097" lon="10.9998261117201"><ele>633.5</ele><time>2026-04-04T12:04:31Z</time></trkpt><trkpt lat="45.90952791320248" lon="10.999887813635715"><ele>641.75</ele><time>2026-04-04T12:04:31.999Z</time></trkpt><trkpt lat="45.90963444582051" lon="10.999994438824853"><ele>650.0</ele><time>2026-04-04T12:04:32.999Z</time></trkpt><trkpt lat="45.90974782428733" lon="11.00011423997261"><ele>650.0</ele><time>2026-04-04T12:04:33.999Z</time></trkpt><trkpt lat="45.909849077284186" lon="11.00021394480374"><ele>650.0</ele><time>2026-04-04T12:04:34.999Z</time></trkpt><trkpt lat="45.90994973479337" lon="11.00027442079314"><ele>650.0</ele><time>2026-04-04T12:04:35.999Z</time></trkpt><trkpt lat="45.91006827670249" lon="11.000301279919052"><ele>650.0</ele><time>2026-04-04T12:04:36.999Z</time></trkpt><trkpt lat="45.91019679045085" lon="11.000327263082767"><ele>666.5</ele><time>2026-04-04T12:04:37.999Z</time></trkpt><trkpt lat="45.91034545212551" lon="11.000313919721501"><ele>683.0</ele><time>2026-04-04T12:04:38.999Z</time></trkpt><trkpt lat="45.91049874356803" lon="11.000320961597325"><ele>699.5</ele><time>2026-04-04T12:04:39.999Z</time></trkpt><trkpt lat="45.91060730353179" lon="11.000349416582065"><ele>716.0</ele><time>2026-04-04T12:04:40.999Z</time></trkpt><trkpt lat="45.91068111556144" lon="11.000370291245963"><ele>716.0</ele><time>2026-04-04T12:04:41.999Z</time></trkpt><trkpt lat="45.910738840741566" lon="11.000419923489059"><ele>716.0</ele><time>2026-04-04T12:04:42.999Z</time></trkpt><trkpt lat="45.91080634209997" lon="11.000565662151887"><ele>716.0</ele><time>2026-04-04T12:04:44.999Z</time></trkpt><trkpt lat="45.91082255575949" lon="11.000679547962815"><ele>716.0</ele><time>2026-04-04T12:04:45.999Z</time></trkpt><trkpt lat="45.91083457498333" lon="11.000806541002525"><ele>716.0</ele><time>2026-04-04T12:04:46.999Z</time></trkpt><trkpt lat="45.91088002095924" lon="11.000961964594358"><ele>714.6666666666666</ele><time>2026-04-04T12:04:47.999Z</time></trkpt><trkpt lat="45.91094314064452" lon="11.001053128474389"><ele>713.3333333333333</ele><time>2026-04-04T12:04:48.999Z</time></trkpt><trkpt lat="45.91099813776341" lon="11.001124623085968"><ele>712.0</ele><time>2026-04-04T12:04:49.999Z</time></trkpt><trkpt lat="45.911061407001675" lon="11.001233221264277"><ele>710.6666666666666</ele><time>2026-04-04T12:04:51.999Z</time></trkpt><trkpt lat="45.911121559585695" lon="11.001284059268384"><ele>709.3333333333334</ele><time>2026-04-04T12:04:52.999Z</time></trkpt><trkpt lat="45.91119784677909" lon="11.001352602247207"><ele>708.0</ele><time>2026-04-04T12:04:54.999Z</time></trkpt><trkpt lat="45.911223918134915" lon="11.001514837885042"><ele>708.0</ele><time>2026-04-04T12:04:56.999Z</time></trkpt><trkpt lat="45.911286954334344" lon="11.001536113608923"><ele>708.0</ele><time>2026-04-04T12:04:57.999Z</time></trkpt><trkpt lat="45.911363147153445" lon="11.001584386375626"><ele>708.0</ele><time>2026-04-04T12:04:59.999Z</time></trkpt><trkpt lat="45.911425034524825" lon="11.001661034650745"><ele>708.0</ele><time>2026-04-04T12:05:01.999Z</time></trkpt><trkpt lat="45.9114409520449" lon="11.001825145846503"><ele>708.0</ele><time>2026-04-04T12:05:03.999Z</time></trkpt><trkpt lat="45.91142993349464" lon="11.001932371997857"><ele>708.0</ele><time>2026-04-04T12:05:04.999Z</time></trkpt><trkpt lat="45.91142308956836" lon="11.002105184910135"><ele>700.0</ele><time>2026-04-04T12:05:06.999Z</time></trkpt><trkpt lat="45.91142822324346" lon="11.002238301902588"><ele>692.0</ele><time>2026-04-04T12:05:08.999Z</time></trkpt><trkpt lat="45.91147007325008" lon="11.002388450548228"><ele>684.0</ele><time>2026-04-04T12:05:10.999Z</time></trkpt><trkpt lat="45.91155526502358" lon="11.002396738284657"><ele>676.0</ele><time>2026-04-04T12:05:13.999Z</time></trkpt><trkpt lat="45.911611676817714" lon="11.002273289609146"><ele>668.0</ele><time>2026-04-04T12:05:15.999Z</time></trkpt><trkpt lat="45.9116211383092" lon="11.002153912847554"><ele>668.0</ele><time>2026-04-04T12:05:16.999Z</time></trkpt><trkpt lat="45.91163507000857" lon="11.002048796559913"><ele>668.0</ele><time>2026-04-04T12:05:17.999Z</time></trkpt><trkpt lat="45.91169084733321" lon="11.001895150901714"><ele>668.0</ele><time>2026-04-04T12:05:20Z</time></trkpt><trkpt lat="45.91172486464431" lon="11.001805046922437"><ele>668.0</ele><time>2026-04-04T12:05:21Z</time></trkpt><trkpt lat="45.91175415473339" lon="11.001720574671168"><ele>668.0</ele><time>2026-04-04T12:05:22Z</time></trkpt><trkpt lat="45.91179662844035" lon="11.001626062871813"><ele>668.0</ele><time>2026-04-04T12:05:23Z</time></trkpt><trkpt lat="45.91174649948528" lon="11.00146461948475"><ele>673.7142857142857</ele><time>2026-04-04T12:05:25Z</time></trkpt><trkpt lat="45.911698481591664" lon="11.001378106524543"><ele>679.4285714285714</ele><time>2026-04-04T12:05:26Z</time></trkpt><trkpt lat="45.91165137646108" lon="11.00131309774703"><ele>685.1428571428571</ele><time>2026-04-04T12:05:27Z</time></trkpt><trkpt lat="45.911632361475334" lon="11.001222159157336"><ele>690.8571428571429</ele><time>2026-04-04T12:05:29Z</time></trkpt><trkpt lat="45.911712535660385" lon="11.001177108908395"><ele>696.5714285714286</ele><time>2026-04-04T12:05:31Z</time></trkpt><trkpt lat="45.91177776441521" lon="11.001220186721948"><ele>702.2857142857143</ele><time>2026-04-04T12:05:32Z</time></trkpt><trkpt lat="45.91183426032542" lon="11.001302385913071"><ele>708.0</ele><time>2026-04-04T12:05:33Z</time></trkpt><trkpt lat="45.911887398027844" lon="11.001400980242853"><ele>706.2</ele><time>2026-04-04T12:05:34Z</time></trkpt><trkpt lat="45.911954252635645" lon="11.001531014774017"><ele>704.4</ele><time>2026-04-04T12:05:35Z</time></trkpt><trkpt lat="45.91201684612381" lon="11.001654806898152"><ele>702.6</ele><time>2026-04-04T12:05:36Z</time></trkpt><trkpt lat="45.91209467299414" lon="11.00174265857861"><ele>700.8000000000001</ele><time>2026-04-04T12:05:37Z</time></trkpt><trkpt lat="45.912185384543854" lon="11.001785200552813"><ele>699.0</ele><time>2026-04-04T12:05:38Z</time></trkpt><trkpt lat="45.912293197316565" lon="11.001822293659734"><ele>699.0</ele><time>2026-04-04T12:05:39Z</time></trkpt><trkpt lat="45.91241712430429" lon="11.001841468746978"><ele>699.0</ele><time>2026-04-04T12:05:40Z</time></trkpt><trkpt lat="45.912542018523915" lon="11.001865609968085"><ele>699.0</ele><time>2026-04-04T12:05:41Z</time></trkpt><trkpt lat="45.912652082704795" lon="11.001889569742966"><ele>699.0</ele><time>2026-04-04T12:05:42Z</time></trkpt><trkpt lat="45.91274585532947" lon="11.001904764788272"><ele>703.4000000000001</ele><time>2026-04-04T12:05:43Z</time></trkpt><trkpt lat="45.91281880007548" lon="11.001915802060513"><ele>707.8</ele><time>2026-04-04T12:05:44Z</time></trkpt><trkpt lat="45.91288762179669" lon="11.001848453430512"><ele>712.2</ele><time>2026-04-04T12:05:46Z</time></trkpt><trkpt lat="45.91281536288987" lon="11.00171231322032"><ele>716.5999999999999</ele><time>2026-04-04T12:05:48Z</time></trkpt><trkpt lat="45.91269387478733" lon="11.00163930471344"><ele>721.0</ele><time>2026-04-04T12:05:49Z</time></trkpt><trkpt lat="45.912595827514764" lon="11.00153857014298"><ele>725.0</ele><time>2026-04-04T12:05:50Z</time></trkpt><trkpt lat="45.91250374729387" lon="11.001437317112622"><ele>729.0</ele><time>2026-04-04T12:05:51Z</time></trkpt><trkpt lat="45.91242998414441" lon="11.001345601070122"><ele>733.0</ele><time>2026-04-04T12:05:52Z</time></trkpt><trkpt lat="45.91236971225867" lon="11.001245697601515"><ele>737.0</ele><time>2026-04-04T12:05:54Z</time></trkpt><trkpt lat="45.9124421865882" lon="11.001185310672058"><ele>741.0</ele><time>2026-04-04T12:05:56Z</time></trkpt><trkpt lat="45.91251175243047" lon="11.00120796906989"><ele>746.1999999999999</ele><time>2026-04-04T12:05:57Z</time></trkpt><trkpt lat="45.912588454970034" lon="11.001280976925896"><ele>751.4</ele><time>2026-04-04T12:05:58Z</time></trkpt><trkpt lat="45.91267635046128" lon="11.001328776481376"><ele>756.6</ele><time>2026-04-04T12:05:59Z</time></trkpt><trkpt lat="45.91277505121689" lon="11.001331409041327"><ele>761.8</ele><time>2026-04-04T12:06:00Z</time></trkpt><trkpt lat="45.912876789355686" lon="11.001339591213162"><ele>767.0</ele><time>2026-04-04T12:06:01Z</time></trkpt><trkpt lat="45.91297207030607" lon="11.001358446746893"><ele>767.0</ele><time>2026-04-04T12:06:02Z</time></trkpt><trkpt lat="45.913070190152375" lon="11.001377686219989"><ele>767.0</ele><time>2026-04-04T12:06:03Z</time></trkpt><trkpt lat="45.913159409920176" lon="11.001391088305862"><ele>767.0</ele><time>2026-04-04T12:06:04Z</time></trkpt><trkpt lat="45.91325135168418" lon="11.001392475201122"><ele>767.0</ele><time>2026-04-04T12:06:05Z</time></trkpt><trkpt lat="45.91334364613986" lon="11.001415470204593"><ele>767.0</ele><time>2026-04-04T12:06:06Z</time></trkpt><trkpt lat="45.913443081943285" lon="11.001438012522598"><ele>771.0</ele><time>2026-04-04T12:06:07Z</time></trkpt><trkpt lat="45.91353875555663" lon="11.001464448226743"><ele>775.0</ele><time>2026-04-04T12:06:08Z</time></trkpt><trkpt lat="45.91362796523462" lon="11.001480040040446"><ele>779.0</ele><time>2026-04-04T12:06:09Z</time></trkpt><trkpt lat="45.913731553821414" lon="11.001501706573436"><ele>783.0</ele><time>2026-04-04T12:06:10Z</time></trkpt><trkpt lat="45.913813773623126" lon="11.001534045552823"><ele>787.0</ele><time>2026-04-04T12:06:11Z</time></trkpt><trkpt lat="45.91388729889395" lon="11.001504173421322"><ele>787.0</ele><time>2026-04-04T12:06:13Z</time></trkpt><trkpt lat="45.91385469252259" lon="11.001378503806535"><ele>787.0</ele><time>2026-04-04T12:06:15Z</time></trkpt><trkpt lat="45.91378139130365" lon="11.00134560881159"><ele>787.0</ele><time>2026-04-04T12:06:16Z</time></trkpt><trkpt lat="45.91369665317189" lon="11.001338455123749"><ele>787.0</ele><time>2026-04-04T12:06:17Z</time></trkpt><trkpt lat="45.913577591150755" lon="11.001303031467387"><ele>787.0</ele><time>2026-04-04T12:06:18Z</time></trkpt><trkpt lat="45.91347826645553" lon="11.001261927906452"><ele>787.0</ele><time>2026-04-04T12:06:19Z</time></trkpt><trkpt lat="45.91340598657692" lon="11.00121186906787"><ele>787.0</ele><time>2026-04-04T12:06:20Z</time></trkpt><trkpt lat="45.91336702673732" lon="11.001123045540634"><ele>787.0</ele><time>2026-04-04T12:06:22Z</time></trkpt><trkpt lat="45.9134508749485" lon="11.001044850870171"><ele>787.0</ele><time>2026-04-04T12:06:24Z</time></trkpt><trkpt lat="45.913538066660884" lon="11.001063284381146"><ele>787.0</ele><time>2026-04-04T12:06:25Z</time></trkpt><trkpt lat="45.913635295309724" lon="11.001132525502918"><ele>787.0</ele><time>2026-04-04T12:06:26Z</time></trkpt><trkpt lat="45.91377415129942" lon="11.001192527385406"><ele>787.0</ele><time>2026-04-04T12:06:27Z</time></trkpt><trkpt lat="45.91392654884284" lon="11.001223742598048"><ele>787.0</ele><time>2026-04-04T12:06:28Z</time></trkpt><trkpt lat="45.91405087318918" lon="11.001257325995557"><ele>787.0</ele><time>2026-04-04T12:06:29Z</time></trkpt><trkpt lat="45.91414151054835" lon="11.00133607023406"><ele>786.9999999999999</ele><time>2026-04-04T12:06:30Z</time></trkpt><trkpt lat="45.91421871335931" lon="11.001439209816471"><ele>787.0</ele><time>2026-04-04T12:06:31Z</time></trkpt><trkpt lat="45.914289026386626" lon="11.001523412334716"><ele>787.0</ele><time>2026-04-04T12:06:32Z</time></trkpt><trkpt lat="45.914357483948514" lon="11.001538052175784"><ele>787.0</ele><time>2026-04-04T12:06:33Z</time></trkpt><trkpt lat="45.91442878313092" lon="11.001539994464215"><ele>786.9999999999999</ele><time>2026-04-04T12:06:34Z</time></trkpt><trkpt lat="45.91449729817673" lon="11.00155549753743"><ele>787.0</ele><time>2026-04-04T12:06:35Z</time></trkpt><trkpt lat="45.91456648790101" lon="11.001545710435153"><ele>789.0</ele><time>2026-04-04T12:06:36Z</time></trkpt><trkpt lat="45.91464333945269" lon="11.001509488571251"><ele>791.0</ele><time>2026-04-04T12:06:37Z</time></trkpt><trkpt lat="45.914722778312175" lon="11.001473572441009"><ele>793.0</ele><time>2026-04-04T12:06:38Z</time></trkpt><trkpt lat="45.914859610318196" lon="11.001430925049814"><ele>795.0</ele><time>2026-04-04T12:06:40Z</time></trkpt><trkpt lat="45.91494543688399" lon="11.001390934441513"><ele>797.0</ele><time>2026-04-04T12:06:41Z</time></trkpt><trkpt lat="45.91501195297285" lon="11.001308839130502"><ele>797.0000000000001</ele><time>2026-04-04T12:06:42Z</time></trkpt><trkpt lat="45.91506569313338" lon="11.001232839099174"><ele>797.0</ele><time>2026-04-04T12:06:43Z</time></trkpt><trkpt lat="45.91511982853809" lon="11.00116994505103"><ele>797.0</ele><time>2026-04-04T12:06:44Z</time></trkpt><trkpt lat="45.91515657360481" lon="11.001084265154029"><ele>797.0</ele><time>2026-04-04T12:06:45Z</time></trkpt><trkpt lat="45.91517245587539" lon="11.00098425975427"><ele>797.0000000000001</ele><time>2026-04-04T12:06:46Z</time></trkpt><trkpt lat="45.91518426706415" lon="11.000854022102443"><ele>797.0</ele><time>2026-04-04T12:06:47Z</time></trkpt><trkpt lat="45.9151924313418" lon="11.000724802245497"><ele>796.8333333333334</ele><time>2026-04-04T12:06:48Z</time></trkpt><trkpt lat="45.91521928112893" lon="11.000603856086993"><ele>796.6666666666667</ele><time>2026-04-04T12:06:49Z</time></trkpt><trkpt lat="45.915224880737306" lon="11.000472489844551"><ele>796.5</ele><time>2026-04-04T12:06:51Z</time></trkpt><trkpt lat="45.91515694825564" lon="11.000386501057786"><ele>796.3333333333333</ele><time>2026-04-04T12:06:53Z</time></trkpt><trkpt lat="45.91511208761448" lon="11.000263308668814"><ele>796.1666666666666</ele><time>2026-04-04T12:06:55Z</time></trkpt><trkpt lat="45.915053573174625" lon="11.00020253946114"><ele>796.0</ele><time>2026-04-04T12:06:57Z</time></trkpt><trkpt lat="45.91500553764974" lon="11.000130727686058"><ele>798.8333333333333</ele><time>2026-04-04T12:06:59Z</time></trkpt><trkpt lat="45.914939043569106" lon="11.000074002959357"><ele>801.6666666666666</ele><time>2026-04-04T12:07:18Z</time></trkpt><trkpt lat="45.91490795959047" lon="10.999962733487509"><ele>804.5</ele><time>2026-04-04T12:07:19Z</time></trkpt><trkpt lat="45.91486473976654" lon="10.99986309703575"><ele>807.3333333333333</ele><time>2026-04-04T12:07:20Z</time></trkpt><trkpt lat="45.91484181464384" lon="10.999773719256273"><ele>810.1666666666666</ele><time>2026-04-04T12:07:21Z</time></trkpt><trkpt lat="45.91482647884381" lon="10.999670289568972"><ele>813.0</ele><time>2026-04-04T12:07:22Z</time></trkpt><trkpt lat="45.91482739960922" lon="10.999566517520378"><ele>813.0</ele><time>2026-04-04T12:07:23Z</time></trkpt><trkpt lat="45.91483652287281" lon="10.999454748623382"><ele>813.0</ele><time>2026-04-04T12:07:24Z</time></trkpt><trkpt lat="45.914845925421375" lon="10.999319043359563"><ele>813.0</ele><time>2026-04-04T12:07:25Z</time></trkpt><trkpt lat="45.91483797902436" lon="10.999143362042116"><ele>813.0</ele><time>2026-04-04T12:07:26Z</time></trkpt><trkpt lat="45.91484227981004" lon="10.99901829647345"><ele>813.0</ele><time>2026-04-04T12:07:27Z</time></trkpt><trkpt lat="45.91485528391526" lon="10.998925125306059"><ele>813.0</ele><time>2026-04-04T12:07:29Z</time></trkpt><trkpt lat="45.91494860771541" lon="10.998984999350796"><ele>814.0</ele><time>2026-04-04T12:07:32Z</time></trkpt><trkpt lat="45.91503209203453" lon="10.998952343054057"><ele>815.0</ele><time>2026-04-04T12:07:34Z</time></trkpt><trkpt lat="45.91512967470359" lon="10.998848735558532"><ele>816.0</ele><time>2026-04-04T12:07:36Z</time></trkpt><trkpt lat="45.91519896617591" lon="10.998881371556768"><ele>817.0</ele><time>2026-04-04T12:07:38Z</time></trkpt><trkpt lat="45.915296755565805" lon="10.998787365955161"><ele>818.0</ele><time>2026-04-04T12:07:40Z</time></trkpt><trkpt lat="45.91538025225974" lon="10.998676163860386"><ele>818.0000000000001</ele><time>2026-04-04T12:07:42Z</time></trkpt><trkpt lat="45.9154176247284" lon="10.998592180351977"><ele>818.0</ele><time>2026-04-04T12:07:43Z</time></trkpt><trkpt lat="45.915455146829316" lon="10.998505662007066"><ele>818.0</ele><time>2026-04-04T12:07:44Z</time></trkpt><trkpt lat="45.91548237957338" lon="10.998423700235037"><ele>818.0</ele><time>2026-04-04T12:07:45Z</time></trkpt><trkpt lat="45.91552877477157" lon="10.998330936865965"><ele>818.0000000000001</ele><time>2026-04-04T12:07:46Z</time></trkpt><trkpt lat="45.91560016426692" lon="10.998204304030946"><ele>818.0</ele><time>2026-04-04T12:07:48Z</time></trkpt><trkpt lat="45.915689169369266" lon="10.998107211479127"><ele>820.1666666666667</ele><time>2026-04-04T12:07:50Z</time></trkpt><trkpt lat="45.91573823821495" lon="10.997976331876366"><ele>822.3333333333334</ele><time>2026-04-04T12:07:52Z</time></trkpt><trkpt lat="45.915803187011605" lon="10.997920067335173"><ele>824.5</ele><time>2026-04-04T12:07:54Z</time></trkpt><trkpt lat="45.91581544651398" lon="10.997766693561118"><ele>826.6666666666667</ele><time>2026-04-04T12:07:57Z</time></trkpt><trkpt lat="45.91585003337635" lon="10.997674014826103"><ele>828.8333333333334</ele><time>2026-04-04T12:07:58Z</time></trkpt><trkpt lat="45.915906070641576" lon="10.997588108688038"><ele>831.0</ele><time>2026-04-04T12:08:01Z</time></trkpt><trkpt lat="45.91600387784937" lon="10.997526565169219"><ele>837.7142857142857</ele><time>2026-04-04T12:08:04Z</time></trkpt><trkpt lat="45.91610023943873" lon="10.997492104506541"><ele>844.4285714285714</ele><time>2026-04-04T12:08:06Z</time></trkpt><trkpt lat="45.91615313786073" lon="10.997438891365686"><ele>851.1428571428571</ele><time>2026-04-04T12:08:08Z</time></trkpt><trkpt lat="45.91623318175314" lon="10.997444011568765"><ele>857.8571428571429</ele><time>2026-04-04T12:08:10Z</time></trkpt><trkpt lat="45.916295214289285" lon="10.997416315999864"><ele>864.5714285714286</ele><time>2026-04-04T12:08:11Z</time></trkpt><trkpt lat="45.91635757221286" lon="10.997384695497171"><ele>871.2857142857142</ele><time>2026-04-04T12:08:12Z</time></trkpt><trkpt lat="45.91642278547049" lon="10.99740405205979"><ele>878.0</ele><time>2026-04-04T12:08:15Z</time></trkpt><trkpt lat="45.91651482911357" lon="10.997446004542736"><ele>878.0</ele><time>2026-04-04T12:08:18Z</time></trkpt><trkpt lat="45.916606177878755" lon="10.997392068697842"><ele>878.0</ele><time>2026-04-04T12:08:21Z</time></trkpt><trkpt lat="45.916651056470684" lon="10.997273698189796"><ele>878.0</ele><time>2026-04-04T12:08:23Z</time></trkpt><trkpt lat="45.916701645514046" lon="10.997178184531789"><ele>878.0</ele><time>2026-04-04T12:08:26Z</time></trkpt><trkpt lat="45.916732489723046" lon="10.99709822651533"><ele>878.0</ele><time>2026-04-04T12:08:28Z</time></trkpt><trkpt lat="45.91667642414116" lon="10.99693491474262"><ele>878.0000000000001</ele><time>2026-04-04T12:08:30Z</time></trkpt><trkpt lat="45.91664777958761" lon="10.996843778566994"><ele>878.0</ele><time>2026-04-04T12:08:31Z</time></trkpt><trkpt lat="45.91660117529615" lon="10.996728197519836"><ele>878.0</ele><time>2026-04-04T12:08:33Z</time></trkpt><trkpt lat="45.91661185404496" lon="10.996627673625602"><ele>878.0</ele><time>2026-04-04T12:08:36Z</time></trkpt><trkpt lat="45.916669849350704" lon="10.9965588448027"><ele>878.0000000000001</ele><time>2026-04-04T12:08:37Z</time></trkpt><trkpt lat="45.91675236174657" lon="10.996514798191516"><ele>878.0</ele><time>2026-04-04T12:08:38Z</time></trkpt><trkpt lat="45.916869691338285" lon="10.996468977063387"><ele>882.75</ele><time>2026-04-04T12:08:39Z</time></trkpt><trkpt lat="45.91698175928813" lon="10.99643132334071"><ele>887.5</ele><time>2026-04-04T12:08:40Z</time></trkpt><trkpt lat="45.91710685374552" lon="10.996360985788181"><ele>892.25</ele><time>2026-04-04T12:08:41Z</time></trkpt><trkpt lat="45.91721364787222" lon="10.9962933167879"><ele>897.0</ele><time>2026-04-04T12:08:42Z</time></trkpt><trkpt lat="45.91731292349914" lon="10.996238825783253"><ele>897.0</ele><time>2026-04-04T12:08:43Z</time></trkpt><trkpt lat="45.917384111539214" lon="10.99621337657109"><ele>897.0</ele><time>2026-04-04T12:08:44Z</time></trkpt><trkpt lat="45.91733692940859" lon="10.996087821099051"><ele>897.0</ele><time>2026-04-04T12:08:48Z</time></trkpt><trkpt lat="45.917236567986905" lon="10.996064430229161"><ele>897.0</ele><time>2026-04-04T12:08:49Z</time></trkpt><trkpt lat="45.91714710299528" lon="10.99603317060862"><ele>897.0</ele><time>2026-04-04T12:08:50Z</time></trkpt><trkpt lat="45.917065758585984" lon="10.995999638195588"><ele>897.0</ele><time>2026-04-04T12:08:51Z</time></trkpt><trkpt lat="45.91698487062391" lon="10.99594847587706"><ele>897.0</ele><time>2026-04-04T12:08:52Z</time></trkpt><trkpt lat="45.916945931019" lon="10.995832339192459"><ele>897.0</ele><time>2026-04-04T12:08:54Z</time></trkpt><trkpt lat="45.917078564169934" lon="10.995727626946529"><ele>897.0</ele><time>2026-04-04T12:08:56Z</time></trkpt><trkpt lat="45.9171914170639" lon="10.995673269618022"><ele>897.0</ele><time>2026-04-04T12:08:57Z</time></trkpt><trkpt lat="45.917285996619846" lon="10.995623599006906"><ele>904.4000000000001</ele><time>2026-04-04T12:08:58Z</time></trkpt><trkpt lat="45.91735435242608" lon="10.995600074023768"><ele>911.8000000000001</ele><time>2026-04-04T12:08:59Z</time></trkpt><trkpt lat="45.9174355790503" lon="10.99558604493188"><ele>919.2</ele><time>2026-04-04T12:09:00Z</time></trkpt><trkpt lat="45.91752429973554" lon="10.995617092179204"><ele>926.6</ele><time>2026-04-04T12:09:01Z</time></trkpt><trkpt lat="45.9176257278466" lon="10.995627912089889"><ele>934.0</ele><time>2026-04-04T12:09:02Z</time></trkpt><trkpt lat="45.917732572258686" lon="10.995601644786667"><ele>936.0</ele><time>2026-04-04T12:09:03Z</time></trkpt><trkpt lat="45.917830680152036" lon="10.995605694359574"><ele>938.0000000000001</ele><time>2026-04-04T12:09:04Z</time></trkpt><trkpt lat="45.91791650752034" lon="10.995625269458657"><ele>940.0000000000001</ele><time>2026-04-04T12:09:05Z</time></trkpt><trkpt lat="45.91798843457426" lon="10.995677681782063"><ele>942.0</ele><time>2026-04-04T12:09:06Z</time></trkpt><trkpt lat="45.91812914806409" lon="10.9957295869905"><ele>944.0</ele><time>2026-04-04T12:09:08Z</time></trkpt><trkpt lat="45.918209116202014" lon="10.995777892688768"><ele>944.0</ele><time>2026-04-04T12:09:09Z</time></trkpt><trkpt lat="45.91828193149041" lon="10.99581789822574"><ele>944.0000000000001</ele><time>2026-04-04T12:09:10Z</time></trkpt><trkpt lat="45.918351465042" lon="10.995845757974497"><ele>944.0000000000001</ele><time>2026-04-04T12:09:11Z</time></trkpt><trkpt lat="45.91843377899279" lon="10.995824013646883"><ele>944.0</ele><time>2026-04-04T12:09:13Z</time></trkpt><trkpt lat="45.91846632711978" lon="10.995668745980522"><ele>944.0</ele><time>2026-04-04T12:09:15Z</time></trkpt><trkpt lat="45.91840377089345" lon="10.995532675407832"><ele>944.0</ele><time>2026-04-04T12:09:18Z</time></trkpt><trkpt lat="45.91837064368147" lon="10.995446261456465"><ele>944.0000000000001</ele><time>2026-04-04T12:09:19Z</time></trkpt><trkpt lat="45.91839053845366" lon="10.995252505412497"><ele>944.0000000000001</ele><time>2026-04-04T12:09:20Z</time></trkpt><trkpt lat="45.91828995608153" lon="10.99515822729615"><ele>944.0</ele><time>2026-04-04T12:09:21Z</time></trkpt><trkpt lat="45.918207519883936" lon="10.995100564400735"><ele>944.0</ele><time>2026-04-04T12:09:22Z</time></trkpt><trkpt lat="45.91814666424393" lon="10.995045468626152"><ele>944.0</ele><time>2026-04-04T12:09:23Z</time></trkpt><trkpt lat="45.918058738461106" lon="10.994977766538826"><ele>944.0000000000001</ele><time>2026-04-04T12:09:25Z</time></trkpt><trkpt lat="45.918093030384" lon="10.99505410530697"><ele>944.0000000000001</ele><time>2026-04-04T12:09:37Z</time></trkpt><trkpt lat="45.91797254352266" lon="10.995062583483456"><ele>944.0</ele><time>2026-04-04T12:10:15Z</time></trkpt><trkpt lat="45.91788785737009" lon="10.995010127915714"><ele>944.0</ele><time>2026-04-04T12:10:16Z</time></trkpt><trkpt lat="45.91780205350176" lon="10.994973590238834"><ele>949.0000000000001</ele><time>2026-04-04T12:10:17Z</time></trkpt><trkpt lat="45.91772323838714" lon="10.994916187904874"><ele>954.0</ele><time>2026-04-04T12:10:18Z</time></trkpt><trkpt lat="45.917651674214504" lon="10.994866354056002"><ele>959.0</ele><time>2026-04-04T12:10:19Z</time></trkpt><trkpt lat="45.91756848664852" lon="10.994831260949265"><ele>964.0</ele><time>2026-04-04T12:10:20Z</time></trkpt><trkpt lat="45.917477930745974" lon="10.994796168350076"><ele>969.0000000000001</ele><time>2026-04-04T12:10:21Z</time></trkpt><trkpt lat="45.917414910661684" lon="10.994737396980458"><ele>974.0</ele><time>2026-04-04T12:10:22Z</time></trkpt><trkpt lat="45.91735428240946" lon="10.994677978972364"><ele>974.0000000000001</ele><time>2026-04-04T12:10:23Z</time></trkpt><trkpt lat="45.91729747477018" lon="10.994629311693126"><ele>974.0</ele><time>2026-04-04T12:10:24Z</time></trkpt><trkpt lat="45.91724296189587" lon="10.994567745218054"><ele>974.0</ele><time>2026-04-04T12:10:25Z</time></trkpt><trkpt lat="45.91718344559264" lon="10.994520917891293"><ele>974.0</ele><time>2026-04-04T12:10:26Z</time></trkpt><trkpt lat="45.91707786269886" lon="10.994479528192985"><ele>974.0000000000001</ele><time>2026-04-04T12:10:27Z</time></trkpt><trkpt lat="45.91698823731987" lon="10.994413395468145"><ele>974.0</ele><time>2026-04-04T12:10:28Z</time></trkpt><trkpt lat="45.91689713823792" lon="10.994333720392365"><ele>974.0</ele><time>2026-04-04T12:10:29Z</time></trkpt><trkpt lat="45.91679793740067" lon="10.994238173584824"><ele>974.0000000000001</ele><time>2026-04-04T12:10:30Z</time></trkpt><trkpt lat="45.91674799640931" lon="10.994108624985111"><ele>974.0000000000001</ele><time>2026-04-04T12:10:31Z</time></trkpt><trkpt lat="45.916693297754406" lon="10.994009203534487"><ele>974.0</ele><time>2026-04-04T12:10:32Z</time></trkpt><trkpt lat="45.916633311258224" lon="10.993963763138911"><ele>974.0</ele><time>2026-04-04T12:10:33Z</time></trkpt><trkpt lat="45.916533863486364" lon="10.993978512771854"><ele>972.4000000000001</ele><time>2026-04-04T12:10:35Z</time></trkpt><trkpt lat="45.91641750886153" lon="10.99406293429292"><ele>970.8000000000001</ele><time>2026-04-04T12:10:36Z</time></trkpt><trkpt lat="45.91634593875316" lon="10.99413561590594"><ele>969.1999999999999</ele><time>2026-04-04T12:10:37Z</time></trkpt><trkpt lat="45.916224697042345" lon="10.994187812955376"><ele>967.5999999999999</ele><time>2026-04-04T12:10:38Z</time></trkpt><trkpt lat="45.916143242212755" lon="10.994183747842982"><ele>966.0</ele><time>2026-04-04T12:10:39Z</time></trkpt><trkpt lat="45.916075440947125" lon="10.994204657478033"><ele>971.6666666666666</ele><time>2026-04-04T12:10:40Z</time></trkpt><trkpt lat="45.91596405764563" lon="10.994163375208704"><ele>977.3333333333333</ele><time>2026-04-04T12:10:42Z</time></trkpt><trkpt lat="45.915932444216814" lon="10.994062490859971"><ele>983.0</ele><time>2026-04-04T12:10:43Z</time></trkpt><trkpt lat="45.91588876052962" lon="10.993996648431885"><ele>988.6666666666666</ele><time>2026-04-04T12:10:44Z</time></trkpt><trkpt lat="45.91586807262555" lon="10.993847011976145"><ele>994.3333333333333</ele><time>2026-04-04T12:10:46Z</time></trkpt><trkpt lat="45.915892876616354" lon="10.993738910521067"><ele>1000.0</ele><time>2026-04-04T12:10:47Z</time></trkpt><trkpt lat="45.9159166779488" lon="10.99365069842247"><ele>1000.0</ele><time>2026-04-04T12:10:48Z</time></trkpt><trkpt lat="45.91595861688144" lon="10.993511546278887"><ele>1000.0</ele><time>2026-04-04T12:10:49Z</time></trkpt><trkpt lat="45.91602471714762" lon="10.993366495321796"><ele>1000.0</ele><time>2026-04-04T12:10:50Z</time></trkpt><trkpt lat="45.91606564152071" lon="10.99321089923273"><ele>1000.0</ele><time>2026-04-04T12:10:51Z</time></trkpt><trkpt lat="45.91611466617435" lon="10.99306780224822"><ele>1004.4999999999999</ele><time>2026-04-04T12:10:52Z</time></trkpt><trkpt lat="45.91616173034698" lon="10.992992339944033"><ele>1009.0</ele><time>2026-04-04T12:10:53Z</time></trkpt><trkpt lat="45.91626067954963" lon="10.992925417491284"><ele>1013.5</ele><time>2026-04-04T12:10:54Z</time></trkpt><trkpt lat="45.91633355482995" lon="10.99282476975828"><ele>1018.0</ele><time>2026-04-04T12:10:55Z</time></trkpt><trkpt lat="45.91640162527695" lon="10.992771507046978"><ele>1022.4999999999999</ele><time>2026-04-04T12:10:56Z</time></trkpt><trkpt lat="45.916469995155545" lon="10.992763556796557"><ele>1027.0</ele><time>2026-04-04T12:10:57Z</time></trkpt><trkpt lat="45.9165577813937" lon="10.99261492905521"><ele>1027.0</ele><time>2026-04-04T12:10:59Z</time></trkpt><trkpt lat="45.91659287228781" lon="10.992538460852753"><ele>1027.0</ele><time>2026-04-04T12:11:00Z</time></trkpt><trkpt lat="45.91653717696065" lon="10.992456770562653"><ele>1027.0</ele><time>2026-04-04T12:11:02Z</time></trkpt><trkpt lat="45.91647099314667" lon="10.99241299857243"><ele>1027.0</ele><time>2026-04-04T12:11:04Z</time></trkpt><trkpt lat="45.916412283257166" lon="10.992365178696073"><ele>1027.0</ele><time>2026-04-04T12:11:05Z</time></trkpt><trkpt lat="45.916426078801756" lon="10.992259082776451"><ele>1027.0</ele><time>2026-04-04T12:11:08Z</time></trkpt><trkpt lat="45.916502738787344" lon="10.992143230165789"><ele>1032.8333333333333</ele><time>2026-04-04T12:11:10Z</time></trkpt><trkpt lat="45.916578014500985" lon="10.99207250809757"><ele>1038.6666666666665</ele><time>2026-04-04T12:11:11Z</time></trkpt><trkpt lat="45.91660525473236" lon="10.991938861592903"><ele>1044.5</ele><time>2026-04-04T12:11:14Z</time></trkpt><trkpt lat="45.916654910876865" lon="10.991863641064041"><ele>1050.3333333333333</ele><time>2026-04-04T12:11:15Z</time></trkpt><trkpt lat="45.91668000298351" lon="10.991767550505005"><ele>1056.1666666666667</ele><time>2026-04-04T12:11:18Z</time></trkpt><trkpt lat="45.916722425026215" lon="10.991646720600803"><ele>1062.0</ele><time>2026-04-04T12:11:19.999Z</time></trkpt><trkpt lat="45.91678064227664" lon="10.991521562395725"><ele>1067.6666666666667</ele><time>2026-04-04T12:11:22.999Z</time></trkpt><trkpt lat="45.91683044776422" lon="10.991398697151809"><ele>1073.3333333333333</ele><time>2026-04-04T12:11:25.999Z</time></trkpt><trkpt lat="45.91688522836829" lon="10.991341077242774"><ele>1079.0</ele><time>2026-04-04T12:11:28.999Z</time></trkpt><trkpt lat="45.91695842549849" lon="10.991300986126166"><ele>1084.6666666666665</ele><time>2026-04-04T12:11:30.999Z</time></trkpt><trkpt lat="45.917037293319055" lon="10.991300672845142"><ele>1090.3333333333333</ele><time>2026-04-04T12:11:33.999Z</time></trkpt><trkpt lat="45.91709652610717" lon="10.991263424043076"><ele>1096.0</ele><time>2026-04-04T12:11:41Z</time></trkpt><trkpt lat="45.91712578480153" lon="10.991173446250134"><ele>1096.0</ele><time>2026-04-04T12:13:06Z</time></trkpt><trkpt lat="45.917058399285885" lon="10.991167110508252"><ele>1096.0</ele><time>2026-04-04T12:16:12Z</time></trkpt><trkpt lat="45.91699542959091" lon="10.99111093154938"><ele>1096.0</ele><time>2026-04-04T12:16:26Z</time></trkpt><trkpt lat="45.917089012288315" lon="10.991171938896022"><ele>1096.0</ele><time>2026-04-04T12:16:41Z</time></trkpt><trkpt lat="45.91715791012694" lon="10.99118931682228"><ele>1096.0</ele><time>2026-04-04T12:16:59Z</time></trkpt><trkpt lat="45.91726166996811" lon="10.991343783222188"><ele>1096.0</ele><time>2026-04-04T12:17:02Z</time></trkpt><trkpt lat="45.91729267107408" lon="10.991445665032934"><ele>1096.0</ele><time>2026-04-04T12:17:05Z</time></trkpt><trkpt lat="45.917356976285" lon="10.991469046891943"><ele>1096.0</ele><time>2026-04-04T12:19:37Z</time></trkpt><trkpt lat="45.91741147386099" lon="10.99151876983278"><ele>1096.0</ele><time>2026-04-04T12:19:39Z</time></trkpt><trkpt lat="45.91748461936074" lon="10.991589211052085"><ele>1096.0</ele><time>2026-04-04T12:19:41Z</time></trkpt><trkpt lat="45.91755271669952" lon="10.991653829228046"><ele>1096.0</ele><time>2026-04-04T12:19:43Z</time></trkpt><trkpt lat="45.91766265582691" lon="10.99173221912951"><ele>1096.5</ele><time>2026-04-04T12:19:45Z</time></trkpt><trkpt lat="45.917724802322795" lon="10.991770718935436"><ele>1097.0</ele><time>2026-04-04T12:19:45.999Z</time></trkpt><trkpt lat="45.91783982268081" lon="10.991831605593399"><ele>1097.5</ele><time>2026-04-04T12:19:47.999Z</time></trkpt><trkpt lat="45.91790407166433" lon="10.991839549520101"><ele>1098.0</ele><time>2026-04-04T12:19:48.999Z</time></trkpt><trkpt lat="45.91797016352217" lon="10.991839876449319"><ele>1098.5</ele><time>2026-04-04T12:19:49.999Z</time></trkpt><trkpt lat="45.91803837071167" lon="10.99180669745029"><ele>1099.0</ele><time>2026-04-04T12:19:51.999Z</time></trkpt><trkpt lat="45.91809166388405" lon="10.991660652555804"><ele>1099.4</ele><time>2026-04-04T12:19:53.999Z</time></trkpt><trkpt lat="45.91810698296405" lon="10.991470550989183"><ele>1099.8000000000002</ele><time>2026-04-04T12:19:55.999Z</time></trkpt><trkpt lat="45.91813222616985" lon="10.991352727021553"><ele>1100.1999999999998</ele><time>2026-04-04T12:19:56.999Z</time></trkpt><trkpt lat="45.91816255036615" lon="10.991257833847982"><ele>1100.6</ele><time>2026-04-04T12:19:57.999Z</time></trkpt><trkpt lat="45.9182043276722" lon="10.99114836478756"><ele>1101.0</ele><time>2026-04-04T12:19:59.999Z</time></trkpt><trkpt lat="45.91823758212839" lon="10.991057681729696"><ele>1101.0</ele><time>2026-04-04T12:20:03Z</time></trkpt><trkpt lat="45.918210083460735" lon="10.990957068815502"><ele>1101.0</ele><time>2026-04-04T12:20:05Z</time></trkpt><trkpt lat="45.918149108760964" lon="10.990911994303524"><ele>1101.0</ele><time>2026-04-04T12:20:06Z</time></trkpt><trkpt lat="45.918083856434556" lon="10.99087193101124"><ele>1101.0</ele><time>2026-04-04T12:20:07Z</time></trkpt><trkpt lat="45.91800953177463" lon="10.99080583659365"><ele>1101.0</ele><time>2026-04-04T12:20:08Z</time></trkpt><trkpt lat="45.91792956127539" lon="10.990727683703268"><ele>1101.0</ele><time>2026-04-04T12:20:09Z</time></trkpt><trkpt lat="45.91783782859317" lon="10.990648261721851"><ele>1103.3333333333333</ele><time>2026-04-04T12:20:10Z</time></trkpt><trkpt lat="45.917718379517474" lon="10.990546725915134"><ele>1105.6666666666665</ele><time>2026-04-04T12:20:11Z</time></trkpt><trkpt lat="45.917591092286756" lon="10.99043222116366"><ele>1108.0</ele><time>2026-04-04T12:20:12Z</time></trkpt><trkpt lat="45.91745216871623" lon="10.990306759089377"><ele>1108.0</ele><time>2026-04-04T12:20:13Z</time></trkpt><trkpt lat="45.917351579809825" lon="10.990206610853663"><ele>1108.0</ele><time>2026-04-04T12:20:14Z</time></trkpt><trkpt lat="45.91724925965569" lon="10.990117740885168"><ele>1108.0</ele><time>2026-04-04T12:20:15Z</time></trkpt><trkpt lat="45.91712855539176" lon="10.99001144874572"><ele>1108.0</ele><time>2026-04-04T12:20:16Z</time></trkpt><trkpt lat="45.91701443560623" lon="10.989894457131102"><ele>1112.5</ele><time>2026-04-04T12:20:17Z</time></trkpt><trkpt lat="45.916911966326715" lon="10.98977617056505"><ele>1117.0</ele><time>2026-04-04T12:20:18Z</time></trkpt><trkpt lat="45.91681761420862" lon="10.989655695204618"><ele>1121.5</ele><time>2026-04-04T12:20:19Z</time></trkpt><trkpt lat="45.91672707683278" lon="10.989571305123379"><ele>1126.0</ele><time>2026-04-04T12:20:20Z</time></trkpt><trkpt lat="45.91664948203166" lon="10.989483815356227"><ele>1126.0</ele><time>2026-04-04T12:20:21Z</time></trkpt><trkpt lat="45.916568826842784" lon="10.989399236371849"><ele>1126.0</ele><time>2026-04-04T12:20:22Z</time></trkpt><trkpt lat="45.91649439530411" lon="10.989321468262107"><ele>1126.0</ele><time>2026-04-04T12:20:23Z</time></trkpt><trkpt lat="45.916425579897734" lon="10.989258595421257"><ele>1126.0</ele><time>2026-04-04T12:20:24Z</time></trkpt><trkpt lat="45.916362046927254" lon="10.989210060890453"><ele>1126.0</ele><time>2026-04-04T12:20:25Z</time></trkpt><trkpt lat="45.916282248207025" lon="10.98917146825901"><ele>1126.0</ele><time>2026-04-04T12:20:26Z</time></trkpt><trkpt lat="45.9161988148695" lon="10.989162534771475"><ele>1126.0</ele><time>2026-04-04T12:20:27Z</time></trkpt><trkpt lat="45.91611937204103" lon="10.989173612754962"><ele>1126.0</ele><time>2026-04-04T12:20:28Z</time></trkpt><trkpt lat="45.91603509245707" lon="10.989177439291694"><ele>1126.0</ele><time>2026-04-04T12:20:29Z</time></trkpt><trkpt lat="45.9159551302559" lon="10.98915940497438"><ele>1126.0</ele><time>2026-04-04T12:20:30Z</time></trkpt><trkpt lat="45.915879768624194" lon="10.989124026969192"><ele>1126.0</ele><time>2026-04-04T12:20:31Z</time></trkpt><trkpt lat="45.915820396280466" lon="10.989065286535535"><ele>1126.0</ele><time>2026-04-04T12:20:32Z</time></trkpt><trkpt lat="45.915786348146725" lon="10.988975633648458"><ele>1125.6</ele><time>2026-04-04T12:20:33Z</time></trkpt><trkpt lat="45.91576946013774" lon="10.988855070050418"><ele>1125.1999999999998</ele><time>2026-04-04T12:20:34Z</time></trkpt><trkpt lat="45.91575913174084" lon="10.988726190043574"><ele>1124.8000000000002</ele><time>2026-04-04T12:20:35Z</time></trkpt><trkpt lat="45.91574039459339" lon="10.988600955688883"><ele>1124.4</ele><time>2026-04-04T12:20:36Z</time></trkpt><trkpt lat="45.91570449864662" lon="10.988479733062677"><ele>1124.0</ele><time>2026-04-04T12:20:37Z</time></trkpt><trkpt lat="45.91566005010248" lon="10.988355525284037"><ele>1125.0</ele><time>2026-04-04T12:20:38Z</time></trkpt><trkpt lat="45.915611845915365" lon="10.988220299765368"><ele>1126.0</ele><time>2026-04-04T12:20:39Z</time></trkpt><trkpt lat="45.91555988661012" lon="10.988084840267334"><ele>1127.0</ele><time>2026-04-04T12:20:40Z</time></trkpt><trkpt lat="45.91551961526553" lon="10.987940310782347"><ele>1128.0</ele><time>2026-04-04T12:20:41Z</time></trkpt><trkpt lat="45.91549016775312" lon="10.987797854254694"><ele>1129.0</ele><time>2026-04-04T12:20:42Z</time></trkpt><trkpt lat="45.91546691655132" lon="10.987656082384722"><ele>1129.0</ele><time>2026-04-04T12:20:43Z</time></trkpt><trkpt lat="45.91545039849313" lon="10.987511458095915"><ele>1129.0</ele><time>2026-04-04T12:20:44Z</time></trkpt><trkpt lat="45.91542209725813" lon="10.987365823252112"><ele>1129.0</ele><time>2026-04-04T12:20:45Z</time></trkpt><trkpt lat="45.91538747960668" lon="10.98722041650033"><ele>1129.0</ele><time>2026-04-04T12:20:46Z</time></trkpt><trkpt lat="45.91535726267018" lon="10.987067673373115"><ele>1129.0</ele><time>2026-04-04T12:20:47Z</time></trkpt><trkpt lat="45.915330037272035" lon="10.986906523049695"><ele>1130.6000000000001</ele><time>2026-04-04T12:20:48Z</time></trkpt><trkpt lat="45.91533463064348" lon="10.986759749647069"><ele>1132.2</ele><time>2026-04-04T12:20:49Z</time></trkpt><trkpt lat="45.91533632902031" lon="10.986612875529842"><ele>1133.8000000000002</ele><time>2026-04-04T12:20:50Z</time></trkpt><trkpt lat="45.91533642996903" lon="10.986449279038558"><ele>1135.4</ele><time>2026-04-04T12:20:51Z</time></trkpt><trkpt lat="45.91532981603185" lon="10.986291139467259"><ele>1137.0</ele><time>2026-04-04T12:20:52Z</time></trkpt><trkpt lat="45.91531246313014" lon="10.98613151958786"><ele>1138.5</ele><time>2026-04-04T12:20:53Z</time></trkpt><trkpt lat="45.91526119004073" lon="10.985987114721881"><ele>1140.0</ele><time>2026-04-04T12:20:54Z</time></trkpt><trkpt lat="45.91519828867026" lon="10.985849099759497"><ele>1141.5</ele><time>2026-04-04T12:20:55Z</time></trkpt><trkpt lat="45.91511662464867" lon="10.985720558790124"><ele>1143.0</ele><time>2026-04-04T12:20:56Z</time></trkpt><trkpt lat="45.91504313811129" lon="10.985593343703956"><ele>1139.4</ele><time>2026-04-04T12:20:57Z</time></trkpt><trkpt lat="45.914979649376065" lon="10.985460742858157"><ele>1135.8</ele><time>2026-04-04T12:20:58Z</time></trkpt><trkpt lat="45.91491922117398" lon="10.9853452924221"><ele>1132.2</ele><time>2026-04-04T12:20:59Z</time></trkpt><trkpt lat="45.914868167599906" lon="10.985234399925433"><ele>1128.6</ele><time>2026-04-04T12:21:00Z</time></trkpt><trkpt lat="45.914799808653136" lon="10.985145331574222"><ele>1125.0</ele><time>2026-04-04T12:21:01Z</time></trkpt><trkpt lat="45.914722903459165" lon="10.985062021067495"><ele>1125.0</ele><time>2026-04-04T12:21:02Z</time></trkpt><trkpt lat="45.91463663781733" lon="10.985010539580271"><ele>1125.0</ele><time>2026-04-04T12:21:03Z</time></trkpt><trkpt lat="45.91453678507233" lon="10.985008077269326"><ele>1125.0</ele><time>2026-04-04T12:21:04Z</time></trkpt><trkpt lat="45.914439672784795" lon="10.985038164608293"><ele>1125.0</ele><time>2026-04-04T12:21:05Z</time></trkpt><trkpt lat="45.91434615192882" lon="10.98507020742766"><ele>1125.0</ele><time>2026-04-04T12:21:06Z</time></trkpt><trkpt lat="45.91426136314376" lon="10.985071930873008"><ele>1125.5</ele><time>2026-04-04T12:21:07Z</time></trkpt><trkpt lat="45.914169172574844" lon="10.985048608971148"><ele>1126.0</ele><time>2026-04-04T12:21:08Z</time></trkpt><trkpt lat="45.91408574227477" lon="10.985002708341257"><ele>1126.5</ele><time>2026-04-04T12:21:09Z</time></trkpt><trkpt lat="45.914012999860965" lon="10.984941378999142"><ele>1127.0</ele><time>2026-04-04T12:21:10Z</time></trkpt><trkpt lat="45.91393935717375" lon="10.984889023313965"><ele>1127.5</ele><time>2026-04-04T12:21:11Z</time></trkpt><trkpt lat="45.91387084549752" lon="10.984859521233567"><ele>1128.0</ele><time>2026-04-04T12:21:12Z</time></trkpt><trkpt lat="45.91379419732623" lon="10.984827723662155"><ele>1129.4</ele><time>2026-04-04T12:21:13Z</time></trkpt><trkpt lat="45.9137272122796" lon="10.984805621083773"><ele>1130.8</ele><time>2026-04-04T12:21:14Z</time></trkpt><trkpt lat="45.913634013222605" lon="10.984797011708643"><ele>1132.2</ele><time>2026-04-04T12:21:16Z</time></trkpt><trkpt lat="45.91356184767989" lon="10.984803025862346"><ele>1133.6</ele><time>2026-04-04T12:21:19Z</time></trkpt><trkpt lat="45.91347216989517" lon="10.984802166795339"><ele>1135.0</ele><time>2026-04-04T12:21:30Z</time></trkpt><trkpt lat="45.91334833118852" lon="10.984868008315834"><ele>1136.0</ele><time>2026-04-04T12:21:32Z</time></trkpt><trkpt lat="45.913297796000656" lon="10.984980178289725"><ele>1137.0</ele><time>2026-04-04T12:21:33Z</time></trkpt><trkpt lat="45.91326360085407" lon="10.985136326428291"><ele>1138.0</ele><time>2026-04-04T12:21:34Z</time></trkpt><trkpt lat="45.913221882310395" lon="10.98531026315949"><ele>1139.0</ele><time>2026-04-04T12:21:35Z</time></trkpt><trkpt lat="45.913157985431845" lon="10.98547673988745"><ele>1139.0</ele><time>2026-04-04T12:21:36Z</time></trkpt><trkpt lat="45.91307990473587" lon="10.985624917608224"><ele>1139.0</ele><time>2026-04-04T12:21:37Z</time></trkpt><trkpt lat="45.91299355465429" lon="10.985774000262614"><ele>1139.0</ele><time>2026-04-04T12:21:38Z</time></trkpt><trkpt lat="45.91292268549555" lon="10.985843462844327"><ele>1139.0</ele><time>2026-04-04T12:21:39Z</time></trkpt><trkpt lat="45.91285665356604" lon="10.985920000894529"><ele>1139.0</ele><time>2026-04-04T12:21:40Z</time></trkpt><trkpt lat="45.91278484938203" lon="10.98599017091966"><ele>1139.0</ele><time>2026-04-04T12:21:41Z</time></trkpt><trkpt lat="45.912696243955686" lon="10.986012450065965"><ele>1139.0</ele><time>2026-04-04T12:21:42Z</time></trkpt><trkpt lat="45.91259100695294" lon="10.986019204549887"><ele>1139.0</ele><time>2026-04-04T12:21:43Z</time></trkpt><trkpt lat="45.91246575814066" lon="10.985952941647628"><ele>1139.0</ele><time>2026-04-04T12:21:44Z</time></trkpt><trkpt lat="45.912299915373396" lon="10.985924814692137"><ele>1139.0</ele><time>2026-04-04T12:21:45Z</time></trkpt><trkpt lat="45.912163392571195" lon="10.985915705846141"><ele>1139.0</ele><time>2026-04-04T12:21:46Z</time></trkpt><trkpt lat="45.91204358239661" lon="10.985918684076154"><ele>1139.0</ele><time>2026-04-04T12:21:47Z</time></trkpt><trkpt lat="45.911934885503136" lon="10.985910600128959"><ele>1139.0</ele><time>2026-04-04T12:21:48Z</time></trkpt><trkpt lat="45.91184640406874" lon="10.98593069454807"><ele>1139.0</ele><time>2026-04-04T12:21:49Z</time></trkpt><trkpt lat="45.91177037946693" lon="10.985969034305198"><ele>1139.0</ele><time>2026-04-04T12:21:50Z</time></trkpt><trkpt lat="45.91170058513548" lon="10.986027478486495"><ele>1139.0</ele><time>2026-04-04T12:21:51Z</time></trkpt><trkpt lat="45.91163739560741" lon="10.986114521801916"><ele>1139.0</ele><time>2026-04-04T12:21:52Z</time></trkpt><trkpt lat="45.911599142886935" lon="10.98620593860396"><ele>1139.0</ele><time>2026-04-04T12:21:53Z</time></trkpt><trkpt lat="45.91157005953504" lon="10.986337396515186"><ele>1139.0</ele><time>2026-04-04T12:21:54Z</time></trkpt><trkpt lat="45.91157256940959" lon="10.986453149048746"><ele>1139.0</ele><time>2026-04-04T12:21:55Z</time></trkpt><trkpt lat="45.911599370795045" lon="10.98654508992835"><ele>1139.0</ele><time>2026-04-04T12:21:56Z</time></trkpt><trkpt lat="45.911631264319524" lon="10.98664530833493"><ele>1139.0</ele><time>2026-04-04T12:21:56.999Z</time></trkpt><trkpt lat="45.91167822798799" lon="10.98673705007732"><ele>1139.0</ele><time>2026-04-04T12:21:57.999Z</time></trkpt><trkpt lat="45.91172764852909" lon="10.986843951549387"><ele>1139.0</ele><time>2026-04-04T12:21:58.999Z</time></trkpt><trkpt lat="45.9117720403654" lon="10.98695309012607"><ele>1139.0</ele><time>2026-04-04T12:21:59.999Z</time></trkpt><trkpt lat="45.91178614050925" lon="10.987061745022876"><ele>1137.6666666666667</ele><time>2026-04-04T12:22:00.999Z</time></trkpt><trkpt lat="45.91177568591236" lon="10.987163833897089"><ele>1136.3333333333335</ele><time>2026-04-04T12:22:01.999Z</time></trkpt><trkpt lat="45.91175066596042" lon="10.987310710804596"><ele>1135.0</ele><time>2026-04-04T12:22:03.999Z</time></trkpt><trkpt lat="45.91172889839092" lon="10.987421398169296"><ele>1133.6666666666667</ele><time>2026-04-04T12:22:05.999Z</time></trkpt><trkpt lat="45.91172988809801" lon="10.987515413682171"><ele>1132.3333333333333</ele><time>2026-04-04T12:22:17Z</time></trkpt><trkpt lat="45.911723466778206" lon="10.987672203056574"><ele>1131.0</ele><time>2026-04-04T12:22:19Z</time></trkpt><trkpt lat="45.911743897851025" lon="10.987782836235425"><ele>1128.3999999999999</ele><time>2026-04-04T12:22:20Z</time></trkpt><trkpt lat="45.91176475078447" lon="10.987868509116812"><ele>1125.8</ele><time>2026-04-04T12:22:21Z</time></trkpt><trkpt lat="45.91182487998231" lon="10.988000304745325"><ele>1123.1999999999998</ele><time>2026-04-04T12:22:23Z</time></trkpt><trkpt lat="45.911888005138806" lon="10.98813182772087"><ele>1120.6</ele><time>2026-04-04T12:22:25Z</time></trkpt><trkpt lat="45.91195874105908" lon="10.988268718091827"><ele>1118.0</ele><time>2026-04-04T12:22:27Z</time></trkpt><trkpt lat="45.912012857756494" lon="10.988391002474286"><ele>1117.2</ele><time>2026-04-04T12:22:29Z</time></trkpt><trkpt lat="45.911996445659724" lon="10.988483566175436"><ele>1116.4</ele><time>2026-04-04T12:22:31Z</time></trkpt><trkpt lat="45.911854058607595" lon="10.988501856063142"><ele>1115.6000000000001</ele><time>2026-04-04T12:22:33Z</time></trkpt><trkpt lat="45.911760792147064" lon="10.98843553055782"><ele>1114.8</ele><time>2026-04-04T12:22:34Z</time></trkpt><trkpt lat="45.91169469241537" lon="10.98835827887838"><ele>1114.0</ele><time>2026-04-04T12:22:35Z</time></trkpt><trkpt lat="45.911637725433074" lon="10.988308621631438"><ele>1114.8</ele><time>2026-04-04T12:22:36Z</time></trkpt><trkpt lat="45.91157866966643" lon="10.988277040979614"><ele>1115.6000000000001</ele><time>2026-04-04T12:22:37Z</time></trkpt><trkpt lat="45.91151787261206" lon="10.98819939201649"><ele>1116.4</ele><time>2026-04-04T12:22:39Z</time></trkpt><trkpt lat="45.91160287253838" lon="10.98813621208144"><ele>1117.2</ele><time>2026-04-04T12:22:41Z</time></trkpt><trkpt lat="45.91171821807052" lon="10.98813872789568"><ele>1118.0</ele><time>2026-04-04T12:22:43Z</time></trkpt><trkpt lat="45.91183260029283" lon="10.988135551056706"><ele>1118.0</ele><time>2026-04-04T12:22:45Z</time></trkpt><trkpt lat="45.91195128199644" lon="10.98816792726905"><ele>1118.0</ele><time>2026-04-04T12:22:47Z</time></trkpt><trkpt lat="45.91203158027531" lon="10.988198804816928"><ele>1118.0</ele><time>2026-04-04T12:22:48Z</time></trkpt><trkpt lat="45.91210562828299" lon="10.988250935764107"><ele>1118.0</ele><time>2026-04-04T12:22:49Z</time></trkpt><trkpt lat="45.912209815136045" lon="10.988264170830943"><ele>1118.0</ele><time>2026-04-04T12:22:51Z</time></trkpt><trkpt lat="45.912283869755164" lon="10.988245920687222"><ele>1118.0</ele><time>2026-04-04T12:22:52Z</time></trkpt><trkpt lat="45.91236195955026" lon="10.988245933754177"><ele>1118.0</ele><time>2026-04-04T12:22:53Z</time></trkpt><trkpt lat="45.91243989669385" lon="10.988281102296119"><ele>1118.0</ele><time>2026-04-04T12:22:54Z</time></trkpt><trkpt lat="45.91252536735604" lon="10.988323546058998"><ele>1118.0</ele><time>2026-04-04T12:22:55Z</time></trkpt><trkpt lat="45.91260536843338" lon="10.98835900415748"><ele>1118.0</ele><time>2026-04-04T12:22:56Z</time></trkpt><trkpt lat="45.91267759608443" lon="10.988393986017659"><ele>1118.0</ele><time>2026-04-04T12:22:57Z</time></trkpt><trkpt lat="45.91274262211576" lon="10.988427912780862"><ele>1115.6666666666667</ele><time>2026-04-04T12:22:58Z</time></trkpt><trkpt lat="45.912801157618155" lon="10.988462935713102"><ele>1113.3333333333335</ele><time>2026-04-04T12:22:59Z</time></trkpt><trkpt lat="45.91289969290445" lon="10.98855723689176"><ele>1111.0</ele><time>2026-04-04T12:23:01Z</time></trkpt><trkpt lat="45.91298193647814" lon="10.988585773411758"><ele>1108.6666666666667</ele><time>2026-04-04T12:23:02Z</time></trkpt><trkpt lat="45.91305589934675" lon="10.988641665001747"><ele>1106.3333333333333</ele><time>2026-04-04T12:23:03Z</time></trkpt><trkpt lat="45.91313459341488" lon="10.988724353180286"><ele>1104.0</ele><time>2026-04-04T12:23:04Z</time></trkpt><trkpt lat="45.91320506415754" lon="10.988788925742895"><ele>1104.0</ele><time>2026-04-04T12:23:05Z</time></trkpt><trkpt lat="45.913280919235525" lon="10.988859074806813"><ele>1104.0</ele><time>2026-04-04T12:23:06Z</time></trkpt><trkpt lat="45.913353455684366" lon="10.988933817426377"><ele>1104.0</ele><time>2026-04-04T12:23:07Z</time></trkpt><trkpt lat="45.91341944626318" lon="10.989001904772044"><ele>1104.0</ele><time>2026-04-04T12:23:08Z</time></trkpt><trkpt lat="45.913476720772444" lon="10.989067554032225"><ele>1104.0</ele><time>2026-04-04T12:23:09Z</time></trkpt><trkpt lat="45.9136032347586" lon="10.989096497703288"><ele>1104.3333333333333</ele><time>2026-04-04T12:23:11Z</time></trkpt><trkpt lat="45.91368651102679" lon="10.989084734200585"><ele>1104.6666666666667</ele><time>2026-04-04T12:23:12Z</time></trkpt><trkpt lat="45.91377561811211" lon="10.989048729295348"><ele>1105.0</ele><time>2026-04-04T12:23:13Z</time></trkpt><trkpt lat="45.9138462941397" lon="10.989038298748486"><ele>1105.3333333333335</ele><time>2026-04-04T12:23:14Z</time></trkpt><trkpt lat="45.91392041296188" lon="10.989095339467438"><ele>1105.6666666666667</ele><time>2026-04-04T12:23:16Z</time></trkpt><trkpt lat="45.91396179225155" lon="10.989177949787107"><ele>1106.0</ele><time>2026-04-04T12:23:18Z</time></trkpt><trkpt lat="45.91399654328874" lon="10.989078658524493"><ele>1106.0</ele><time>2026-04-04T12:23:21Z</time></trkpt><trkpt lat="45.91397656230872" lon="10.988947794239285"><ele>1106.0</ele><time>2026-04-04T12:23:23Z</time></trkpt><trkpt lat="45.91398177772647" lon="10.98881940495169"><ele>1106.0</ele><time>2026-04-04T12:23:25Z</time></trkpt><trkpt lat="45.913985480644705" lon="10.988726580702968"><ele>1106.0</ele><time>2026-04-04T12:23:27Z</time></trkpt><trkpt lat="45.91396304659171" lon="10.9886206912995"><ele>1106.0</ele><time>2026-04-04T12:23:30Z</time></trkpt><trkpt lat="45.914001631382874" lon="10.988486302042512"><ele>1106.0</ele><time>2026-04-04T12:23:36Z</time></trkpt><trkpt lat="45.91402009264858" lon="10.98838962330144"><ele>1106.857142857143</ele><time>2026-04-04T12:23:38Z</time></trkpt><trkpt lat="45.914073003180036" lon="10.988291400674548"><ele>1107.7142857142858</ele><time>2026-04-04T12:23:42Z</time></trkpt><trkpt lat="45.91405933026057" lon="10.988197243804349"><ele>1108.5714285714284</ele><time>2026-04-04T12:23:51Z</time></trkpt><trkpt lat="45.91405407537883" lon="10.988097929291179"><ele>1109.4285714285716</ele><time>2026-04-04T12:23:59Z</time></trkpt><trkpt lat="45.91404436683106" lon="10.987998817965572"><ele>1110.2857142857142</ele><time>2026-04-04T12:24:20Z</time></trkpt><trkpt lat="45.91402321260714" lon="10.987896431794265"><ele>1111.142857142857</ele><time>2026-04-04T12:24:24Z</time></trkpt><trkpt lat="45.914009074938264" lon="10.98778887577271"><ele>1112.0</ele><time>2026-04-04T12:24:26Z</time></trkpt><trkpt lat="45.91399105021011" lon="10.987690651988396"><ele>1112.0</ele><time>2026-04-04T12:24:29Z</time></trkpt><trkpt lat="45.91397267716033" lon="10.987600969821775"><ele>1112.0</ele><time>2026-04-04T12:24:54Z</time></trkpt><trkpt lat="45.91394229066911" lon="10.987512005557218"><ele>1112.0</ele><time>2026-04-04T12:25:21Z</time></trkpt><trkpt lat="45.913983786603616" lon="10.987387216785734"><ele>1112.0</ele><time>2026-04-04T12:25:58Z</time></trkpt><trkpt lat="45.913955328654204" lon="10.987293964896429"><ele>1112.0</ele><time>2026-04-04T12:29:43Z</time></trkpt><trkpt lat="45.91393522341477" lon="10.98719931125503"><ele>1112.0</ele><time>2026-04-04T12:29:58Z</time></trkpt><trkpt lat="45.91387776117536" lon="10.987157553894424"><ele>1112.0</ele><time>2026-04-04T12:31:11Z</time></trkpt><trkpt lat="45.91384044758417" lon="10.987236451326636"><ele>1112.0</ele><time>2026-04-04T12:31:14Z</time></trkpt><trkpt lat="45.91383076237475" lon="10.987327441963862"><ele>1112.0</ele><time>2026-04-04T12:31:17Z</time></trkpt><trkpt lat="45.91385712169543" lon="10.98741106260689"><ele>1112.0</ele><time>2026-04-04T12:31:36Z</time></trkpt><trkpt lat="45.913730833731236" lon="10.987450618607513"><ele>1112.0</ele><time>2026-04-04T12:34:45Z</time></trkpt><trkpt lat="45.913680612364786" lon="10.987521885424137"><ele>1112.0</ele><time>2026-04-04T12:34:47Z</time></trkpt><trkpt lat="45.91360603387382" lon="10.98760320120856"><ele>1112.0</ele><time>2026-04-04T12:34:50Z</time></trkpt><trkpt lat="45.91357023164629" lon="10.987726400910628"><ele>1112.0</ele><time>2026-04-04T12:34:52Z</time></trkpt><trkpt lat="45.91356230191491" lon="10.987845081273708"><ele>1112.0</ele><time>2026-04-04T12:34:54Z</time></trkpt><trkpt lat="45.91354693387906" lon="10.987976604685509"><ele>1112.0</ele><time>2026-04-04T12:34:57Z</time></trkpt><trkpt lat="45.913585173726915" lon="10.98808322591169"><ele>1112.0</ele><time>2026-04-04T12:34:59Z</time></trkpt><trkpt lat="45.91366794837588" lon="10.988118043655522"><ele>1112.0</ele><time>2026-04-04T12:35:01Z</time></trkpt><trkpt lat="45.91361105933207" lon="10.988076221282897"><ele>1112.0</ele><time>2026-04-04T12:35:17Z</time></trkpt><trkpt lat="45.913534932171196" lon="10.987948339628954"><ele>1112.0</ele><time>2026-04-04T12:35:19Z</time></trkpt><trkpt lat="45.91352633035653" lon="10.987818231281253"><ele>1112.0</ele><time>2026-04-04T12:35:21Z</time></trkpt><trkpt lat="45.91355375598032" lon="10.987709376845626"><ele>1112.0</ele><time>2026-04-04T12:35:22Z</time></trkpt><trkpt lat="45.91361327423021" lon="10.987603482639567"><ele>1112.0</ele><time>2026-04-04T12:35:23Z</time></trkpt><trkpt lat="45.9136742611676" lon="10.987506092654517"><ele>1112.0</ele><time>2026-04-04T12:35:25Z</time></trkpt><trkpt lat="45.91364136667332" lon="10.987399169681165"><ele>1112.0</ele><time>2026-04-04T12:35:27Z</time></trkpt><trkpt lat="45.91358681579031" lon="10.987333264585752"><ele>1112.8333333333335</ele><time>2026-04-04T12:35:28Z</time></trkpt><trkpt lat="45.91353644569023" lon="10.98726225791843"><ele>1113.6666666666667</ele><time>2026-04-04T12:35:29Z</time></trkpt><trkpt lat="45.91349439562038" lon="10.987194205327787"><ele>1114.5</ele><time>2026-04-04T12:35:30Z</time></trkpt><trkpt lat="45.91342047002189" lon="10.987083909147005"><ele>1115.3333333333333</ele><time>2026-04-04T12:35:32Z</time></trkpt><trkpt lat="45.91331234940788" lon="10.987020798182133"><ele>1116.1666666666665</ele><time>2026-04-04T12:35:34Z</time></trkpt><trkpt lat="45.91326877083159" lon="10.986949187421757"><ele>1117.0</ele><time>2026-04-04T12:35:36Z</time></trkpt><trkpt lat="45.91323512551117" lon="10.986865146665835"><ele>1117.6</ele><time>2026-04-04T12:35:37Z</time></trkpt><trkpt lat="45.91315386891451" lon="10.986794332044699"><ele>1118.2</ele><time>2026-04-04T12:35:39Z</time></trkpt><trkpt lat="45.91308996346631" lon="10.986659702828968"><ele>1118.8</ele><time>2026-04-04T12:35:41Z</time></trkpt><trkpt lat="45.91308296913177" lon="10.986568231693314"><ele>1119.4</ele><time>2026-04-04T12:35:42Z</time></trkpt><trkpt lat="45.9130051287746" lon="10.986443212586579"><ele>1120.0</ele><time>2026-04-04T12:35:44Z</time></trkpt><trkpt lat="45.912964253015254" lon="10.986372804452468"><ele>1122.2</ele><time>2026-04-04T12:35:45Z</time></trkpt><trkpt lat="45.912917207272805" lon="10.98620860322703"><ele>1124.4</ele><time>2026-04-04T12:35:47Z</time></trkpt><trkpt lat="45.912875787920775" lon="10.986092491786385"><ele>1126.6</ele><time>2026-04-04T12:35:49Z</time></trkpt><trkpt lat="45.91279355961887" lon="10.986018193148947"><ele>1128.8</ele><time>2026-04-04T12:35:51Z</time></trkpt><trkpt lat="45.912723575349155" lon="10.986001057447906"><ele>1131.0</ele><time>2026-04-04T12:35:52Z</time></trkpt><trkpt lat="45.91264518933244" lon="10.986007681777336"><ele>1131.0</ele><time>2026-04-04T12:35:53Z</time></trkpt><trkpt lat="45.91257483448682" lon="10.98601670523387"><ele>1131.0</ele><time>2026-04-04T12:35:54Z</time></trkpt><trkpt lat="45.91248958831947" lon="10.986013471108892"><ele>1131.0</ele><time>2026-04-04T12:35:55Z</time></trkpt><trkpt lat="45.91238716877941" lon="10.985999405865194"><ele>1131.0</ele><time>2026-04-04T12:35:56Z</time></trkpt><trkpt lat="45.91227744220396" lon="10.985960713314272"><ele>1131.0</ele><time>2026-04-04T12:35:57Z</time></trkpt><trkpt lat="45.91215332847081" lon="10.985956883361826"><ele>1132.6</ele><time>2026-04-04T12:35:58Z</time></trkpt><trkpt lat="45.912051832656864" lon="10.985950372586037"><ele>1134.1999999999998</ele><time>2026-04-04T12:35:59Z</time></trkpt><trkpt lat="45.91195950749656" lon="10.98594278355008"><ele>1135.8000000000002</ele><time>2026-04-04T12:36:00Z</time></trkpt><trkpt lat="45.911869656435705" lon="10.985964484776288"><ele>1137.4</ele><time>2026-04-04T12:36:01Z</time></trkpt><trkpt lat="45.91178196936165" lon="10.98600620240975"><ele>1139.0</ele><time>2026-04-04T12:36:02Z</time></trkpt><trkpt lat="45.91170030172421" lon="10.986068901194487"><ele>1139.0</ele><time>2026-04-04T12:36:03Z</time></trkpt><trkpt lat="45.9116179736052" lon="10.986167263408785"><ele>1139.0</ele><time>2026-04-04T12:36:04Z</time></trkpt><trkpt lat="45.91152122881603" lon="10.986271808773747"><ele>1139.0</ele><time>2026-04-04T12:36:05Z</time></trkpt><trkpt lat="45.91143918157333" lon="10.986348247630234"><ele>1139.0</ele><time>2026-04-04T12:36:06Z</time></trkpt><trkpt lat="45.911376728486914" lon="10.986393919411034"><ele>1139.0</ele><time>2026-04-04T12:36:07Z</time></trkpt><trkpt lat="45.91122440612025" lon="10.986431988052667"><ele>1139.0</ele><time>2026-04-04T12:36:09Z</time></trkpt><trkpt lat="45.91113900131382" lon="10.986394811885791"><ele>1139.0</ele><time>2026-04-04T12:36:10Z</time></trkpt><trkpt lat="45.91107801585375" lon="10.986321707719235"><ele>1139.0</ele><time>2026-04-04T12:36:11Z</time></trkpt><trkpt lat="45.91102561181092" lon="10.986235660023715"><ele>1139.0</ele><time>2026-04-04T12:36:12Z</time></trkpt><trkpt lat="45.91098307429112" lon="10.98616718451114"><ele>1139.0</ele><time>2026-04-04T12:36:13Z</time></trkpt><trkpt lat="45.910954344554554" lon="10.986055969613984"><ele>1139.0</ele><time>2026-04-04T12:36:21Z</time></trkpt><trkpt lat="45.91090189043473" lon="10.985943474236711"><ele>1141.75</ele><time>2026-04-04T12:36:22Z</time></trkpt><trkpt lat="45.910840245225785" lon="10.98580591913629"><ele>1144.5</ele><time>2026-04-04T12:36:23Z</time></trkpt><trkpt lat="45.91075203352063" lon="10.985624381692611"><ele>1147.25</ele><time>2026-04-04T12:36:24Z</time></trkpt><trkpt lat="45.91068658119762" lon="10.985472692415664"><ele>1150.0</ele><time>2026-04-04T12:36:25Z</time></trkpt><trkpt lat="45.91063133990629" lon="10.985374176292893"><ele>1150.0</ele><time>2026-04-04T12:36:26Z</time></trkpt><trkpt lat="45.91055038781115" lon="10.985299452922925"><ele>1150.0</ele><time>2026-04-04T12:36:27Z</time></trkpt><trkpt lat="45.91046625458173" lon="10.985227988267606"><ele>1150.0</ele><time>2026-04-04T12:36:28Z</time></trkpt><trkpt lat="45.91038238797237" lon="10.985148946278196"><ele>1150.0</ele><time>2026-04-04T12:36:29Z</time></trkpt><trkpt lat="45.910307129575735" lon="10.985036189969573"><ele>1150.0</ele><time>2026-04-04T12:36:30Z</time></trkpt><trkpt lat="45.91024344523946" lon="10.98489869465971"><ele>1152.6</ele><time>2026-04-04T12:36:31Z</time></trkpt><trkpt lat="45.910199206332365" lon="10.984747827026935"><ele>1155.2</ele><time>2026-04-04T12:36:32Z</time></trkpt><trkpt lat="45.91015629966927" lon="10.984590993134"><ele>1157.8</ele><time>2026-04-04T12:36:33Z</time></trkpt><trkpt lat="45.910117117343" lon="10.984444768135106"><ele>1160.4</ele><time>2026-04-04T12:36:34Z</time></trkpt><trkpt lat="45.91006738372524" lon="10.984312939303669"><ele>1163.0</ele><time>2026-04-04T12:36:35Z</time></trkpt><trkpt lat="45.91001366007601" lon="10.984185550213285"><ele>1169.0</ele><time>2026-04-04T12:36:36Z</time></trkpt><trkpt lat="45.909967958958184" lon="10.984063248083496"><ele>1175.0</ele><time>2026-04-04T12:36:37Z</time></trkpt><trkpt lat="45.909913227733306" lon="10.983958678792805"><ele>1181.0</ele><time>2026-04-04T12:36:38Z</time></trkpt><trkpt lat="45.90985315965756" lon="10.983867290667694"><ele>1187.0</ele><time>2026-04-04T12:36:39Z</time></trkpt><trkpt lat="45.909787600108146" lon="10.983794343201044"><ele>1193.0</ele><time>2026-04-04T12:36:40Z</time></trkpt><trkpt lat="45.90972489815109" lon="10.98373364394135"><ele>1199.0</ele><time>2026-04-04T12:36:41Z</time></trkpt><trkpt lat="45.90965249169196" lon="10.983693101995247"><ele>1199.0</ele><time>2026-04-04T12:36:42Z</time></trkpt><trkpt lat="45.90958914279548" lon="10.983642794189723"><ele>1199.0</ele><time>2026-04-04T12:36:43Z</time></trkpt><trkpt lat="45.90952875953701" lon="10.983600288052989"><ele>1199.0</ele><time>2026-04-04T12:36:44Z</time></trkpt><trkpt lat="45.90949895688573" lon="10.98347502015959"><ele>1199.0</ele><time>2026-04-04T12:36:46Z</time></trkpt><trkpt lat="45.909549785512034" lon="10.983385429402098"><ele>1199.0</ele><time>2026-04-04T12:36:48Z</time></trkpt><trkpt lat="45.909580933724605" lon="10.98327619174115"><ele>1199.0</ele><time>2026-04-04T12:36:51Z</time></trkpt><trkpt lat="45.90960786254647" lon="10.983133552440194"><ele>1202.8333333333335</ele><time>2026-04-04T12:36:52Z</time></trkpt><trkpt lat="45.90953705760361" lon="10.983017391862889"><ele>1206.6666666666667</ele><time>2026-04-04T12:36:54Z</time></trkpt><trkpt lat="45.90947378657039" lon="10.983071950671727"><ele>1210.5</ele><time>2026-04-04T12:37:26Z</time></trkpt><trkpt lat="45.90942429291629" lon="10.982988457919417"><ele>1214.3333333333333</ele><time>2026-04-04T12:42:49Z</time></trkpt><trkpt lat="45.909363413184174" lon="10.98293753698607"><ele>1218.1666666666665</ele><time>2026-04-04T12:42:50Z</time></trkpt><trkpt lat="45.909295501387675" lon="10.982916656737457"><ele>1222.0</ele><time>2026-04-04T12:42:51Z</time></trkpt><trkpt lat="45.909227082674015" lon="10.982902102337267"><ele>1223.0</ele><time>2026-04-04T12:42:52Z</time></trkpt><trkpt lat="45.909124251542416" lon="10.982924831947617"><ele>1224.0</ele><time>2026-04-04T12:42:54Z</time></trkpt><trkpt lat="45.908997163502455" lon="10.982928195477552"><ele>1225.0</ele><time>2026-04-04T12:42:56Z</time></trkpt><trkpt lat="45.90888014052347" lon="10.9829215520955"><ele>1226.0</ele><time>2026-04-04T12:42:57Z</time></trkpt><trkpt lat="45.90876160746798" lon="10.982897060119118"><ele>1226.0</ele><time>2026-04-04T12:42:58Z</time></trkpt><trkpt lat="45.90864585185934" lon="10.98286257428671"><ele>1226.0</ele><time>2026-04-04T12:42:59Z</time></trkpt><trkpt lat="45.9085308009512" lon="10.982818521342534"><ele>1226.0</ele><time>2026-04-04T12:43:00Z</time></trkpt><trkpt lat="45.90842746070486" lon="10.982797741835993"><ele>1226.0</ele><time>2026-04-04T12:43:01Z</time></trkpt><trkpt lat="45.908333734382865" lon="10.982776126198498"><ele>1226.0</ele><time>2026-04-04T12:43:02Z</time></trkpt><trkpt lat="45.9082510928974" lon="10.982725923780583"><ele>1226.3333333333335</ele><time>2026-04-04T12:43:03Z</time></trkpt><trkpt lat="45.90818978837128" lon="10.982630708596375"><ele>1226.6666666666667</ele><time>2026-04-04T12:43:04Z</time></trkpt><trkpt lat="45.90814545265643" lon="10.98250511881002"><ele>1227.0</ele><time>2026-04-04T12:43:05Z</time></trkpt><trkpt lat="45.90811758512719" lon="10.982387749012544"><ele>1227.3333333333333</ele><time>2026-04-04T12:43:06Z</time></trkpt><trkpt lat="45.908095484210286" lon="10.982301991579119"><ele>1227.6666666666665</ele><time>2026-04-04T12:43:07Z</time></trkpt><trkpt lat="45.90806285569223" lon="10.982167309531903"><ele>1228.0</ele><time>2026-04-04T12:43:09Z</time></trkpt><trkpt lat="45.90798183356222" lon="10.982042008746864"><ele>1228.0</ele><time>2026-04-04T12:43:11Z</time></trkpt><trkpt lat="45.907907585014875" lon="10.981935085239675"><ele>1228.0</ele><time>2026-04-04T12:43:13Z</time></trkpt><trkpt lat="45.907853963273595" lon="10.981855250988108"><ele>1228.0</ele><time>2026-04-04T12:43:15Z</time></trkpt><trkpt lat="45.90779981946674" lon="10.98177185303054"><ele>1228.0</ele><time>2026-04-04T12:43:18Z</time></trkpt><trkpt lat="45.907811656528985" lon="10.981680856226628"><ele>1228.0</ele><time>2026-04-04T12:43:20Z</time></trkpt><trkpt lat="45.90787702134201" lon="10.981597307668297"><ele>1228.0</ele><time>2026-04-04T12:43:22Z</time></trkpt><trkpt lat="45.90798083750848" lon="10.981537663268911"><ele>1227.8</ele><time>2026-04-04T12:43:24Z</time></trkpt><trkpt lat="45.90800744222333" lon="10.981413314019562"><ele>1227.6</ele><time>2026-04-04T12:43:26Z</time></trkpt><trkpt lat="45.90801731531125" lon="10.981244067673455"><ele>1227.4</ele><time>2026-04-04T12:43:28Z</time></trkpt><trkpt lat="45.90801325457834" lon="10.98114304161192"><ele>1227.2</ele><time>2026-04-04T12:43:29Z</time></trkpt><trkpt lat="45.90802548834336" lon="10.980996061199493"><ele>1227.0</ele><time>2026-04-04T12:43:31Z</time></trkpt><trkpt lat="45.90801438752205" lon="10.980860492983844"><ele>1227.6</ele><time>2026-04-04T12:43:33Z</time></trkpt><trkpt lat="45.90799901358843" lon="10.980717739852656"><ele>1228.2</ele><time>2026-04-04T12:43:35Z</time></trkpt><trkpt lat="45.90799741059525" lon="10.980565124025762"><ele>1228.8</ele><time>2026-04-04T12:43:37Z</time></trkpt><trkpt lat="45.908025260308165" lon="10.980401159769158"><ele>1229.4</ele><time>2026-04-04T12:43:39Z</time></trkpt><trkpt lat="45.90802789803719" lon="10.980236217969265"><ele>1230.0</ele><time>2026-04-04T12:43:41Z</time></trkpt><trkpt lat="45.90810963882071" lon="10.979889894512333"><ele>1230.6666666666667</ele><time>2026-04-04T12:43:42Z</time></trkpt><trkpt lat="45.908100261216525" lon="10.97978649343275"><ele>1231.3333333333333</ele><time>2026-04-04T12:43:43Z</time></trkpt><trkpt lat="45.908081367708455" lon="10.979696272158886"><ele>1232.0</ele><time>2026-04-04T12:43:44Z</time></trkpt><trkpt lat="45.90805849864958" lon="10.979590546863673"><ele>1232.6666666666665</ele><time>2026-04-04T12:43:45Z</time></trkpt><trkpt lat="45.90802739719253" lon="10.979460901284867"><ele>1233.3333333333333</ele><time>2026-04-04T12:43:47Z</time></trkpt><trkpt lat="45.9079929504143" lon="10.979311182901014"><ele>1234.0</ele><time>2026-04-04T12:43:49Z</time></trkpt><trkpt lat="45.90797325022821" lon="10.97922264025892"><ele>1237.0</ele><time>2026-04-04T12:43:50Z</time></trkpt><trkpt lat="45.907950289634" lon="10.979125363587203"><ele>1240.0</ele><time>2026-04-04T12:43:51Z</time></trkpt><trkpt lat="45.90790519634178" lon="10.978986465001713"><ele>1243.0</ele><time>2026-04-04T12:43:52Z</time></trkpt><trkpt lat="45.90785042298034" lon="10.978829448964605"><ele>1246.0</ele><time>2026-04-04T12:43:54Z</time></trkpt><trkpt lat="45.907795270577665" lon="10.978693134336776"><ele>1249.0</ele><time>2026-04-04T12:43:56Z</time></trkpt><trkpt lat="45.907735726504264" lon="10.978563301823653"><ele>1249.0</ele><time>2026-04-04T12:43:58Z</time></trkpt><trkpt lat="45.907691287734885" lon="10.978471225258913"><ele>1249.0</ele><time>2026-04-04T12:43:59Z</time></trkpt><trkpt lat="45.90764398332547" lon="10.978381553157625"><ele>1249.0</ele><time>2026-04-04T12:44:00Z</time></trkpt><trkpt lat="45.90759648418162" lon="10.978291512222127"><ele>1249.0</ele><time>2026-04-04T12:44:01Z</time></trkpt><trkpt lat="45.90755203355349" lon="10.978201698014075"><ele>1249.0</ele><time>2026-04-04T12:44:02Z</time></trkpt><trkpt lat="45.907501362178536" lon="10.978098165217476"><ele>1249.0</ele><time>2026-04-04T12:44:03Z</time></trkpt><trkpt lat="45.90694225590489" lon="10.97862997597512"><ele>1249.2</ele><time>2026-04-04T12:44:04Z</time></trkpt><trkpt lat="45.90693800816395" lon="10.978497508739272"><ele>1249.4</ele><time>2026-04-04T12:44:05Z</time></trkpt><trkpt lat="45.906878979974984" lon="10.978573596677858"><ele>1249.6</ele><time>2026-04-04T12:44:06Z</time></trkpt><trkpt lat="45.906794599159326" lon="10.978608359682044"><ele>1249.8</ele><time>2026-04-04T12:44:08Z</time></trkpt><trkpt lat="45.90671483777514" lon="10.97861726016192"><ele>1250.0</ele><time>2026-04-04T12:44:10Z</time></trkpt><trkpt lat="45.90664845522964" lon="10.978128265782484"><ele>1251.75</ele><time>2026-04-04T12:44:12Z</time></trkpt><trkpt lat="45.90661462623368" lon="10.978012534241415"><ele>1253.5</ele><time>2026-04-04T12:44:13Z</time></trkpt><trkpt lat="45.90656527245751" lon="10.97786246525115"><ele>1255.25</ele><time>2026-04-04T12:44:14Z</time></trkpt><trkpt lat="45.906510563565654" lon="10.97768534463666"><ele>1257.0</ele><time>2026-04-04T12:44:15Z</time></trkpt><trkpt lat="45.906438478082485" lon="10.977508933207272"><ele>1257.0</ele><time>2026-04-04T12:44:16Z</time></trkpt><trkpt lat="45.90634545264945" lon="10.977312292632117"><ele>1257.0</ele><time>2026-04-04T12:44:17Z</time></trkpt><trkpt lat="45.90626459811616" lon="10.977136088954666"><ele>1257.0</ele><time>2026-04-04T12:44:18Z</time></trkpt><trkpt lat="45.90622366908176" lon="10.977035017763459"><ele>1257.0</ele><time>2026-04-04T12:44:19Z</time></trkpt><trkpt lat="45.90613714084596" lon="10.977005737980715"><ele>1257.0</ele><time>2026-04-04T12:44:21Z</time></trkpt><trkpt lat="45.90606689536033" lon="10.977032502609823"><ele>1257.0</ele><time>2026-04-04T12:44:22Z</time></trkpt><trkpt lat="45.90595233137808" lon="10.977092787431719"><ele>1257.0</ele><time>2026-04-04T12:44:24Z</time></trkpt><trkpt lat="45.90586767561919" lon="10.977073190906388"><ele>1257.0</ele><time>2026-04-04T12:44:26Z</time></trkpt><trkpt lat="45.90583491150788" lon="10.976936562130662"><ele>1257.0</ele><time>2026-04-04T12:44:28Z</time></trkpt><trkpt lat="45.90572789669557" lon="10.976913815162092"><ele>1258.5</ele><time>2026-04-04T12:44:30Z</time></trkpt><trkpt lat="45.90566008847025" lon="10.97694633224396"><ele>1260.0</ele><time>2026-04-04T12:44:31Z</time></trkpt><trkpt lat="45.90559206181743" lon="10.97695739645895"><ele>1261.5</ele><time>2026-04-04T12:44:32Z</time></trkpt><trkpt lat="45.90551506201133" lon="10.976979617287487"><ele>1263.0</ele><time>2026-04-04T12:44:33Z</time></trkpt><trkpt lat="45.90541406548534" lon="10.976933748991774"><ele>1264.5</ele><time>2026-04-04T12:44:35Z</time></trkpt><trkpt lat="45.90537062467647" lon="10.976824887374718"><ele>1266.0</ele><time>2026-04-04T12:44:36Z</time></trkpt><trkpt lat="45.90534118182406" lon="10.976688104041715"><ele>1264.6666666666667</ele><time>2026-04-04T12:44:37Z</time></trkpt><trkpt lat="45.90530516729569" lon="10.976598356459073"><ele>1263.3333333333333</ele><time>2026-04-04T12:44:38Z</time></trkpt><trkpt lat="45.90523026811617" lon="10.976526699782939"><ele>1262.0</ele><time>2026-04-04T12:44:39Z</time></trkpt><trkpt lat="45.90518158565295" lon="10.9764507011832"><ele>1260.6666666666665</ele><time>2026-04-04T12:44:40Z</time></trkpt><trkpt lat="45.905111790539074" lon="10.976356246441819"><ele>1259.3333333333333</ele><time>2026-04-04T12:44:41Z</time></trkpt><trkpt lat="45.90504475555365" lon="10.97625850123275"><ele>1258.0</ele><time>2026-04-04T12:44:42Z</time></trkpt><trkpt lat="45.90497015151284" lon="10.976157063130527"><ele>1257.6</ele><time>2026-04-04T12:44:43Z</time></trkpt><trkpt lat="45.9049045952642" lon="10.976069302160948"><ele>1257.1999999999998</ele><time>2026-04-04T12:44:44Z</time></trkpt><trkpt lat="45.90485849136763" lon="10.975997274281104"><ele>1256.8</ele><time>2026-04-04T12:44:45Z</time></trkpt><trkpt lat="45.904790023108035" lon="10.9759490842598"><ele>1256.3999999999999</ele><time>2026-04-04T12:44:47Z</time></trkpt><trkpt lat="45.904663548720876" lon="10.97599376715259"><ele>1256.0</ele><time>2026-04-04T12:44:49Z</time></trkpt><trkpt lat="45.90456912324231" lon="10.97604869414077"><ele>1256.0</ele><time>2026-04-04T12:44:50Z</time></trkpt><trkpt lat="45.904472107046864" lon="10.976108788235269"><ele>1256.0</ele><time>2026-04-04T12:44:51Z</time></trkpt><trkpt lat="45.90436433819742" lon="10.976185333190934"><ele>1256.0</ele><time>2026-04-04T12:44:52Z</time></trkpt><trkpt lat="45.90423639294875" lon="10.976262574789496"><ele>1256.0</ele><time>2026-04-04T12:44:53Z</time></trkpt><trkpt lat="45.90412082814113" lon="10.976304619279066"><ele>1256.5</ele><time>2026-04-04T12:44:54Z</time></trkpt><trkpt lat="45.90404141685645" lon="10.976374090443501"><ele>1257.0</ele><time>2026-04-04T12:44:55Z</time></trkpt><trkpt lat="45.90396227691033" lon="10.976353070630653"><ele>1257.5</ele><time>2026-04-04T12:44:56Z</time></trkpt><trkpt lat="45.903890783099236" lon="10.976366908028568"><ele>1258.0</ele><time>2026-04-04T12:44:57Z</time></trkpt><trkpt lat="45.90383235248228" lon="10.976423617841533"><ele>1258.5</ele><time>2026-04-04T12:44:58Z</time></trkpt><trkpt lat="45.90377069911496" lon="10.976515893298943"><ele>1259.0</ele><time>2026-04-04T12:44:59Z</time></trkpt><trkpt lat="45.903712124712264" lon="10.9766248942323"><ele>1259.4</ele><time>2026-04-04T12:45:00Z</time></trkpt><trkpt lat="45.903644848784666" lon="10.976737333247696"><ele>1259.8000000000002</ele><time>2026-04-04T12:45:01Z</time></trkpt><trkpt lat="45.903599634579635" lon="10.976847389815502"><ele>1260.1999999999998</ele><time>2026-04-04T12:45:02Z</time></trkpt><trkpt lat="45.90357844453269" lon="10.97693717442998"><ele>1260.6</ele><time>2026-04-04T12:45:03Z</time></trkpt><trkpt lat="45.90347528260478" lon="10.977037317392115"><ele>1261.0</ele><time>2026-04-04T12:45:05Z</time></trkpt><trkpt lat="45.90339358892056" lon="10.977078185380044"><ele>1261.3999999999999</ele><time>2026-04-04T12:45:06Z</time></trkpt><trkpt lat="45.903296315997515" lon="10.97712049896654"><ele>1261.8</ele><time>2026-04-04T12:45:07Z</time></trkpt><trkpt lat="45.90320231769256" lon="10.977169519777163"><ele>1262.1999999999998</ele><time>2026-04-04T12:45:08Z</time></trkpt><trkpt lat="45.903114754929454" lon="10.977196058195602"><ele>1262.6</ele><time>2026-04-04T12:45:09Z</time></trkpt><trkpt lat="45.903021618039055" lon="10.977213536432313"><ele>1263.0</ele><time>2026-04-04T12:45:10Z</time></trkpt><trkpt lat="45.902936151938064" lon="10.977236727867968"><ele>1263.0</ele><time>2026-04-04T12:45:11Z</time></trkpt><trkpt lat="45.902849083417486" lon="10.977288265918903"><ele>1263.0</ele><time>2026-04-04T12:45:12Z</time></trkpt><trkpt lat="45.902766228340916" lon="10.977341771914835"><ele>1263.0</ele><time>2026-04-04T12:45:13Z</time></trkpt><trkpt lat="45.90268729777307" lon="10.977404604400332"><ele>1263.0</ele><time>2026-04-04T12:45:14Z</time></trkpt><trkpt lat="45.90260938772651" lon="10.97745315498015"><ele>1263.0</ele><time>2026-04-04T12:45:15Z</time></trkpt><trkpt lat="45.90252912855699" lon="10.977474487103247"><ele>1263.0</ele><time>2026-04-04T12:45:16Z</time></trkpt><trkpt lat="45.90243924027561" lon="10.97746183395874"><ele>1263.6666666666667</ele><time>2026-04-04T12:45:17Z</time></trkpt><trkpt lat="45.90236137062033" lon="10.977463153523678"><ele>1264.3333333333333</ele><time>2026-04-04T12:45:18Z</time></trkpt><trkpt lat="45.902297875834314" lon="10.977495214737022"><ele>1265.0</ele><time>2026-04-04T12:45:19Z</time></trkpt><trkpt lat="45.90223603087856" lon="10.977550021187067"><ele>1265.6666666666665</ele><time>2026-04-04T12:45:20Z</time></trkpt><trkpt lat="45.90216407072853" lon="10.977612024759232"><ele>1266.3333333333333</ele><time>2026-04-04T12:45:21Z</time></trkpt><trkpt lat="45.90209177683592" lon="10.977666965995382"><ele>1267.0</ele><time>2026-04-04T12:45:22Z</time></trkpt><trkpt lat="45.90202412627598" lon="10.977722434652572"><ele>1267.0</ele><time>2026-04-04T12:45:23Z</time></trkpt><trkpt lat="45.901969954368" lon="10.977777053401361"><ele>1267.0</ele><time>2026-04-04T12:45:24Z</time></trkpt><trkpt lat="45.90191039065323" lon="10.977822334282028"><ele>1267.0</ele><time>2026-04-04T12:45:25Z</time></trkpt><trkpt lat="45.90182309826805" lon="10.977871632627634"><ele>1267.0</ele><time>2026-04-04T12:45:26Z</time></trkpt><trkpt lat="45.90171136646817" lon="10.97790098206169"><ele>1267.0</ele><time>2026-04-04T12:45:27Z</time></trkpt><trkpt lat="45.901601486535384" lon="10.97793493579658"><ele>1266.8</ele><time>2026-04-04T12:45:28Z</time></trkpt><trkpt lat="45.901493410518285" lon="10.97797642857025"><ele>1266.6</ele><time>2026-04-04T12:45:29Z</time></trkpt><trkpt lat="45.90139408097726" lon="10.978024760082182"><ele>1266.3999999999999</ele><time>2026-04-04T12:45:30Z</time></trkpt><trkpt lat="45.90130826233324" lon="10.978087263260576"><ele>1266.2</ele><time>2026-04-04T12:45:31Z</time></trkpt><trkpt lat="45.90123243323745" lon="10.978159377331941"><ele>1266.0</ele><time>2026-04-04T12:45:32Z</time></trkpt><trkpt lat="45.90116756482739" lon="10.978202930314007"><ele>1266.0</ele><time>2026-04-04T12:45:33Z</time></trkpt><trkpt lat="45.901096188063306" lon="10.978203637857325"><ele>1266.0</ele><time>2026-04-04T12:45:34Z</time></trkpt><trkpt lat="45.901026616378445" lon="10.978216237798287"><ele>1266.0</ele><time>2026-04-04T12:45:35Z</time></trkpt><trkpt lat="45.90092212863173" lon="10.978258392430476"><ele>1266.0</ele><time>2026-04-04T12:45:37Z</time></trkpt><trkpt lat="45.90081539271875" lon="10.97830477877129"><ele>1266.0</ele><time>2026-04-04T12:45:39Z</time></trkpt><trkpt lat="45.900735927787814" lon="10.978313952760137"><ele>1266.0</ele><time>2026-04-04T12:45:41Z</time></trkpt><trkpt lat="45.900589975582115" lon="10.978278020656992"><ele>1265.3999999999999</ele><time>2026-04-04T12:45:43Z</time></trkpt><trkpt lat="45.9005015080994" lon="10.97826189700775"><ele>1264.8</ele><time>2026-04-04T12:45:44Z</time></trkpt><trkpt lat="45.90042179224475" lon="10.978244712741963"><ele>1264.1999999999998</ele><time>2026-04-04T12:45:45Z</time></trkpt><trkpt lat="45.90035565642757" lon="10.978210569368064"><ele>1263.6</ele><time>2026-04-04T12:45:46Z</time></trkpt><trkpt lat="45.90023464563476" lon="10.978149559557066"><ele>1263.0</ele><time>2026-04-04T12:45:48Z</time></trkpt><trkpt lat="45.90014587434215" lon="10.978112047126698"><ele>1263.4</ele><time>2026-04-04T12:45:49Z</time></trkpt><trkpt lat="45.9000717159187" lon="10.978081108775731"><ele>1263.8</ele><time>2026-04-04T12:45:50Z</time></trkpt><trkpt lat="45.899966781138744" lon="10.978062534105685"><ele>1264.2</ele><time>2026-04-04T12:45:52Z</time></trkpt><trkpt lat="45.8998972267636" lon="10.978196955169253"><ele>1264.6</ele><time>2026-04-04T12:45:54Z</time></trkpt><trkpt lat="45.89987320080265" lon="10.978300501861959"><ele>1265.0</ele><time>2026-04-04T12:45:55Z</time></trkpt><trkpt lat="45.899802640243664" lon="10.978446853808661"><ele>1265.0</ele><time>2026-04-04T12:45:57Z</time></trkpt><trkpt lat="45.899737221595494" lon="10.978505363372477"><ele>1265.0</ele><time>2026-04-04T12:45:58Z</time></trkpt><trkpt lat="45.89966563834909" lon="10.978560145748748"><ele>1265.0</ele><time>2026-04-04T12:45:59Z</time></trkpt><trkpt lat="45.89960295983855" lon="10.97862496214476"><ele>1265.0</ele><time>2026-04-04T12:46:00Z</time></trkpt><trkpt lat="45.89953863713166" lon="10.978698669395115"><ele>1265.0</ele><time>2026-04-04T12:46:01Z</time></trkpt><trkpt lat="45.89947407690933" lon="10.97877835949414"><ele>1265.0</ele><time>2026-04-04T12:46:02Z</time></trkpt><trkpt lat="45.899419275711296" lon="10.97885372087494"><ele>1265.0</ele><time>2026-04-04T12:46:03Z</time></trkpt><trkpt lat="45.89937554765356" lon="10.978938978683827"><ele>1265.0</ele><time>2026-04-04T12:46:04Z</time></trkpt><trkpt lat="45.89933313498654" lon="10.9790323898615"><ele>1265.0</ele><time>2026-04-04T12:46:05Z</time></trkpt><trkpt lat="45.89929663676288" lon="10.979116480934017"><ele>1265.0</ele><time>2026-04-04T12:46:06Z</time></trkpt><trkpt lat="45.8992273463001" lon="10.979209974760629"><ele>1265.0</ele><time>2026-04-04T12:46:08Z</time></trkpt><trkpt lat="45.89913331273192" lon="10.979348590292616"><ele>1265.8</ele><time>2026-04-04T12:46:10Z</time></trkpt><trkpt lat="45.89910021042778" lon="10.979456490411755"><ele>1266.6</ele><time>2026-04-04T12:46:11Z</time></trkpt><trkpt lat="45.89905020917165" lon="10.979624902083179"><ele>1267.4</ele><time>2026-04-04T12:46:13Z</time></trkpt><trkpt lat="45.89902364997138" lon="10.979709770647892"><ele>1268.2</ele><time>2026-04-04T12:46:14Z</time></trkpt><trkpt lat="45.89901619060978" lon="10.979804329692449"><ele>1269.0</ele><time>2026-04-04T12:46:15Z</time></trkpt><trkpt lat="45.899066294463324" lon="10.979987880707698"><ele>1270.5714285714287</ele><time>2026-04-04T12:46:17Z</time></trkpt><trkpt lat="45.8990757776016" lon="10.980098268119947"><ele>1272.142857142857</ele><time>2026-04-04T12:46:18Z</time></trkpt><trkpt lat="45.89907065052999" lon="10.980208606662165"><ele>1273.7142857142858</ele><time>2026-04-04T12:46:19Z</time></trkpt><trkpt lat="45.89907843983772" lon="10.980306990279196"><ele>1275.2857142857142</ele><time>2026-04-04T12:46:20Z</time></trkpt><trkpt lat="45.89909704375052" lon="10.980397248879603"><ele>1276.857142857143</ele><time>2026-04-04T12:46:21Z</time></trkpt><trkpt lat="45.89908842092951" lon="10.980492055588963"><ele>1278.4285714285713</ele><time>2026-04-04T12:46:22Z</time></trkpt><trkpt lat="45.8990721335185" lon="10.98060047501555"><ele>1280.0</ele><time>2026-04-04T12:46:23Z</time></trkpt><trkpt lat="45.89905550228273" lon="10.980705441233017"><ele>1280.0</ele><time>2026-04-04T12:46:24Z</time></trkpt><trkpt lat="45.89899287134183" lon="10.980792207538903"><ele>1280.0</ele><time>2026-04-04T12:46:26Z</time></trkpt><trkpt lat="45.89893078338938" lon="10.980807674728032"><ele>1280.0</ele><time>2026-04-04T12:46:28Z</time></trkpt><trkpt lat="45.8988661901308" lon="10.980779956136603"><ele>1280.0</ele><time>2026-04-04T12:46:38Z</time></trkpt><trkpt lat="45.89876099327321" lon="10.980696418801495"><ele>1280.0</ele><time>2026-04-04T12:46:40Z</time></trkpt><trkpt lat="45.89868889804402" lon="10.98062311681969"><ele>1280.0</ele><time>2026-04-04T12:46:41Z</time></trkpt><trkpt lat="45.89862211128191" lon="10.980524606942913"><ele>1280.0</ele><time>2026-04-04T12:46:42Z</time></trkpt><trkpt lat="45.89855679923019" lon="10.98040278245258"><ele>1280.0</ele><time>2026-04-04T12:46:43Z</time></trkpt><trkpt lat="45.898494526044736" lon="10.980289212208545"><ele>1280.0</ele><time>2026-04-04T12:46:44Z</time></trkpt><trkpt lat="45.898446323771445" lon="10.980193659796916"><ele>1280.0</ele><time>2026-04-04T12:46:45Z</time></trkpt><trkpt lat="45.89839832483908" lon="10.980112440801731"><ele>1280.0</ele><time>2026-04-04T12:46:46Z</time></trkpt><trkpt lat="45.898333988324744" lon="10.980072613918859"><ele>1280.0</ele><time>2026-04-04T12:46:47Z</time></trkpt><trkpt lat="45.89824811986542" lon="10.980040183613257"><ele>1280.4</ele><time>2026-04-04T12:46:48Z</time></trkpt><trkpt lat="45.898152992531564" lon="10.980005238688321"><ele>1280.8</ele><time>2026-04-04T12:46:49Z</time></trkpt><trkpt lat="45.89808028528605" lon="10.979925880436358"><ele>1281.1999999999998</ele><time>2026-04-04T12:46:50Z</time></trkpt><trkpt lat="45.898026693771655" lon="10.979822578664809"><ele>1281.6</ele><time>2026-04-04T12:46:51Z</time></trkpt><trkpt lat="45.8979622738847" lon="10.97973763378668"><ele>1282.0</ele><time>2026-04-04T12:46:52Z</time></trkpt><trkpt lat="45.89792586183901" lon="10.979610431710842"><ele>1282.0</ele><time>2026-04-04T12:46:53Z</time></trkpt><trkpt lat="45.897899642750524" lon="10.979456944906078"><ele>1282.0</ele><time>2026-04-04T12:46:54Z</time></trkpt><trkpt lat="45.897858920874384" lon="10.979323174636693"><ele>1282.0</ele><time>2026-04-04T12:46:55Z</time></trkpt><trkpt lat="45.89781416413674" lon="10.979214052078765"><ele>1282.0</ele><time>2026-04-04T12:46:56Z</time></trkpt><trkpt lat="45.8977660761088" lon="10.979124645887087"><ele>1282.0</ele><time>2026-04-04T12:46:57Z</time></trkpt><trkpt lat="45.89771967437343" lon="10.97905915350938"><ele>1282.0</ele><time>2026-04-04T12:46:58Z</time></trkpt><trkpt lat="45.89778276267432" lon="10.97914006325729"><ele>1282.0</ele><time>2026-04-04T12:47:48Z</time></trkpt><trkpt lat="45.897831550073334" lon="10.979218322640975"><ele>1282.0</ele><time>2026-04-04T12:47:49Z</time></trkpt><trkpt lat="45.89786443668113" lon="10.979300241634368"><ele>1282.0</ele><time>2026-04-04T12:47:50Z</time></trkpt><trkpt lat="45.89794051913516" lon="10.979536521937714"><ele>1282.0</ele><time>2026-04-04T12:47:53Z</time></trkpt><trkpt lat="45.89796065379765" lon="10.979634891565931"><ele>1282.0</ele><time>2026-04-04T12:47:54Z</time></trkpt><trkpt lat="45.89798419487515" lon="10.97974082420395"><ele>1282.0</ele><time>2026-04-04T12:47:55Z</time></trkpt><trkpt lat="45.898020159202986" lon="10.979829986533707"><ele>1282.0</ele><time>2026-04-04T12:47:56Z</time></trkpt><trkpt lat="45.898070565657264" lon="10.979903463240122"><ele>1282.0</ele><time>2026-04-04T12:47:57Z</time></trkpt><trkpt lat="45.89814194616734" lon="10.979956715802514"><ele>1282.0</ele><time>2026-04-04T12:47:58Z</time></trkpt><trkpt lat="45.89826961139522" lon="10.980017240939155"><ele>1282.0</ele><time>2026-04-04T12:48:00Z</time></trkpt><trkpt lat="45.89835438899445" lon="10.980084433529674"><ele>1281.6</ele><time>2026-04-04T12:48:01Z</time></trkpt><trkpt lat="45.89841907072212" lon="10.980129702472155"><ele>1281.1999999999998</ele><time>2026-04-04T12:48:02Z</time></trkpt><trkpt lat="45.898480598731396" lon="10.98020369709328"><ele>1280.8</ele><time>2026-04-04T12:48:03Z</time></trkpt><trkpt lat="45.898542281707684" lon="10.980320780474647"><ele>1280.4</ele><time>2026-04-04T12:48:04Z</time></trkpt><trkpt lat="45.89860884738218" lon="10.980450324856633"><ele>1280.0</ele><time>2026-04-04T12:48:05Z</time></trkpt><trkpt lat="45.89868050939177" lon="10.980576015344791"><ele>1280.0</ele><time>2026-04-04T12:48:06Z</time></trkpt><trkpt lat="45.89875147187407" lon="10.980668418356156"><ele>1280.0</ele><time>2026-04-04T12:48:07Z</time></trkpt><trkpt lat="45.89882965577151" lon="10.980728397151314"><ele>1280.0</ele><time>2026-04-04T12:48:08Z</time></trkpt><trkpt lat="45.89889695535166" lon="10.980777268060175"><ele>1280.0</ele><time>2026-04-04T12:48:09Z</time></trkpt><trkpt lat="45.898952469395205" lon="10.980852524813752"><ele>1280.0</ele><time>2026-04-04T12:48:10Z</time></trkpt><trkpt lat="45.89899001838329" lon="10.980957672425093"><ele>1280.0</ele><time>2026-04-04T12:48:11Z</time></trkpt><trkpt lat="45.89902037623049" lon="10.981085440817939"><ele>1279.8</ele><time>2026-04-04T12:48:12Z</time></trkpt><trkpt lat="45.89902966835562" lon="10.981235659796516"><ele>1279.6</ele><time>2026-04-04T12:48:13Z</time></trkpt><trkpt lat="45.89904312413851" lon="10.981390459218458"><ele>1279.4</ele><time>2026-04-04T12:48:14Z</time></trkpt><trkpt lat="45.899044956449096" lon="10.981547548306835"><ele>1279.2</ele><time>2026-04-04T12:48:15Z</time></trkpt><trkpt lat="45.89903508820384" lon="10.98169660327842"><ele>1279.0</ele><time>2026-04-04T12:48:16Z</time></trkpt><trkpt lat="45.89901996512704" lon="10.981856243412178"><ele>1279.0</ele><time>2026-04-04T12:48:17Z</time></trkpt><trkpt lat="45.899007727111645" lon="10.982003961912811"><ele>1279.0</ele><time>2026-04-04T12:48:18Z</time></trkpt><trkpt lat="45.899004889795044" lon="10.98213315160153"><ele>1279.0</ele><time>2026-04-04T12:48:19Z</time></trkpt><trkpt lat="45.89900160433853" lon="10.982244879267405"><ele>1279.0</ele><time>2026-04-04T12:48:20Z</time></trkpt><trkpt lat="45.89898584720272" lon="10.982350749578572"><ele>1279.0</ele><time>2026-04-04T12:48:21Z</time></trkpt><trkpt lat="45.89894457047786" lon="10.982461472876158"><ele>1279.0</ele><time>2026-04-04T12:48:22Z</time></trkpt><trkpt lat="45.89890615622616" lon="10.98255690435252"><ele>1279.0</ele><time>2026-04-04T12:48:23Z</time></trkpt><trkpt lat="45.89886801849524" lon="10.982648598890705"><ele>1279.0</ele><time>2026-04-04T12:48:24Z</time></trkpt><trkpt lat="45.89879866822162" lon="10.982791419462256"><ele>1279.0</ele><time>2026-04-04T12:48:26Z</time></trkpt><trkpt lat="45.898755644441835" lon="10.982947713851262"><ele>1279.0</ele><time>2026-04-04T12:48:28Z</time></trkpt><trkpt lat="45.89874546449059" lon="10.983131602229722"><ele>1279.0</ele><time>2026-04-04T12:48:30Z</time></trkpt><trkpt lat="45.89870531066451" lon="10.983204519934825"><ele>1279.0</ele><time>2026-04-04T12:48:31Z</time></trkpt><trkpt lat="45.89865898897459" lon="10.983267069081728"><ele>1279.0</ele><time>2026-04-04T12:48:32Z</time></trkpt><trkpt lat="45.89860437566226" lon="10.983333102342892"><ele>1279.0</ele><time>2026-04-04T12:48:33Z</time></trkpt><trkpt lat="45.89851419499983" lon="10.983424531552462"><ele>1279.0</ele><time>2026-04-04T12:48:35Z</time></trkpt><trkpt lat="45.898446984637076" lon="10.983420355322108"><ele>1279.0</ele><time>2026-04-04T12:48:36Z</time></trkpt><trkpt lat="45.89835759807426" lon="10.98334586909963"><ele>1279.0</ele><time>2026-04-04T12:48:37Z</time></trkpt><trkpt lat="45.89826127910477" lon="10.983371013777699"><ele>1279.4</ele><time>2026-04-04T12:48:38Z</time></trkpt><trkpt lat="45.89815661468597" lon="10.983411721825394"><ele>1279.8000000000002</ele><time>2026-04-04T12:48:39Z</time></trkpt><trkpt lat="45.89805683740888" lon="10.983475106135389"><ele>1280.1999999999998</ele><time>2026-04-04T12:48:40Z</time></trkpt><trkpt lat="45.89797067958979" lon="10.983520929134784"><ele>1280.6</ele><time>2026-04-04T12:48:41Z</time></trkpt><trkpt lat="45.89790497642572" lon="10.983577646448577"><ele>1281.0</ele><time>2026-04-04T12:48:42Z</time></trkpt><trkpt lat="45.897827622058934" lon="10.983578750905739"><ele>1281.0</ele><time>2026-04-04T12:48:43Z</time></trkpt><trkpt lat="45.89773537321831" lon="10.98357767541763"><ele>1281.0</ele><time>2026-04-04T12:48:44Z</time></trkpt><trkpt lat="45.89764432724245" lon="10.983511422997518"><ele>1281.0</ele><time>2026-04-04T12:48:45Z</time></trkpt><trkpt lat="45.89756344090105" lon="10.983471231545234"><ele>1281.0</ele><time>2026-04-04T12:48:46Z</time></trkpt><trkpt lat="45.89747591676751" lon="10.983392624623102"><ele>1281.0</ele><time>2026-04-04T12:48:47Z</time></trkpt><trkpt lat="45.897392756795725" lon="10.983280024378372"><ele>1285.25</ele><time>2026-04-04T12:48:48Z</time></trkpt><trkpt lat="45.897283295922264" lon="10.983176029274201"><ele>1289.5</ele><time>2026-04-04T12:48:49Z</time></trkpt><trkpt lat="45.89714477094931" lon="10.983151167330188"><ele>1293.75</ele><time>2026-04-04T12:48:50Z</time></trkpt><trkpt lat="45.897013499896545" lon="10.983115949236373"><ele>1298.0</ele><time>2026-04-04T12:48:51Z</time></trkpt><trkpt lat="45.89686392362707" lon="10.983072379333617"><ele>1297.25</ele><time>2026-04-04T12:48:52Z</time></trkpt><trkpt lat="45.896727572782744" lon="10.983053797861166"><ele>1296.5</ele><time>2026-04-04T12:48:53Z</time></trkpt><trkpt lat="45.896595590528484" lon="10.983006789957294"><ele>1295.75</ele><time>2026-04-04T12:48:54Z</time></trkpt><trkpt lat="45.89648254471344" lon="10.982983301729691"><ele>1295.0</ele><time>2026-04-04T12:48:55Z</time></trkpt><trkpt lat="45.896347483685894" lon="10.982956612839283"><ele>1295.0</ele><time>2026-04-04T12:48:56Z</time></trkpt><trkpt lat="45.896232181280496" lon="10.982885410502986"><ele>1295.0</ele><time>2026-04-04T12:48:57Z</time></trkpt><trkpt lat="45.89611855013628" lon="10.982809236528569"><ele>1295.0</ele><time>2026-04-04T12:48:58Z</time></trkpt><trkpt lat="45.896015462869975" lon="10.98272874331162"><ele>1295.0</ele><time>2026-04-04T12:48:59Z</time></trkpt><trkpt lat="45.895900829381354" lon="10.982671354009558"><ele>1294.75</ele><time>2026-04-04T12:49:00Z</time></trkpt><trkpt lat="45.89579372676053" lon="10.98260316832655"><ele>1294.5</ele><time>2026-04-04T12:49:01Z</time></trkpt><trkpt lat="45.89569440454829" lon="10.982517036306263"><ele>1294.25</ele><time>2026-04-04T12:49:02Z</time></trkpt><trkpt lat="45.89558348791043" lon="10.98241108184387"><ele>1294.0</ele><time>2026-04-04T12:49:03Z</time></trkpt><trkpt lat="45.8954551709833" lon="10.982323017966934"><ele>1297.25</ele><time>2026-04-04T12:49:04Z</time></trkpt><trkpt lat="45.89532372058995" lon="10.982254310885256"><ele>1300.5</ele><time>2026-04-04T12:49:05Z</time></trkpt><trkpt lat="45.8952032180105" lon="10.982198216960965"><ele>1303.75</ele><time>2026-04-04T12:49:06Z</time></trkpt><trkpt lat="45.8950806505152" lon="10.982149963242088"><ele>1307.0</ele><time>2026-04-04T12:49:07Z</time></trkpt><trkpt lat="45.89496442787351" lon="10.982101620286326"><ele>1307.0</ele><time>2026-04-04T12:49:08Z</time></trkpt><trkpt lat="45.894861665965635" lon="10.982037679207158"><ele>1307.0</ele><time>2026-04-04T12:49:09Z</time></trkpt><trkpt lat="45.894758687417166" lon="10.981990638242594"><ele>1307.0</ele><time>2026-04-04T12:49:10Z</time></trkpt><trkpt lat="45.894650223968895" lon="10.981926387356344"><ele>1307.0</ele><time>2026-04-04T12:49:11Z</time></trkpt><trkpt lat="45.89454736653059" lon="10.98187766916162"><ele>1307.0</ele><time>2026-04-04T12:49:12Z</time></trkpt><trkpt lat="45.894458975724625" lon="10.981818228351651"><ele>1307.0</ele><time>2026-04-04T12:49:13Z</time></trkpt><trkpt lat="45.894374445647664" lon="10.98179055682138"><ele>1307.0</ele><time>2026-04-04T12:49:14Z</time></trkpt><trkpt lat="45.89428688480965" lon="10.981715518241801"><ele>1307.0</ele><time>2026-04-04T12:49:15Z</time></trkpt><trkpt lat="45.894185843446245" lon="10.981631870867348"><ele>1307.0</ele><time>2026-04-04T12:49:17Z</time></trkpt><trkpt lat="45.89410984896872" lon="10.981584257986668"><ele>1307.0</ele><time>2026-04-04T12:49:18Z</time></trkpt><trkpt lat="45.89402543981946" lon="10.98152632405013"><ele>1309.0</ele><time>2026-04-04T12:49:19Z</time></trkpt><trkpt lat="45.89395430622147" lon="10.981470883701926"><ele>1311.0</ele><time>2026-04-04T12:49:20Z</time></trkpt><trkpt lat="45.89388964414374" lon="10.981424126766028"><ele>1313.0</ele><time>2026-04-04T12:49:21Z</time></trkpt><trkpt lat="45.893828955163265" lon="10.981385511213762"><ele>1315.0</ele><time>2026-04-04T12:49:22Z</time></trkpt><trkpt lat="45.89369508875095" lon="10.981321863762942"><ele>1317.0</ele><time>2026-04-04T12:49:24Z</time></trkpt><trkpt lat="45.89363039711883" lon="10.98129159167144"><ele>1319.0</ele><time>2026-04-04T12:49:25Z</time></trkpt><trkpt lat="45.893563540775446" lon="10.981246548357428"><ele>1319.0</ele><time>2026-04-04T12:49:26Z</time></trkpt><trkpt lat="45.8934978114107" lon="10.981202133794262"><ele>1319.0</ele><time>2026-04-04T12:49:27Z</time></trkpt><trkpt lat="45.89343343058976" lon="10.981159755734312"><ele>1319.0</ele><time>2026-04-04T12:49:28Z</time></trkpt><trkpt lat="45.89337722455138" lon="10.9811092360186"><ele>1319.0</ele><time>2026-04-04T12:49:29Z</time></trkpt><trkpt lat="45.893284546908546" lon="10.981000460353414"><ele>1319.0</ele><time>2026-04-04T12:49:31Z</time></trkpt><trkpt lat="45.89324335754028" lon="10.980913671379493"><ele>1319.0</ele><time>2026-04-04T12:49:32Z</time></trkpt><trkpt lat="45.89320339818776" lon="10.98082370239927"><ele>1320.4</ele><time>2026-04-04T12:49:33Z</time></trkpt><trkpt lat="45.89309803227254" lon="10.980702568163121"><ele>1321.8000000000002</ele><time>2026-04-04T12:49:35Z</time></trkpt><trkpt lat="45.893032655500456" lon="10.980634449546951"><ele>1323.1999999999998</ele><time>2026-04-04T12:49:36Z</time></trkpt><trkpt lat="45.89296178998696" lon="10.98053736703137"><ele>1324.6</ele><time>2026-04-04T12:49:37Z</time></trkpt><trkpt lat="45.892883115122906" lon="10.980479102192385"><ele>1326.0</ele><time>2026-04-04T12:49:38Z</time></trkpt><trkpt lat="45.89280544276524" lon="10.980393804870223"><ele>1326.0</ele><time>2026-04-04T12:49:39Z</time></trkpt><trkpt lat="45.89273426335461" lon="10.980304286084378"><ele>1326.0</ele><time>2026-04-04T12:49:40Z</time></trkpt><trkpt lat="45.89266904096357" lon="10.980200628875926"><ele>1326.0</ele><time>2026-04-04T12:49:41Z</time></trkpt><trkpt lat="45.89261029701294" lon="10.980094935062263"><ele>1326.0</ele><time>2026-04-04T12:49:42Z</time></trkpt><trkpt lat="45.89254082591015" lon="10.979999672957266"><ele>1326.0</ele><time>2026-04-04T12:49:43Z</time></trkpt><trkpt lat="45.89245795781907" lon="10.979897008690696"><ele>1325.0</ele><time>2026-04-04T12:49:44Z</time></trkpt><trkpt lat="45.89236652716275" lon="10.979782527389041"><ele>1324.0</ele><time>2026-04-04T12:49:45Z</time></trkpt><trkpt lat="45.892286263119736" lon="10.979677103291626"><ele>1323.0</ele><time>2026-04-04T12:49:46Z</time></trkpt><trkpt lat="45.89218680063536" lon="10.979556495420976"><ele>1322.0</ele><time>2026-04-04T12:49:47Z</time></trkpt><trkpt lat="45.892074291645706" lon="10.979433266328751"><ele>1322.0</ele><time>2026-04-04T12:49:48Z</time></trkpt><trkpt lat="45.89195618044629" lon="10.97936173410431"><ele>1322.0</ele><time>2026-04-04T12:49:49Z</time></trkpt><trkpt lat="45.891834443943466" lon="10.979328045055027"><ele>1322.0</ele><time>2026-04-04T12:49:50Z</time></trkpt><trkpt lat="45.89169537650025" lon="10.979307956199564"><ele>1322.0</ele><time>2026-04-04T12:49:51Z</time></trkpt><trkpt lat="45.891542351369154" lon="10.979284752357318"><ele>1317.0</ele><time>2026-04-04T12:49:52Z</time></trkpt><trkpt lat="45.89138780133607" lon="10.9792719598312"><ele>1312.0</ele><time>2026-04-04T12:49:53Z</time></trkpt><trkpt lat="45.89125614604407" lon="10.97925412093018"><ele>1307.0</ele><time>2026-04-04T12:49:54Z</time></trkpt><trkpt lat="45.89113926561345" lon="10.979247151217589"><ele>1302.0</ele><time>2026-04-04T12:49:55Z</time></trkpt><trkpt lat="45.891029631368156" lon="10.979195759058904"><ele>1308.5</ele><time>2026-04-04T12:49:56Z</time></trkpt><trkpt lat="45.8909135494157" lon="10.979162705702464"><ele>1315.0</ele><time>2026-04-04T12:49:57Z</time></trkpt><trkpt lat="45.890799308019105" lon="10.979126856128577"><ele>1321.5</ele><time>2026-04-04T12:49:58Z</time></trkpt><trkpt lat="45.890665707754835" lon="10.979089330520413"><ele>1328.0</ele><time>2026-04-04T12:49:59Z</time></trkpt><trkpt lat="45.89055398505986" lon="10.979028711768489"><ele>1328.0</ele><time>2026-04-04T12:50:00Z</time></trkpt><trkpt lat="45.890445194043814" lon="10.978969262217726"><ele>1328.0</ele><time>2026-04-04T12:50:01Z</time></trkpt><trkpt lat="45.89035527088112" lon="10.978898846845984"><ele>1328.0</ele><time>2026-04-04T12:50:02Z</time></trkpt><trkpt lat="45.89025701999925" lon="10.978822346891228"><ele>1328.0</ele><time>2026-04-04T12:50:03Z</time></trkpt><trkpt lat="45.890170585749395" lon="10.978750592590645"><ele>1328.0</ele><time>2026-04-04T12:50:04Z</time></trkpt><trkpt lat="45.89007563405339" lon="10.978692791949776"><ele>1324.0</ele><time>2026-04-04T12:50:05Z</time></trkpt><trkpt lat="45.88997298977573" lon="10.978625517421314"><ele>1320.0</ele><time>2026-04-04T12:50:06Z</time></trkpt><trkpt lat="45.889849808040175" lon="10.978572423986185"><ele>1316.0</ele><time>2026-04-04T12:50:07Z</time></trkpt><trkpt lat="45.889716808686636" lon="10.978529900583526"><ele>1312.0</ele><time>2026-04-04T12:50:08Z</time></trkpt><trkpt lat="45.88958506891981" lon="10.978476324943244"><ele>1312.0</ele><time>2026-04-04T12:50:09Z</time></trkpt><trkpt lat="45.88947418122856" lon="10.9784159928796"><ele>1312.0</ele><time>2026-04-04T12:50:10Z</time></trkpt><trkpt lat="45.88936460378876" lon="10.978350195605342"><ele>1312.0</ele><time>2026-04-04T12:50:11Z</time></trkpt><trkpt lat="45.889265623896506" lon="10.978278476202764"><ele>1312.0</ele><time>2026-04-04T12:50:12Z</time></trkpt><trkpt lat="45.889160927948886" lon="10.97821190338629"><ele>1313.75</ele><time>2026-04-04T12:50:13Z</time></trkpt><trkpt lat="45.88904217579225" lon="10.978157598267199"><ele>1315.5</ele><time>2026-04-04T12:50:14Z</time></trkpt><trkpt lat="45.88892690916789" lon="10.978096767387036"><ele>1317.25</ele><time>2026-04-04T12:50:15Z</time></trkpt><trkpt lat="45.88883583010953" lon="10.978031806188678"><ele>1319.0</ele><time>2026-04-04T12:50:16Z</time></trkpt><trkpt lat="45.88871625592247" lon="10.977967938252364"><ele>1319.0</ele><time>2026-04-04T12:50:17Z</time></trkpt><trkpt lat="45.88864519557558" lon="10.977880548209754"><ele>1319.0</ele><time>2026-04-04T12:50:18Z</time></trkpt><trkpt lat="45.88855082589321" lon="10.977797917725747"><ele>1319.0</ele><time>2026-04-04T12:50:19Z</time></trkpt><trkpt lat="45.88846024526558" lon="10.977726288273017"><ele>1319.0</ele><time>2026-04-04T12:50:20Z</time></trkpt><trkpt lat="45.8883665707755" lon="10.977611478034106"><ele>1319.0</ele><time>2026-04-04T12:50:21Z</time></trkpt><trkpt lat="45.88827150575336" lon="10.977498609837234"><ele>1319.4</ele><time>2026-04-04T12:50:22Z</time></trkpt><trkpt lat="45.88819713828084" lon="10.97736447377088"><ele>1319.8000000000002</ele><time>2026-04-04T12:50:23Z</time></trkpt><trkpt lat="45.88812255849666" lon="10.97724331057863"><ele>1320.1999999999998</ele><time>2026-04-04T12:50:24Z</time></trkpt><trkpt lat="45.88805576122212" lon="10.977145363438128"><ele>1320.6</ele><time>2026-04-04T12:50:25Z</time></trkpt><trkpt lat="45.888001277419015" lon="10.97706423963567"><ele>1321.0</ele><time>2026-04-04T12:50:26Z</time></trkpt><trkpt lat="45.88793433764606" lon="10.977016145898613"><ele>1321.0</ele><time>2026-04-04T12:50:27Z</time></trkpt><trkpt lat="45.887857398685206" lon="10.97697438323479"><ele>1321.0</ele><time>2026-04-04T12:50:28Z</time></trkpt><trkpt lat="45.88778439365144" lon="10.976944436158542"><ele>1321.0</ele><time>2026-04-04T12:50:29Z</time></trkpt><trkpt lat="45.887716922662" lon="10.976965983632413"><ele>1321.0</ele><time>2026-04-04T12:50:31Z</time></trkpt><trkpt lat="45.887654959940406" lon="10.977007984607308"><ele>1321.0</ele><time>2026-04-04T12:51:28Z</time></trkpt><trkpt lat="45.88757824434882" lon="10.977043638038182"><ele>1321.0</ele><time>2026-04-04T12:51:38Z</time></trkpt><trkpt lat="45.8875213454488" lon="10.977084622790946"><ele>1321.0</ele><time>2026-04-04T12:51:39Z</time></trkpt><trkpt lat="45.88746066303529" lon="10.977151480653122"><ele>1318.1666666666665</ele><time>2026-04-04T12:51:40Z</time></trkpt><trkpt lat="45.88738927757789" lon="10.977139920454807"><ele>1315.3333333333333</ele><time>2026-04-04T12:51:41Z</time></trkpt><trkpt lat="45.8873345330153" lon="10.97708976978136"><ele>1312.5</ele><time>2026-04-04T12:51:42Z</time></trkpt><trkpt lat="45.88725945995147" lon="10.977077355889472"><ele>1309.6666666666667</ele><time>2026-04-04T12:51:43Z</time></trkpt><trkpt lat="45.887162259069896" lon="10.977041600408207"><ele>1306.8333333333335</ele><time>2026-04-04T12:51:44Z</time></trkpt><trkpt lat="45.88703430644359" lon="10.97699854365121"><ele>1304.0</ele><time>2026-04-04T12:51:45Z</time></trkpt><trkpt lat="45.88690597796768" lon="10.97692380930652"><ele>1304.0</ele><time>2026-04-04T12:51:46Z</time></trkpt><trkpt lat="45.88680444142191" lon="10.976879758461555"><ele>1304.0</ele><time>2026-04-04T12:51:47Z</time></trkpt><trkpt lat="45.886701773357686" lon="10.976876327028856"><ele>1304.0</ele><time>2026-04-04T12:51:48Z</time></trkpt><trkpt lat="45.88657527960639" lon="10.976883298856034"><ele>1304.0</ele><time>2026-04-04T12:51:49Z</time></trkpt><trkpt lat="45.88642938981347" lon="10.97690114747548"><ele>1303.75</ele><time>2026-04-04T12:51:50Z</time></trkpt><trkpt lat="45.886295248474624" lon="10.976882341539007"><ele>1303.5</ele><time>2026-04-04T12:51:51Z</time></trkpt><trkpt lat="45.886145638979634" lon="10.976837625649717"><ele>1303.25</ele><time>2026-04-04T12:51:52Z</time></trkpt><trkpt lat="45.88601684857862" lon="10.976836500507961"><ele>1303.0</ele><time>2026-04-04T12:51:53Z</time></trkpt><trkpt lat="45.88591233653685" lon="10.97679678224417"><ele>1299.6666666666665</ele><time>2026-04-04T12:51:54Z</time></trkpt><trkpt lat="45.88584460337672" lon="10.976806956355965"><ele>1296.3333333333333</ele><time>2026-04-04T12:51:55Z</time></trkpt><trkpt lat="45.88577202625206" lon="10.976776988025811"><ele>1293.0</ele><time>2026-04-04T12:51:56Z</time></trkpt><trkpt lat="45.88566723418905" lon="10.97676444534416"><ele>1289.6666666666667</ele><time>2026-04-04T12:51:57Z</time></trkpt><trkpt lat="45.885559771444846" lon="10.976731581629554"><ele>1286.3333333333335</ele><time>2026-04-04T12:51:58Z</time></trkpt><trkpt lat="45.8854871804773" lon="10.976653145551737"><ele>1283.0</ele><time>2026-04-04T12:51:59Z</time></trkpt><trkpt lat="45.88540163828036" lon="10.976608146417892"><ele>1290.75</ele><time>2026-04-04T12:52:00Z</time></trkpt><trkpt lat="45.88531788054976" lon="10.976571192175962"><ele>1298.5</ele><time>2026-04-04T12:52:01Z</time></trkpt><trkpt lat="45.88517459200766" lon="10.976562722068424"><ele>1306.25</ele><time>2026-04-04T12:52:02Z</time></trkpt><trkpt lat="45.88505018628525" lon="10.97654752087247"><ele>1314.0</ele><time>2026-04-04T12:52:03Z</time></trkpt><trkpt lat="45.8849346365428" lon="10.976534993210844"><ele>1314.0</ele><time>2026-04-04T12:52:04Z</time></trkpt><trkpt lat="45.884808181367845" lon="10.976530354767247"><ele>1314.0</ele><time>2026-04-04T12:52:05Z</time></trkpt><trkpt lat="45.884691781598946" lon="10.976533427088889"><ele>1314.0</ele><time>2026-04-04T12:52:06Z</time></trkpt><trkpt lat="45.88458203817727" lon="10.976517813641133"><ele>1314.0</ele><time>2026-04-04T12:52:07Z</time></trkpt><trkpt lat="45.88448350074087" lon="10.976513966753974"><ele>1314.0</ele><time>2026-04-04T12:52:08Z</time></trkpt><trkpt lat="45.88440266730439" lon="10.976495273142683"><ele>1314.0</ele><time>2026-04-04T12:52:09Z</time></trkpt><trkpt lat="45.88434015217262" lon="10.976452140067078"><ele>1314.0</ele><time>2026-04-04T12:52:13Z</time></trkpt><trkpt lat="45.884407964925046" lon="10.976283162028551"><ele>1314.0</ele><time>2026-04-04T12:52:16Z</time></trkpt><trkpt lat="45.884454307245335" lon="10.976161407592445"><ele>1314.0</ele><time>2026-04-04T12:52:18Z</time></trkpt><trkpt lat="45.88451135105472" lon="10.976113110115561"><ele>1314.0</ele><time>2026-04-04T12:52:20Z</time></trkpt><trkpt lat="45.884605542154816" lon="10.976090115753655"><ele>1314.0</ele><time>2026-04-04T12:52:24Z</time></trkpt><trkpt lat="45.884731453245124" lon="10.976019016518775"><ele>1314.0</ele><time>2026-04-04T12:52:26Z</time></trkpt><trkpt lat="45.88483012037064" lon="10.975980399104909"><ele>1314.0</ele><time>2026-04-04T12:52:27Z</time></trkpt><trkpt lat="45.88491100990259" lon="10.975980248499834"><ele>1314.0</ele><time>2026-04-04T12:52:28Z</time></trkpt><trkpt lat="45.88499173444488" lon="10.975980887884154"><ele>1314.0</ele><time>2026-04-04T12:52:29Z</time></trkpt><trkpt lat="45.88506911201163" lon="10.97594175710119"><ele>1314.0</ele><time>2026-04-04T12:52:30Z</time></trkpt><trkpt lat="45.88514620259873" lon="10.975876739803498"><ele>1314.0</ele><time>2026-04-04T12:52:31Z</time></trkpt><trkpt lat="45.885210456409055" lon="10.975826591290087"><ele>1314.0</ele><time>2026-04-04T12:52:32Z</time></trkpt><trkpt lat="45.8852234918776" lon="10.975708170385122"><ele>1314.0</ele><time>2026-04-04T12:52:48Z</time></trkpt><trkpt lat="45.88519974220046" lon="10.975559686616855"><ele>1314.0</ele><time>2026-04-04T12:52:50Z</time></trkpt><trkpt lat="45.885151299980194" lon="10.97549726642529"><ele>1318.8333333333333</ele><time>2026-04-04T12:52:51Z</time></trkpt><trkpt lat="45.8850460119237" lon="10.97540994078595"><ele>1323.6666666666667</ele><time>2026-04-04T12:52:53Z</time></trkpt><trkpt lat="45.88498049231037" lon="10.975377907155256"><ele>1328.5</ele><time>2026-04-04T12:52:54Z</time></trkpt><trkpt lat="45.884914522105" lon="10.975318750950533"><ele>1333.3333333333335</ele><time>2026-04-04T12:52:55Z</time></trkpt><trkpt lat="45.884860000389416" lon="10.975244305279933"><ele>1338.1666666666667</ele><time>2026-04-04T12:52:56Z</time></trkpt><trkpt lat="45.88479364218917" lon="10.975221946436049"><ele>1343.0</ele><time>2026-04-04T12:52:57Z</time></trkpt><trkpt lat="45.88468069139086" lon="10.975169735002275"><ele>1343.0</ele><time>2026-04-04T12:52:59Z</time></trkpt><trkpt lat="45.88455881622603" lon="10.975084477869398"><ele>1343.0</ele><time>2026-04-04T12:53:01Z</time></trkpt><trkpt lat="45.88450762834499" lon="10.975017846223194"><ele>1343.0</ele><time>2026-04-04T12:53:02Z</time></trkpt><trkpt lat="45.884445510468666" lon="10.974943774279206"><ele>1343.0</ele><time>2026-04-04T12:53:03Z</time></trkpt><trkpt lat="45.88437077310126" lon="10.974887004901001"><ele>1343.0</ele><time>2026-04-04T12:53:05Z</time></trkpt><trkpt lat="45.8842744943036" lon="10.974799318501239"><ele>1348.8000000000002</ele><time>2026-04-04T12:53:07Z</time></trkpt><trkpt lat="45.88420201004465" lon="10.974740065905594"><ele>1354.6</ele><time>2026-04-04T12:53:09Z</time></trkpt><trkpt lat="45.884118630442124" lon="10.974755236705358"><ele>1360.4</ele><time>2026-04-04T12:53:11Z</time></trkpt><trkpt lat="45.884033583046225" lon="10.974712726037623"><ele>1366.1999999999998</ele><time>2026-04-04T12:53:13Z</time></trkpt><trkpt lat="45.88391121620612" lon="10.974664717350127"><ele>1372.0</ele><time>2026-04-04T12:53:15Z</time></trkpt><trkpt lat="45.883764525572275" lon="10.974545670949738"><ele>1372.0</ele><time>2026-04-04T12:53:17Z</time></trkpt><trkpt lat="45.883665302464834" lon="10.974532818675247"><ele>1372.0</ele><time>2026-04-04T12:53:18Z</time></trkpt><trkpt lat="45.88357722037388" lon="10.974450092149011"><ele>1372.0</ele><time>2026-04-04T12:53:19Z</time></trkpt><trkpt lat="45.88349101609364" lon="10.974433100630106"><ele>1372.0</ele><time>2026-04-04T12:53:21Z</time></trkpt><trkpt lat="45.88342237757253" lon="10.974389899696419"><ele>1372.0</ele><time>2026-04-04T12:53:23Z</time></trkpt><trkpt lat="45.88335430912053" lon="10.97437668005983"><ele>1372.0</ele><time>2026-04-04T12:53:27Z</time></trkpt><trkpt lat="45.8832704641034" lon="10.974346320533437"><ele>1372.1666666666665</ele><time>2026-04-04T12:53:29Z</time></trkpt><trkpt lat="45.883177057347034" lon="10.974306095715278"><ele>1372.3333333333333</ele><time>2026-04-04T12:53:31Z</time></trkpt><trkpt lat="45.88325018406886" lon="10.974217138427647"><ele>1372.5</ele><time>2026-04-04T12:53:51Z</time></trkpt><trkpt lat="45.88323565962542" lon="10.974099150155817"><ele>1372.6666666666667</ele><time>2026-04-04T12:53:53Z</time></trkpt><trkpt lat="45.883215177709914" lon="10.974000376593136"><ele>1372.8333333333335</ele><time>2026-04-04T12:53:55Z</time></trkpt><trkpt lat="45.88318721253382" lon="10.973910947373582"><ele>1373.0</ele><time>2026-04-04T12:54:57Z</time></trkpt><trkpt lat="45.88325017225029" lon="10.973839801106402"><ele>1373.0</ele><time>2026-04-04T12:55:43Z</time></trkpt><trkpt lat="45.88319361405987" lon="10.973901936624946"><ele>1373.0</ele><time>2026-04-04T12:57:09Z</time></trkpt><trkpt lat="45.88325574953348" lon="10.973973773522351"><ele>1373.0</ele><time>2026-04-04T12:57:43Z</time></trkpt><trkpt lat="45.883222516617685" lon="10.974061576049086"><ele>1373.0</ele><time>2026-04-04T12:59:28Z</time></trkpt><trkpt lat="45.88319382778976" lon="10.974148782930031"><ele>1373.0</ele><time>2026-04-04T13:00:02Z</time></trkpt><trkpt lat="45.88323404605549" lon="10.974241724834794"><ele>1373.0</ele><time>2026-04-04T13:00:05Z</time></trkpt><trkpt lat="45.883137823693396" lon="10.974255581620918"><ele>1373.0</ele><time>2026-04-04T13:00:27Z</time></trkpt><trkpt lat="45.88305579250568" lon="10.9742515416549"><ele>1373.0</ele><time>2026-04-04T13:00:29Z</time></trkpt><trkpt lat="45.88295845116765" lon="10.974198419366397"><ele>1373.0</ele><time>2026-04-04T13:00:32Z</time></trkpt><trkpt lat="45.88290927099085" lon="10.974140086195645"><ele>1373.0</ele><time>2026-04-04T13:00:34Z</time></trkpt><trkpt lat="45.88282029295188" lon="10.974131968210084"><ele>1373.0</ele><time>2026-04-04T13:00:36Z</time></trkpt><trkpt lat="45.88274090464476" lon="10.974157313295528"><ele>1373.0</ele><time>2026-04-04T13:00:39Z</time></trkpt><trkpt lat="45.8826745814259" lon="10.974198455602846"><ele>1373.0</ele><time>2026-04-04T13:00:45Z</time></trkpt><trkpt lat="45.88260102093544" lon="10.97420501398293"><ele>1373.0</ele><time>2026-04-04T13:00:50Z</time></trkpt><trkpt lat="45.882532917692" lon="10.974171870255718"><ele>1373.0</ele><time>2026-04-04T13:00:54Z</time></trkpt><trkpt lat="45.88247216276837" lon="10.974134236812777"><ele>1373.0</ele><time>2026-04-04T13:00:58Z</time></trkpt><trkpt lat="45.882413438502" lon="10.974085472190712"><ele>1373.0</ele><time>2026-04-04T13:01:17Z</time></trkpt><trkpt lat="45.88234840403574" lon="10.974104497316143"><ele>1373.0</ele><time>2026-04-04T13:01:38Z</time></trkpt><trkpt lat="45.88241483090736" lon="10.974144619543987"><ele>1373.0</ele><time>2026-04-04T13:01:59Z</time></trkpt><trkpt lat="45.882496555382126" lon="10.974213038723452"><ele>1373.0</ele><time>2026-04-04T13:02:03Z</time></trkpt><trkpt lat="45.88258150899772" lon="10.97424402714705"><ele>1373.0</ele><time>2026-04-04T13:02:17Z</time></trkpt><trkpt lat="45.88265254509825" lon="10.974298066382682"><ele>1373.0</ele><time>2026-04-04T13:02:22Z</time></trkpt><trkpt lat="45.88271788222739" lon="10.974265251055158"><ele>1373.0</ele><time>2026-04-04T13:02:24Z</time></trkpt><trkpt lat="45.882785201333164" lon="10.974222988808245"><ele>1373.0</ele><time>2026-04-04T13:02:27Z</time></trkpt><trkpt lat="45.88288472825931" lon="10.974238675828675"><ele>1373.0</ele><time>2026-04-04T13:02:30Z</time></trkpt><trkpt lat="45.88293954033019" lon="10.974286494256464"><ele>1373.0</ele><time>2026-04-04T13:02:31Z</time></trkpt><trkpt lat="45.88305715219955" lon="10.974312367404586"><ele>1373.0</ele><time>2026-04-04T13:02:33Z</time></trkpt><trkpt lat="45.883146623510925" lon="10.974351081360478"><ele>1373.0</ele><time>2026-04-04T13:02:35Z</time></trkpt><trkpt lat="45.88326243556972" lon="10.97438420116583"><ele>1373.0</ele><time>2026-04-04T13:02:37Z</time></trkpt><trkpt lat="45.8833592106472" lon="10.97441546227915"><ele>1373.0</ele><time>2026-04-04T13:02:39Z</time></trkpt><trkpt lat="45.88343821050793" lon="10.97447029008554"><ele>1372.8000000000002</ele><time>2026-04-04T13:02:41Z</time></trkpt><trkpt lat="45.883551506392976" lon="10.974549186697821"><ele>1372.6</ele><time>2026-04-04T13:02:43Z</time></trkpt><trkpt lat="45.88364532133328" lon="10.974594858837044"><ele>1372.4</ele><time>2026-04-04T13:02:44Z</time></trkpt><trkpt lat="45.88372794367841" lon="10.97465470944401"><ele>1372.1999999999998</ele><time>2026-04-04T13:02:45Z</time></trkpt><trkpt lat="45.88380350600489" lon="10.974669034069404"><ele>1372.0</ele><time>2026-04-04T13:02:46Z</time></trkpt><trkpt lat="45.88392100355656" lon="10.974677107172601"><ele>1372.0</ele><time>2026-04-04T13:02:48Z</time></trkpt><trkpt lat="45.883985658020485" lon="10.974758714468175"><ele>1372.0</ele><time>2026-04-04T13:02:50Z</time></trkpt><trkpt lat="45.88408234825693" lon="10.974821526703494"><ele>1372.0</ele><time>2026-04-04T13:02:52Z</time></trkpt><trkpt lat="45.884184172850006" lon="10.974757849062083"><ele>1372.0</ele><time>2026-04-04T13:02:54Z</time></trkpt><trkpt lat="45.88425342607527" lon="10.974839302514205"><ele>1372.0</ele><time>2026-04-04T13:02:56Z</time></trkpt><trkpt lat="45.8843184156295" lon="10.974922239057644"><ele>1371.6666666666665</ele><time>2026-04-04T13:02:58Z</time></trkpt><trkpt lat="45.884386775848505" lon="10.974945824476873"><ele>1371.3333333333333</ele><time>2026-04-04T13:02:59Z</time></trkpt><trkpt lat="45.88444319331347" lon="10.974999507486357"><ele>1371.0</ele><time>2026-04-04T13:03:00Z</time></trkpt><trkpt lat="45.88452286284746" lon="10.975113240358393"><ele>1370.6666666666667</ele><time>2026-04-04T13:03:02Z</time></trkpt><trkpt lat="45.88457918952683" lon="10.975175221560987"><ele>1370.3333333333335</ele><time>2026-04-04T13:03:03Z</time></trkpt><trkpt lat="45.884652340235824" lon="10.975196058687098"><ele>1370.0</ele><time>2026-04-04T13:03:04Z</time></trkpt><trkpt lat="45.88471621052705" lon="10.975232664985148"><ele>1366.6666666666667</ele><time>2026-04-04T13:03:05Z</time></trkpt><trkpt lat="45.884819856348884" lon="10.975296079053454"><ele>1363.3333333333335</ele><time>2026-04-04T13:03:07Z</time></trkpt><trkpt lat="45.88488166498756" lon="10.975327502659203"><ele>1360.0</ele><time>2026-04-04T13:03:08Z</time></trkpt><trkpt lat="45.88494148699583" lon="10.975388454410187"><ele>1356.6666666666667</ele><time>2026-04-04T13:03:09Z</time></trkpt><trkpt lat="45.8850145918379" lon="10.975448968193803"><ele>1353.3333333333333</ele><time>2026-04-04T13:03:11Z</time></trkpt><trkpt lat="45.88510980560978" lon="10.97543647392312"><ele>1350.0</ele><time>2026-04-04T13:03:13Z</time></trkpt><trkpt lat="45.88521161037362" lon="10.975441469304482"><ele>1350.0</ele><time>2026-04-04T13:03:15Z</time></trkpt><trkpt lat="45.88526618736954" lon="10.975545404710587"><ele>1350.0</ele><time>2026-04-04T13:03:18Z</time></trkpt><trkpt lat="45.88532843938247" lon="10.975573941305074"><ele>1350.0</ele><time>2026-04-04T13:03:20Z</time></trkpt><trkpt lat="45.88543509293194" lon="10.975512326997707"><ele>1350.0</ele><time>2026-04-04T13:03:22Z</time></trkpt><trkpt lat="45.885524807799655" lon="10.975564548051892"><ele>1350.0</ele><time>2026-04-04T13:03:24Z</time></trkpt><trkpt lat="45.88561259527416" lon="10.975596375318572"><ele>1350.0</ele><time>2026-04-04T13:03:26Z</time></trkpt><trkpt lat="45.88571252975201" lon="10.975588708586303"><ele>1350.0</ele><time>2026-04-04T13:03:29Z</time></trkpt><trkpt lat="45.885779019159855" lon="10.975669785715489"><ele>1350.0</ele><time>2026-04-04T13:03:32Z</time></trkpt><trkpt lat="45.88578696273526" lon="10.975781512601358"><ele>1350.0</ele><time>2026-04-04T13:03:34Z</time></trkpt><trkpt lat="45.88585398613448" lon="10.975727808814357"><ele>1350.0</ele><time>2026-04-04T13:03:37Z</time></trkpt><trkpt lat="45.88590258572082" lon="10.975659116795514"><ele>1350.0</ele><time>2026-04-04T13:03:39Z</time></trkpt><trkpt lat="45.88599112198184" lon="10.975599470896633"><ele>1350.0</ele><time>2026-04-04T13:03:41Z</time></trkpt><trkpt lat="45.88607462160352" lon="10.975567728815781"><ele>1350.0</ele><time>2026-04-04T13:08:48Z</time></trkpt><trkpt lat="45.88599499942994" lon="10.97562891489017"><ele>1350.0</ele><time>2026-04-04T13:09:01Z</time></trkpt><trkpt lat="45.88592335773798" lon="10.975681976794279"><ele>1350.0</ele><time>2026-04-04T13:09:03Z</time></trkpt><trkpt lat="45.88586189527254" lon="10.975710344266625"><ele>1350.0</ele><time>2026-04-04T13:09:25Z</time></trkpt><trkpt lat="45.88581445195251" lon="10.97559916927097"><ele>1350.0</ele><time>2026-04-04T13:09:29Z</time></trkpt><trkpt lat="45.88573602913361" lon="10.975613472844085"><ele>1350.0</ele><time>2026-04-04T13:09:32Z</time></trkpt><trkpt lat="45.885659201452164" lon="10.975607127868788"><ele>1350.0</ele><time>2026-04-04T13:09:34Z</time></trkpt><trkpt lat="45.88558750991129" lon="10.975535717465178"><ele>1350.0</ele><time>2026-04-04T13:09:37Z</time></trkpt><trkpt lat="45.885517907782926" lon="10.975521881861171"><ele>1350.0</ele><time>2026-04-04T13:09:39Z</time></trkpt><trkpt lat="45.88542349093695" lon="10.975516667250089"><ele>1350.0</ele><time>2026-04-04T13:09:42Z</time></trkpt><trkpt lat="45.885347033926244" lon="10.975488648685037"><ele>1350.0</ele><time>2026-04-04T13:09:44Z</time></trkpt><trkpt lat="45.88526493845363" lon="10.97548083349205"><ele>1350.0</ele><time>2026-04-04T13:09:46Z</time></trkpt><trkpt lat="45.885243927400694" lon="10.975581069677506"><ele>1350.0</ele><time>2026-04-04T13:09:49Z</time></trkpt><trkpt lat="45.8852595374872" lon="10.975699748868987"><ele>1350.0</ele><time>2026-04-04T13:09:56Z</time></trkpt><trkpt lat="45.885212419033415" lon="10.975815062122997"><ele>1350.0</ele><time>2026-04-04T13:09:58Z</time></trkpt><trkpt lat="45.88513471132019" lon="10.975875379843835"><ele>1350.0</ele><time>2026-04-04T13:10:00Z</time></trkpt><trkpt lat="45.885073290733835" lon="10.975900068209036"><ele>1350.0</ele><time>2026-04-04T13:10:01Z</time></trkpt><trkpt lat="45.88497955673825" lon="10.975934453367529"><ele>1342.8</ele><time>2026-04-04T13:10:01.999Z</time></trkpt><trkpt lat="45.884892771367674" lon="10.976013630327541"><ele>1335.6</ele><time>2026-04-04T13:10:03.999Z</time></trkpt><trkpt lat="45.884819647992735" lon="10.976025828394652"><ele>1328.4</ele><time>2026-04-04T13:10:04.999Z</time></trkpt><trkpt lat="45.8847461139104" lon="10.9760354817779"><ele>1321.2</ele><time>2026-04-04T13:10:05.999Z</time></trkpt><trkpt lat="45.88463660968176" lon="10.976067972772768"><ele>1314.0</ele><time>2026-04-04T13:10:07.999Z</time></trkpt><trkpt lat="45.884538573999855" lon="10.976142935522763"><ele>1314.0</ele><time>2026-04-04T13:10:11.999Z</time></trkpt><trkpt lat="45.88442556521777" lon="10.976126099733698"><ele>1314.0</ele><time>2026-04-04T13:10:17.999Z</time></trkpt><trkpt lat="45.88432614344052" lon="10.976092772441497"><ele>1314.0</ele><time>2026-04-04T13:10:18.999Z</time></trkpt><trkpt lat="45.88423514149551" lon="10.97606485867782"><ele>1314.0</ele><time>2026-04-04T13:10:19.999Z</time></trkpt><trkpt lat="45.88414794782145" lon="10.976021203854842"><ele>1314.0</ele><time>2026-04-04T13:10:20.999Z</time></trkpt><trkpt lat="45.884044922178276" lon="10.975979184091829"><ele>1314.0</ele><time>2026-04-04T13:10:22.999Z</time></trkpt><trkpt lat="45.88408157612963" lon="10.976067344886221"><ele>1314.0</ele><time>2026-04-04T13:10:26Z</time></trkpt><trkpt lat="45.88416157980629" lon="10.976132069922823"><ele>1314.0</ele><time>2026-04-04T13:10:27Z</time></trkpt><trkpt lat="45.88422419600091" lon="10.976198441693622"><ele>1314.0</ele><time>2026-04-04T13:10:28Z</time></trkpt><trkpt lat="45.884270285436486" lon="10.97627228828324"><ele>1314.0</ele><time>2026-04-04T13:10:29Z</time></trkpt><trkpt lat="45.88431588836639" lon="10.976340907598562"><ele>1314.0</ele><time>2026-04-04T13:10:30Z</time></trkpt><trkpt lat="45.88436306017966" lon="10.976451528754211"><ele>1314.0</ele><time>2026-04-04T13:10:32Z</time></trkpt><trkpt lat="45.8843051560662" lon="10.97652823603431"><ele>1314.0</ele><time>2026-04-04T13:10:35Z</time></trkpt><trkpt lat="45.88418849174968" lon="10.976526909225118"><ele>1314.0</ele><time>2026-04-04T13:10:37Z</time></trkpt><trkpt lat="45.88410290786018" lon="10.976540591698509"><ele>1314.0</ele><time>2026-04-04T13:10:38Z</time></trkpt><trkpt lat="45.88398733379067" lon="10.976523594327178"><ele>1314.0</ele><time>2026-04-04T13:10:39Z</time></trkpt><trkpt lat="45.883881443881016" lon="10.976520229718668"><ele>1312.8333333333333</ele><time>2026-04-04T13:10:40Z</time></trkpt><trkpt lat="45.88379542722352" lon="10.976492078122012"><ele>1311.6666666666667</ele><time>2026-04-04T13:10:41Z</time></trkpt><trkpt lat="45.883729506639796" lon="10.976520477636834"><ele>1310.5</ele><time>2026-04-04T13:10:42Z</time></trkpt><trkpt lat="45.883646397688864" lon="10.976495402400438"><ele>1309.3333333333335</ele><time>2026-04-04T13:10:44Z</time></trkpt><trkpt lat="45.883539325361525" lon="10.976512700561097"><ele>1308.1666666666667</ele><time>2026-04-04T13:11:08Z</time></trkpt><trkpt lat="45.88344729878636" lon="10.976533770097205"><ele>1307.0</ele><time>2026-04-04T13:11:09Z</time></trkpt><trkpt lat="45.88335759046773" lon="10.976546493569101"><ele>1305.5</ele><time>2026-04-04T13:11:10Z</time></trkpt><trkpt lat="45.8832673301778" lon="10.976529941606545"><ele>1304.0</ele><time>2026-04-04T13:11:11Z</time></trkpt><trkpt lat="45.88315176138838" lon="10.976477646307535"><ele>1302.5</ele><time>2026-04-04T13:11:12Z</time></trkpt><trkpt lat="45.88300866830345" lon="10.976458378021412"><ele>1301.0</ele><time>2026-04-04T13:11:13Z</time></trkpt><trkpt lat="45.88287919762052" lon="10.976400865145239"><ele>1301.0</ele><time>2026-04-04T13:11:14Z</time></trkpt><trkpt lat="45.88276374471207" lon="10.97635583230106"><ele>1301.0</ele><time>2026-04-04T13:11:15Z</time></trkpt><trkpt lat="45.882667672909896" lon="10.976323753794135"><ele>1301.0</ele><time>2026-04-04T13:11:16Z</time></trkpt><trkpt lat="45.88257547674611" lon="10.976343424476948"><ele>1301.0</ele><time>2026-04-04T13:11:17Z</time></trkpt><trkpt lat="45.8824866069602" lon="10.976376524706284"><ele>1301.0</ele><time>2026-04-04T13:11:18Z</time></trkpt><trkpt lat="45.882418377661445" lon="10.976400359645412"><ele>1301.0</ele><time>2026-04-04T13:11:19Z</time></trkpt><trkpt lat="45.882299691470564" lon="10.976363839165932"><ele>1301.0</ele><time>2026-04-04T13:11:20Z</time></trkpt><trkpt lat="45.882202105449025" lon="10.976352446753719"><ele>1301.0</ele><time>2026-04-04T13:11:21Z</time></trkpt><trkpt lat="45.882088229152636" lon="10.97633378459316"><ele>1301.0</ele><time>2026-04-04T13:11:22Z</time></trkpt><trkpt lat="45.88201243854308" lon="10.976310796498993"><ele>1301.0</ele><time>2026-04-04T13:11:23Z</time></trkpt><trkpt lat="45.881909119316106" lon="10.976228130596878"><ele>1301.0</ele><time>2026-04-04T13:11:24Z</time></trkpt><trkpt lat="45.8818074401174" lon="10.976236679829645"><ele>1301.0</ele><time>2026-04-04T13:11:25Z</time></trkpt><trkpt lat="45.88171045612177" lon="10.976203749099497"><ele>1301.0</ele><time>2026-04-04T13:11:26Z</time></trkpt><trkpt lat="45.881619323199864" lon="10.976192483656085"><ele>1301.0</ele><time>2026-04-04T13:11:27Z</time></trkpt><trkpt lat="45.881513295074996" lon="10.976179070235686"><ele>1301.0</ele><time>2026-04-04T13:11:28Z</time></trkpt><trkpt lat="45.88142690573892" lon="10.976120060941431"><ele>1298.8</ele><time>2026-04-04T13:11:29Z</time></trkpt><trkpt lat="45.88131170978341" lon="10.976074297081828"><ele>1296.6</ele><time>2026-04-04T13:11:30Z</time></trkpt><trkpt lat="45.8812035868839" lon="10.97602420199058"><ele>1294.4</ele><time>2026-04-04T13:11:31Z</time></trkpt><trkpt lat="45.88110423148726" lon="10.975984357388331"><ele>1292.2</ele><time>2026-04-04T13:11:32Z</time></trkpt><trkpt lat="45.8810418869399" lon="10.97596276549076"><ele>1290.0</ele><time>2026-04-04T13:11:33Z</time></trkpt><trkpt lat="45.88096498256099" lon="10.975894245225298"><ele>1289.6666666666667</ele><time>2026-04-04T13:11:34Z</time></trkpt><trkpt lat="45.88079073345917" lon="10.975835864830177"><ele>1289.3333333333335</ele><time>2026-04-04T13:11:35Z</time></trkpt><trkpt lat="45.880642323286345" lon="10.975798271367859"><ele>1289.0</ele><time>2026-04-04T13:11:36Z</time></trkpt><trkpt lat="45.880500563623755" lon="10.97576233409896"><ele>1289.0</ele><time>2026-04-04T13:11:37Z</time></trkpt><trkpt lat="45.88037647049108" lon="10.975721914214267"><ele>1289.0</ele><time>2026-04-04T13:11:38Z</time></trkpt><trkpt lat="45.88025739190286" lon="10.975671768759959"><ele>1289.0</ele><time>2026-04-04T13:11:39Z</time></trkpt><trkpt lat="45.88013027146909" lon="10.975615505056858"><ele>1289.0</ele><time>2026-04-04T13:11:40Z</time></trkpt><trkpt lat="45.87999587963551" lon="10.975571745210548"><ele>1283.6666666666667</ele><time>2026-04-04T13:11:41Z</time></trkpt><trkpt lat="45.87983202951954" lon="10.975519316476989"><ele>1278.3333333333333</ele><time>2026-04-04T13:11:42Z</time></trkpt><trkpt lat="45.8796698090838" lon="10.975461090873278"><ele>1273.0</ele><time>2026-04-04T13:11:43Z</time></trkpt><trkpt lat="45.879515188431405" lon="10.975404828967715"><ele>1273.0</ele><time>2026-04-04T13:11:44Z</time></trkpt><trkpt lat="45.87937265223045" lon="10.975350445276032"><ele>1273.0</ele><time>2026-04-04T13:11:45Z</time></trkpt><trkpt lat="45.87924087119109" lon="10.975318994293886"><ele>1273.0</ele><time>2026-04-04T13:11:46Z</time></trkpt><trkpt lat="45.87911509615245" lon="10.97530051499774"><ele>1273.0</ele><time>2026-04-04T13:11:47Z</time></trkpt><trkpt lat="45.879000210460994" lon="10.975281262738665"><ele>1271.5</ele><time>2026-04-04T13:11:48Z</time></trkpt><trkpt lat="45.87888280249121" lon="10.97525431322234"><ele>1270.0</ele><time>2026-04-04T13:11:49Z</time></trkpt><trkpt lat="45.878766312018215" lon="10.975223446660088"><ele>1268.5</ele><time>2026-04-04T13:11:50Z</time></trkpt><trkpt lat="45.878650160207094" lon="10.975201653111087"><ele>1267.0</ele><time>2026-04-04T13:11:51Z</time></trkpt><trkpt lat="45.87853835080175" lon="10.975160207371893"><ele>1264.8</ele><time>2026-04-04T13:11:52Z</time></trkpt><trkpt lat="45.878434202062756" lon="10.975123822454304"><ele>1262.6</ele><time>2026-04-04T13:11:53Z</time></trkpt><trkpt lat="45.878332346405" lon="10.975132344234401"><ele>1260.3999999999999</ele><time>2026-04-04T13:11:54Z</time></trkpt><trkpt lat="45.87822964664346" lon="10.975122769692842"><ele>1258.2</ele><time>2026-04-04T13:11:55Z</time></trkpt><trkpt lat="45.87812644099867" lon="10.975095061965963"><ele>1256.0</ele><time>2026-04-04T13:11:56Z</time></trkpt><trkpt lat="45.87800623071314" lon="10.975069825906433"><ele>1256.0</ele><time>2026-04-04T13:11:57Z</time></trkpt><trkpt lat="45.87789572557772" lon="10.975042188481035"><ele>1256.0</ele><time>2026-04-04T13:11:58Z</time></trkpt><trkpt lat="45.877817778178795" lon="10.975011767296735"><ele>1256.0</ele><time>2026-04-04T13:11:59Z</time></trkpt><trkpt lat="45.877755437246726" lon="10.974985112093975"><ele>1256.0</ele><time>2026-04-04T13:12:00Z</time></trkpt><trkpt lat="45.877663635027474" lon="10.974968646884669"><ele>1256.0</ele><time>2026-04-04T13:12:01Z</time></trkpt><trkpt lat="45.87759275201713" lon="10.97488947401683"><ele>1256.0</ele><time>2026-04-04T13:12:02Z</time></trkpt><trkpt lat="45.877520191972565" lon="10.974809403380139"><ele>1256.6</ele><time>2026-04-04T13:12:03Z</time></trkpt><trkpt lat="45.87745405650801" lon="10.974727040723627"><ele>1257.1999999999998</ele><time>2026-04-04T13:12:04Z</time></trkpt><trkpt lat="45.87736404355289" lon="10.974671921094233"><ele>1257.8000000000002</ele><time>2026-04-04T13:12:05Z</time></trkpt><trkpt lat="45.87725164680291" lon="10.97460045071357"><ele>1258.4</ele><time>2026-04-04T13:12:06Z</time></trkpt><trkpt lat="45.87715309473174" lon="10.974552192234146"><ele>1259.0</ele><time>2026-04-04T13:12:07Z</time></trkpt><trkpt lat="45.877068776668814" lon="10.974486100454342"><ele>1259.0</ele><time>2026-04-04T13:12:07.999Z</time></trkpt><trkpt lat="45.87697402342221" lon="10.974467530911134"><ele>1259.0</ele><time>2026-04-04T13:12:08.999Z</time></trkpt><trkpt lat="45.87691547236467" lon="10.974400136778215"><ele>1259.0</ele><time>2026-04-04T13:12:09.999Z</time></trkpt><trkpt lat="45.87684152978764" lon="10.974340225568518"><ele>1259.0</ele><time>2026-04-04T13:12:10.999Z</time></trkpt><trkpt lat="45.876776028694856" lon="10.974314043435081"><ele>1259.0</ele><time>2026-04-04T13:12:11.999Z</time></trkpt><trkpt lat="45.87672823237881" lon="10.974250558636546"><ele>1259.0</ele><time>2026-04-04T13:12:12.999Z</time></trkpt><trkpt lat="45.87667164497264" lon="10.97420971551428"><ele>1258.8</ele><time>2026-04-04T13:12:13.999Z</time></trkpt><trkpt lat="45.87661812162286" lon="10.974149852632136"><ele>1258.6000000000001</ele><time>2026-04-04T13:12:14.999Z</time></trkpt><trkpt lat="45.876546809410506" lon="10.974045873407327"><ele>1258.4</ele><time>2026-04-04T13:12:15.999Z</time></trkpt><trkpt lat="45.8764938387281" lon="10.973932432032628"><ele>1258.2</ele><time>2026-04-04T13:12:16.999Z</time></trkpt><trkpt lat="45.87642153584876" lon="10.973826001213808"><ele>1258.0</ele><time>2026-04-04T13:12:17.999Z</time></trkpt><trkpt lat="45.87634566189981" lon="10.97371517573102"><ele>1258.0</ele><time>2026-04-04T13:12:18.999Z</time></trkpt><trkpt lat="45.87630296937368" lon="10.973568685710518"><ele>1258.0</ele><time>2026-04-04T13:12:19.999Z</time></trkpt><trkpt lat="45.87625715203694" lon="10.973488124158745"><ele>1258.0</ele><time>2026-04-04T13:12:20.999Z</time></trkpt><trkpt lat="45.87620560596123" lon="10.973404644114165"><ele>1258.0</ele><time>2026-04-04T13:12:21.999Z</time></trkpt><trkpt lat="45.876124083213845" lon="10.973283584487415"><ele>1258.0</ele><time>2026-04-04T13:12:22.999Z</time></trkpt><trkpt lat="45.876072039074025" lon="10.973145091066268"><ele>1260.0</ele><time>2026-04-04T13:12:23.999Z</time></trkpt><trkpt lat="45.876024962758585" lon="10.973015217271005"><ele>1262.0</ele><time>2026-04-04T13:12:24.999Z</time></trkpt><trkpt lat="45.875943762444734" lon="10.972920411633881"><ele>1264.0</ele><time>2026-04-04T13:12:25.999Z</time></trkpt><trkpt lat="45.87585313280132" lon="10.972824392548024"><ele>1266.0</ele><time>2026-04-04T13:12:26.999Z</time></trkpt><trkpt lat="45.87576401907331" lon="10.972728997096532"><ele>1268.0</ele><time>2026-04-04T13:12:27.999Z</time></trkpt><trkpt lat="45.875678102292824" lon="10.972641558575452"><ele>1265.4</ele><time>2026-04-04T13:12:28.999Z</time></trkpt><trkpt lat="45.875607173700594" lon="10.97256030144041"><ele>1262.8</ele><time>2026-04-04T13:12:29.999Z</time></trkpt><trkpt lat="45.87552934174328" lon="10.972479329823871"><ele>1260.2</ele><time>2026-04-04T13:12:31Z</time></trkpt><trkpt lat="45.8754403239369" lon="10.972414681564464"><ele>1257.6</ele><time>2026-04-04T13:12:32Z</time></trkpt><trkpt lat="45.87534138533811" lon="10.972337267240135"><ele>1255.0</ele><time>2026-04-04T13:12:33Z</time></trkpt><trkpt lat="45.87525076662506" lon="10.97230977637162"><ele>1255.0</ele><time>2026-04-04T13:12:34Z</time></trkpt><trkpt lat="45.87515021437048" lon="10.972278787288259"><ele>1255.0</ele><time>2026-04-04T13:12:35Z</time></trkpt><trkpt lat="45.875074437414185" lon="10.97222548048571"><ele>1255.0</ele><time>2026-04-04T13:12:36Z</time></trkpt><trkpt lat="45.87500849426989" lon="10.972136885467837"><ele>1255.0</ele><time>2026-04-04T13:12:37Z</time></trkpt><trkpt lat="45.87495185933185" lon="10.972026046161782"><ele>1255.0</ele><time>2026-04-04T13:12:38Z</time></trkpt><trkpt lat="45.874906511020434" lon="10.971898187941017"><ele>1252.8</ele><time>2026-04-04T13:12:39Z</time></trkpt><trkpt lat="45.8748778306393" lon="10.97177278320217"><ele>1250.6</ele><time>2026-04-04T13:12:40Z</time></trkpt><trkpt lat="45.87484794428409" lon="10.971645412940665"><ele>1248.4</ele><time>2026-04-04T13:12:41Z</time></trkpt><trkpt lat="45.874817655457186" lon="10.971509498641078"><ele>1246.2</ele><time>2026-04-04T13:12:42Z</time></trkpt><trkpt lat="45.87478785478968" lon="10.97137663797773"><ele>1244.0</ele><time>2026-04-04T13:12:43Z</time></trkpt><trkpt lat="45.874759888131244" lon="10.971242488056387"><ele>1244.0</ele><time>2026-04-04T13:12:44Z</time></trkpt><trkpt lat="45.87473858797568" lon="10.97110283863429"><ele>1244.0</ele><time>2026-04-04T13:12:45Z</time></trkpt><trkpt lat="45.874729307353874" lon="10.970979753465507"><ele>1244.0</ele><time>2026-04-04T13:12:46Z</time></trkpt><trkpt lat="45.87472655176749" lon="10.97085584026162"><ele>1244.0</ele><time>2026-04-04T13:12:47Z</time></trkpt><trkpt lat="45.87474686554454" lon="10.970705228336481"><ele>1244.0</ele><time>2026-04-04T13:12:48Z</time></trkpt><trkpt lat="45.87475405802757" lon="10.970517647969531"><ele>1243.0</ele><time>2026-04-04T13:12:49Z</time></trkpt><trkpt lat="45.874755871641014" lon="10.970334657804294"><ele>1242.0</ele><time>2026-04-04T13:12:50Z</time></trkpt><trkpt lat="45.874737563316955" lon="10.97015823226216"><ele>1241.0</ele><time>2026-04-04T13:12:51Z</time></trkpt><trkpt lat="45.87472700142104" lon="10.969987510071018"><ele>1240.0</ele><time>2026-04-04T13:12:52Z</time></trkpt><trkpt lat="45.874711448901486" lon="10.969842633262012"><ele>1238.6666666666665</ele><time>2026-04-04T13:12:53Z</time></trkpt><trkpt lat="45.87469261604696" lon="10.96971819898265"><ele>1237.3333333333333</ele><time>2026-04-04T13:12:54Z</time></trkpt><trkpt lat="45.87468457808384" lon="10.969581352648541"><ele>1236.0</ele><time>2026-04-04T13:12:56Z</time></trkpt><trkpt lat="45.874741560427715" lon="10.969479091717572"><ele>1234.6666666666667</ele><time>2026-04-04T13:12:58Z</time></trkpt><trkpt lat="45.87479722003531" lon="10.96943202556536"><ele>1233.3333333333335</ele><time>2026-04-04T13:12:59Z</time></trkpt><trkpt lat="45.8748538706741" lon="10.969366561771347"><ele>1232.0</ele><time>2026-04-04T13:13:00Z</time></trkpt><trkpt lat="45.874923398285844" lon="10.969317394408238"><ele>1232.0</ele><time>2026-04-04T13:13:01Z</time></trkpt><trkpt lat="45.87500039943641" lon="10.969298529172189"><ele>1232.0</ele><time>2026-04-04T13:13:02Z</time></trkpt><trkpt lat="45.8750769011488" lon="10.969264718151619"><ele>1232.0</ele><time>2026-04-04T13:13:03Z</time></trkpt><trkpt lat="45.87514035318216" lon="10.96918474679921"><ele>1232.0</ele><time>2026-04-04T13:13:04Z</time></trkpt><trkpt lat="45.8752001300491" lon="10.969059038213498"><ele>1232.0</ele><time>2026-04-04T13:13:05Z</time></trkpt><trkpt lat="45.87524200983362" lon="10.968936612843297"><ele>1232.0</ele><time>2026-04-04T13:13:06Z</time></trkpt><trkpt lat="45.87525758068931" lon="10.968829233568549"><ele>1232.5</ele><time>2026-04-04T13:13:07Z</time></trkpt><trkpt lat="45.875256459919704" lon="10.968698751320055"><ele>1233.0</ele><time>2026-04-04T13:13:08Z</time></trkpt><trkpt lat="45.87527148806906" lon="10.96858337209822"><ele>1233.5</ele><time>2026-04-04T13:13:09Z</time></trkpt><trkpt lat="45.875307361249796" lon="10.968484491287322"><ele>1234.0</ele><time>2026-04-04T13:13:10Z</time></trkpt><trkpt lat="45.87536915712899" lon="10.968422247987727"><ele>1234.5</ele><time>2026-04-04T13:13:11Z</time></trkpt><trkpt lat="45.87548071404563" lon="10.968406281113644"><ele>1235.0</ele><time>2026-04-04T13:13:13Z</time></trkpt><trkpt lat="45.875553904707395" lon="10.968443552280727"><ele>1235.0</ele><time>2026-04-04T13:13:14Z</time></trkpt><trkpt lat="45.87562741946971" lon="10.968485841546233"><ele>1235.0</ele><time>2026-04-04T13:13:15Z</time></trkpt><trkpt lat="45.87572046228676" lon="10.96846220871538"><ele>1235.0</ele><time>2026-04-04T13:13:16Z</time></trkpt><trkpt lat="45.8757997906821" lon="10.968433442410536"><ele>1235.0</ele><time>2026-04-04T13:13:17Z</time></trkpt><trkpt lat="45.87587589417628" lon="10.968342921213699"><ele>1235.0</ele><time>2026-04-04T13:13:18Z</time></trkpt><trkpt lat="45.87594361927567" lon="10.968205846527415"><ele>1240.2</ele><time>2026-04-04T13:13:19Z</time></trkpt><trkpt lat="45.876014821727956" lon="10.9680790811307"><ele>1245.4</ele><time>2026-04-04T13:13:20Z</time></trkpt><trkpt lat="45.87607795345649" lon="10.96795147700043"><ele>1250.6</ele><time>2026-04-04T13:13:21Z</time></trkpt><trkpt lat="45.87611845591095" lon="10.967810672863077"><ele>1255.8</ele><time>2026-04-04T13:13:22Z</time></trkpt><trkpt lat="45.87615591343836" lon="10.967661268731959"><ele>1261.0</ele><time>2026-04-04T13:13:23Z</time></trkpt><trkpt lat="45.87619752775977" lon="10.967509951722608"><ele>1261.0</ele><time>2026-04-04T13:13:24Z</time></trkpt><trkpt lat="45.87624936953573" lon="10.967337555953476"><ele>1261.0</ele><time>2026-04-04T13:13:25Z</time></trkpt><trkpt lat="45.876291115741125" lon="10.967171556076636"><ele>1261.0</ele><time>2026-04-04T13:13:26Z</time></trkpt><trkpt lat="45.876346954009385" lon="10.9670028956474"><ele>1261.0</ele><time>2026-04-04T13:13:27Z</time></trkpt><trkpt lat="45.87639833449134" lon="10.966852044861888"><ele>1261.0</ele><time>2026-04-04T13:13:28Z</time></trkpt><trkpt lat="45.87643406182358" lon="10.966685711408456"><ele>1261.0</ele><time>2026-04-04T13:13:29Z</time></trkpt><trkpt lat="45.876446859466824" lon="10.966514607056485"><ele>1261.0</ele><time>2026-04-04T13:13:30Z</time></trkpt><trkpt lat="45.87645903433944" lon="10.966343987848848"><ele>1261.0</ele><time>2026-04-04T13:13:31Z</time></trkpt><trkpt lat="45.87646643393732" lon="10.966183791267083"><ele>1254.0</ele><time>2026-04-04T13:13:32Z</time></trkpt><trkpt lat="45.876442818929064" lon="10.96601885630942"><ele>1247.0</ele><time>2026-04-04T13:13:33Z</time></trkpt><trkpt lat="45.876411715592894" lon="10.965815478868082"><ele>1240.0</ele><time>2026-04-04T13:13:34Z</time></trkpt><trkpt lat="45.876380229250984" lon="10.965648963714157"><ele>1233.0</ele><time>2026-04-04T13:13:35Z</time></trkpt><trkpt lat="45.87635272550383" lon="10.965476897303173"><ele>1233.0</ele><time>2026-04-04T13:13:36Z</time></trkpt><trkpt lat="45.87628938289014" lon="10.965297837117435"><ele>1233.0</ele><time>2026-04-04T13:13:37Z</time></trkpt><trkpt lat="45.87621979807619" lon="10.96514290938978"><ele>1233.0</ele><time>2026-04-04T13:13:38Z</time></trkpt><trkpt lat="45.87617663405508" lon="10.965021927336673"><ele>1233.0</ele><time>2026-04-04T13:13:39Z</time></trkpt><trkpt lat="45.87616211688657" lon="10.96488484553548"><ele>1233.0</ele><time>2026-04-04T13:13:40Z</time></trkpt><trkpt lat="45.87612289790415" lon="10.964758719586358"><ele>1233.0</ele><time>2026-04-04T13:13:41Z</time></trkpt><trkpt lat="45.876077091056594" lon="10.964639009865316"><ele>1233.0</ele><time>2026-04-04T13:13:42Z</time></trkpt><trkpt lat="45.87604242966959" lon="10.964503478174281"><ele>1233.0</ele><time>2026-04-04T13:13:43Z</time></trkpt><trkpt lat="45.87603294146904" lon="10.964344540270046"><ele>1233.0</ele><time>2026-04-04T13:13:44Z</time></trkpt><trkpt lat="45.876023512567" lon="10.964183336369839"><ele>1233.0</ele><time>2026-04-04T13:13:45Z</time></trkpt><trkpt lat="45.875994569854754" lon="10.964028674257403"><ele>1233.0</ele><time>2026-04-04T13:13:46Z</time></trkpt><trkpt lat="45.87597140001552" lon="10.963864992548046"><ele>1233.0</ele><time>2026-04-04T13:13:47Z</time></trkpt><trkpt lat="45.875964364064444" lon="10.963701439690317"><ele>1233.0</ele><time>2026-04-04T13:13:48Z</time></trkpt><trkpt lat="45.87596005357217" lon="10.963526939315626"><ele>1233.0</ele><time>2026-04-04T13:13:49Z</time></trkpt><trkpt lat="45.87594285523233" lon="10.963374358227098"><ele>1233.0</ele><time>2026-04-04T13:13:50Z</time></trkpt><trkpt lat="45.875919573886044" lon="10.963264366074082"><ele>1233.0</ele><time>2026-04-04T13:13:51Z</time></trkpt><trkpt lat="45.87589196573393" lon="10.963174958213743"><ele>1233.0</ele><time>2026-04-04T13:13:52Z</time></trkpt><trkpt lat="45.87584578444813" lon="10.963099414812657"><ele>1233.0</ele><time>2026-04-04T13:13:53Z</time></trkpt><trkpt lat="45.87578839024785" lon="10.963031188519649"><ele>1233.0</ele><time>2026-04-04T13:13:54Z</time></trkpt><trkpt lat="45.8757457888994" lon="10.962962400413296"><ele>1232.0</ele><time>2026-04-04T13:13:55Z</time></trkpt><trkpt lat="45.87565469516306" lon="10.962883226659526"><ele>1231.0</ele><time>2026-04-04T13:13:57Z</time></trkpt><trkpt lat="45.87557887449696" lon="10.962863023395776"><ele>1230.0</ele><time>2026-04-04T13:13:58Z</time></trkpt><trkpt lat="45.87550981718415" lon="10.962809473505473"><ele>1229.0</ele><time>2026-04-04T13:13:59Z</time></trkpt><trkpt lat="45.87544311285814" lon="10.962835502149083"><ele>1228.0</ele><time>2026-04-04T13:14:01Z</time></trkpt><trkpt lat="45.87534818741782" lon="10.96288226591908"><ele>1227.0</ele><time>2026-04-04T13:14:04Z</time></trkpt><trkpt lat="45.875282665324654" lon="10.962938360703543"><ele>1227.0</ele><time>2026-04-04T13:14:05Z</time></trkpt><trkpt lat="45.87518833190494" lon="10.962998810215698"><ele>1227.0</ele><time>2026-04-04T13:14:06Z</time></trkpt><trkpt lat="45.87511116916273" lon="10.96300111735175"><ele>1227.0</ele><time>2026-04-04T13:14:07Z</time></trkpt><trkpt lat="45.87500092057824" lon="10.962947189684764"><ele>1227.0</ele><time>2026-04-04T13:14:09Z</time></trkpt><trkpt lat="45.87493777069141" lon="10.962926962962399"><ele>1227.0</ele><time>2026-04-04T13:14:10Z</time></trkpt><trkpt lat="45.8748371111381" lon="10.962905964014316"><ele>1225.3333333333333</ele><time>2026-04-04T13:14:11Z</time></trkpt><trkpt lat="45.87474903422727" lon="10.962907884186617"><ele>1223.6666666666667</ele><time>2026-04-04T13:14:12Z</time></trkpt><trkpt lat="45.87467533516617" lon="10.962924861148451"><ele>1222.0</ele><time>2026-04-04T13:14:13Z</time></trkpt><trkpt lat="45.874582139873816" lon="10.962902458927738"><ele>1220.3333333333335</ele><time>2026-04-04T13:14:15Z</time></trkpt><trkpt lat="45.874516440602164" lon="10.962867704793123"><ele>1218.6666666666667</ele><time>2026-04-04T13:14:16Z</time></trkpt><trkpt lat="45.87443835000805" lon="10.962816534972815"><ele>1217.0</ele><time>2026-04-04T13:14:17Z</time></trkpt><trkpt lat="45.8743810178342" lon="10.962776575979863"><ele>1216.8</ele><time>2026-04-04T13:14:18Z</time></trkpt><trkpt lat="45.87426306911745" lon="10.962725965248557"><ele>1216.6</ele><time>2026-04-04T13:14:20Z</time></trkpt><trkpt lat="45.87416419225275" lon="10.962638737858477"><ele>1216.3999999999999</ele><time>2026-04-04T13:14:22Z</time></trkpt><trkpt lat="45.874118775823675" lon="10.962514169500611"><ele>1216.2</ele><time>2026-04-04T13:14:24Z</time></trkpt><trkpt lat="45.87409099796299" lon="10.962425950392108"><ele>1216.0</ele><time>2026-04-04T13:14:26Z</time></trkpt><trkpt lat="45.87400902409186" lon="10.96235532285152"><ele>1216.0</ele><time>2026-04-04T13:14:35.999Z</time></trkpt><trkpt lat="45.873943757489776" lon="10.96235063636315"><ele>1216.0</ele><time>2026-04-04T13:14:38Z</time></trkpt><trkpt lat="45.873910503727885" lon="10.962261065411761"><ele>1216.0</ele><time>2026-04-04T13:14:40Z</time></trkpt><trkpt lat="45.873928832628295" lon="10.962096185994778"><ele>1216.0</ele><time>2026-04-04T13:14:43Z</time></trkpt><trkpt lat="45.873940226406354" lon="10.961925582279264"><ele>1216.0</ele><time>2026-04-04T13:14:44Z</time></trkpt><trkpt lat="45.87395727511085" lon="10.961831778168847"><ele>1216.0</ele><time>2026-04-04T13:14:46Z</time></trkpt><trkpt lat="45.87395694435347" lon="10.961655210479048"><ele>1216.0</ele><time>2026-04-04T13:14:51Z</time></trkpt><trkpt lat="45.8739461757656" lon="10.961530718457915"><ele>1216.0</ele><time>2026-04-04T13:14:53Z</time></trkpt><trkpt lat="45.87390332540166" lon="10.961427182574221"><ele>1216.0</ele><time>2026-04-04T13:17:02Z</time></trkpt><trkpt lat="45.87392428355907" lon="10.961326891821352"><ele>1216.0</ele><time>2026-04-04T13:19:06Z</time></trkpt><trkpt lat="45.87387509172132" lon="10.961232410252668"><ele>1216.0</ele><time>2026-04-04T13:19:08Z</time></trkpt><trkpt lat="45.87386007319026" lon="10.961131480098803"><ele>1216.0</ele><time>2026-04-04T13:19:14Z</time></trkpt><trkpt lat="45.8738019681772" lon="10.961062478762774"><ele>1216.0</ele><time>2026-04-04T13:19:24Z</time></trkpt><trkpt lat="45.87380265924385" lon="10.960898612224634"><ele>1216.0</ele><time>2026-04-04T13:19:27Z</time></trkpt><trkpt lat="45.87380432726486" lon="10.960740882874706"><ele>1216.0</ele><time>2026-04-04T13:19:29Z</time></trkpt><trkpt lat="45.87380356264948" lon="10.960609127791502"><ele>1216.0</ele><time>2026-04-04T13:19:31Z</time></trkpt><trkpt lat="45.873804213974104" lon="10.960476927161606"><ele>1216.0</ele><time>2026-04-04T13:19:34Z</time></trkpt><trkpt lat="45.87386756429006" lon="10.960398780496854"><ele>1214.7142857142856</ele><time>2026-04-04T13:19:37Z</time></trkpt><trkpt lat="45.873923685754605" lon="10.960356313089191"><ele>1213.4285714285716</ele><time>2026-04-04T13:19:41Z</time></trkpt><trkpt lat="45.873967280521626" lon="10.960269209719172"><ele>1212.142857142857</ele><time>2026-04-04T13:19:46Z</time></trkpt><trkpt lat="45.8739690685118" lon="10.960177818730312"><ele>1210.8571428571427</ele><time>2026-04-04T13:19:49Z</time></trkpt><trkpt lat="45.873975154835286" lon="10.960067862405106"><ele>1209.5714285714284</ele><time>2026-04-04T13:21:52Z</time></trkpt><trkpt lat="45.87400340158643" lon="10.959986952831638"><ele>1208.2857142857142</ele><time>2026-04-04T13:22:05Z</time></trkpt><trkpt lat="45.87405810935619" lon="10.959929115298717"><ele>1207.0</ele><time>2026-04-04T13:23:05Z</time></trkpt><trkpt lat="45.874125217668876" lon="10.959875318031123"><ele>1204.8571428571427</ele><time>2026-04-04T13:23:08Z</time></trkpt><trkpt lat="45.87414346693613" lon="10.959782013884432"><ele>1202.7142857142858</ele><time>2026-04-04T13:23:35Z</time></trkpt><trkpt lat="45.87408258214346" lon="10.95973003155288"><ele>1200.5714285714284</ele><time>2026-04-04T13:23:39Z</time></trkpt><trkpt lat="45.87401590113993" lon="10.959726872901795"><ele>1198.4285714285713</ele><time>2026-04-04T13:23:46Z</time></trkpt><trkpt lat="45.87394187208178" lon="10.959753061462418"><ele>1196.2857142857142</ele><time>2026-04-04T13:24:28Z</time></trkpt><trkpt lat="45.87388813913766" lon="10.959807193595882"><ele>1194.142857142857</ele><time>2026-04-04T13:24:30Z</time></trkpt><trkpt lat="45.87386913485302" lon="10.959923865581313"><ele>1192.0</ele><time>2026-04-04T13:24:34Z</time></trkpt><trkpt lat="45.87382909038815" lon="10.959849338970832"><ele>1192.0</ele><time>2026-04-04T13:25:23Z</time></trkpt><trkpt lat="45.87383337849016" lon="10.959745614600687"><ele>1192.0</ele><time>2026-04-04T13:25:59Z</time></trkpt><trkpt lat="45.87380186734196" lon="10.959637291838158"><ele>1192.0</ele><time>2026-04-04T13:26:01Z</time></trkpt><trkpt lat="45.87378233814239" lon="10.959509829583038"><ele>1192.0</ele><time>2026-04-04T13:26:03Z</time></trkpt><trkpt lat="45.87377782067019" lon="10.959405611857644"><ele>1192.0</ele><time>2026-04-04T13:26:05Z</time></trkpt><trkpt lat="45.873756514818794" lon="10.959298615459007"><ele>1192.0</ele><time>2026-04-04T13:26:07Z</time></trkpt><trkpt lat="45.873704074142296" lon="10.95914899027034"><ele>1189.3333333333333</ele><time>2026-04-04T13:26:09Z</time></trkpt><trkpt lat="45.8736425381838" lon="10.959047032291524"><ele>1186.6666666666665</ele><time>2026-04-04T13:26:11Z</time></trkpt><trkpt lat="45.87360814602491" lon="10.958960941258258"><ele>1184.0</ele><time>2026-04-04T13:26:13Z</time></trkpt><trkpt lat="45.87356659989101" lon="10.958887654075122"><ele>1181.3333333333333</ele><time>2026-04-04T13:26:15Z</time></trkpt><trkpt lat="45.87351340862049" lon="10.958739550423742"><ele>1178.6666666666667</ele><time>2026-04-04T13:26:18Z</time></trkpt><trkpt lat="45.873435874618195" lon="10.958660540136828"><ele>1176.0</ele><time>2026-04-04T13:26:20Z</time></trkpt><trkpt lat="45.87340633566899" lon="10.958572130079272"><ele>1171.8333333333333</ele><time>2026-04-04T13:26:21Z</time></trkpt><trkpt lat="45.87336891836469" lon="10.958497691132406"><ele>1167.6666666666667</ele><time>2026-04-04T13:26:22Z</time></trkpt><trkpt lat="45.87329145578982" lon="10.958431865156774"><ele>1163.5</ele><time>2026-04-04T13:26:24Z</time></trkpt><trkpt lat="45.873250511412074" lon="10.958314644052662"><ele>1159.3333333333335</ele><time>2026-04-04T13:26:26Z</time></trkpt><trkpt lat="45.8732790292347" lon="10.958202168053528"><ele>1155.1666666666667</ele><time>2026-04-04T13:26:28Z</time></trkpt><trkpt lat="45.8733392892845" lon="10.95805986920821"><ele>1151.0</ele><time>2026-04-04T13:26:30Z</time></trkpt><trkpt lat="45.8733562748649" lon="10.957954612043066"><ele>1149.2</ele><time>2026-04-04T13:26:32Z</time></trkpt><trkpt lat="45.873390460920895" lon="10.95782612366733"><ele>1147.3999999999999</ele><time>2026-04-04T13:26:34Z</time></trkpt><trkpt lat="45.87336434735007" lon="10.95770694557701"><ele>1145.6</ele><time>2026-04-04T13:26:36Z</time></trkpt><trkpt lat="45.873391704799985" lon="10.957559688362856"><ele>1143.8</ele><time>2026-04-04T13:26:39Z</time></trkpt><trkpt lat="45.873432774807284" lon="10.957417262346267"><ele>1142.0</ele><time>2026-04-04T13:26:41Z</time></trkpt><trkpt lat="45.873489283047604" lon="10.957281090066793"><ele>1140.3333333333335</ele><time>2026-04-04T13:26:43Z</time></trkpt><trkpt lat="45.87346649861673" lon="10.957177611063095"><ele>1138.6666666666667</ele><time>2026-04-04T13:26:46Z</time></trkpt><trkpt lat="45.87351305471934" lon="10.95710001122972"><ele>1137.0</ele><time>2026-04-04T13:27:30Z</time></trkpt><trkpt lat="45.873570436026974" lon="10.957061860121659"><ele>1135.3333333333333</ele><time>2026-04-04T13:27:32Z</time></trkpt><trkpt lat="45.87363589449608" lon="10.957032965160357"><ele>1133.6666666666665</ele><time>2026-04-04T13:27:34Z</time></trkpt><trkpt lat="45.87371817078226" lon="10.956959553302978"><ele>1132.0</ele><time>2026-04-04T13:27:36Z</time></trkpt><trkpt lat="45.87373729938781" lon="10.95684559391525"><ele>1132.0</ele><time>2026-04-04T13:27:38Z</time></trkpt><trkpt lat="45.87380198111232" lon="10.956747043856932"><ele>1132.0</ele><time>2026-04-04T13:27:41Z</time></trkpt><trkpt lat="45.87387720971596" lon="10.95669582237198"><ele>1132.0</ele><time>2026-04-04T13:27:43Z</time></trkpt><trkpt lat="45.873944721059466" lon="10.956611510145493"><ele>1132.0</ele><time>2026-04-04T13:27:45Z</time></trkpt><trkpt lat="45.874021171644" lon="10.956612346762181"><ele>1132.0</ele><time>2026-04-04T13:27:47Z</time></trkpt><trkpt lat="45.8741027616372" lon="10.956596173731263"><ele>1132.0</ele><time>2026-04-04T13:27:50Z</time></trkpt><trkpt lat="45.87419780805593" lon="10.956572047419126"><ele>1127.2</ele><time>2026-04-04T13:27:52Z</time></trkpt><trkpt lat="45.87424067573943" lon="10.956478497610496"><ele>1122.4</ele><time>2026-04-04T13:27:54Z</time></trkpt><trkpt lat="45.87421990742522" lon="10.956336923661821"><ele>1117.6</ele><time>2026-04-04T13:27:56Z</time></trkpt><trkpt lat="45.87417512702025" lon="10.956213881601624"><ele>1112.8</ele><time>2026-04-04T13:27:58Z</time></trkpt><trkpt lat="45.874124786543405" lon="10.95610925620899"><ele>1108.0</ele><time>2026-04-04T13:28:01Z</time></trkpt><trkpt lat="45.874046291387124" lon="10.955967327412356"><ele>1103.0</ele><time>2026-04-04T13:28:03Z</time></trkpt><trkpt lat="45.8739561664642" lon="10.955860938362994"><ele>1098.0</ele><time>2026-04-04T13:28:05Z</time></trkpt><trkpt lat="45.87388450758963" lon="10.955809405545459"><ele>1093.0</ele><time>2026-04-04T13:28:06Z</time></trkpt><trkpt lat="45.873829598086026" lon="10.95574800991408"><ele>1088.0</ele><time>2026-04-04T13:28:07Z</time></trkpt><trkpt lat="45.87373206870623" lon="10.955638651158857"><ele>1083.0</ele><time>2026-04-04T13:28:09Z</time></trkpt><trkpt lat="45.87365593985502" lon="10.955591420135292"><ele>1083.0</ele><time>2026-04-04T13:28:11Z</time></trkpt><trkpt lat="45.87357181771591" lon="10.955540597245138"><ele>1083.0</ele><time>2026-04-04T13:31:53Z</time></trkpt><trkpt lat="45.87342887978152" lon="10.955444032105161"><ele>1083.0</ele><time>2026-04-04T13:31:55Z</time></trkpt><trkpt lat="45.87335440148516" lon="10.955398136984627"><ele>1083.0</ele><time>2026-04-04T13:31:56Z</time></trkpt><trkpt lat="45.873282621702955" lon="10.95539100382258"><ele>1083.0</ele><time>2026-04-04T13:31:57Z</time></trkpt><trkpt lat="45.87319820560707" lon="10.95540077935018"><ele>1084.0</ele><time>2026-04-04T13:31:58Z</time></trkpt><trkpt lat="45.8731184445865" lon="10.9554472234949"><ele>1085.0</ele><time>2026-04-04T13:32:00Z</time></trkpt><trkpt lat="45.87310263282822" lon="10.955625150689789"><ele>1086.0</ele><time>2026-04-04T13:32:02Z</time></trkpt><trkpt lat="45.87310970064551" lon="10.955735168865885"><ele>1087.0</ele><time>2026-04-04T13:32:03Z</time></trkpt><trkpt lat="45.87311747342033" lon="10.955836982370275"><ele>1088.0</ele><time>2026-04-04T13:32:04Z</time></trkpt><trkpt lat="45.87309393012264" lon="10.955950179538121"><ele>1089.0</ele><time>2026-04-04T13:32:05Z</time></trkpt><trkpt lat="45.87305213477867" lon="10.95606067139297"><ele>1089.0</ele><time>2026-04-04T13:32:06Z</time></trkpt><trkpt lat="45.87298948132143" lon="10.95617608828333"><ele>1089.0</ele><time>2026-04-04T13:32:07Z</time></trkpt><trkpt lat="45.872917086166645" lon="10.95629043748695"><ele>1089.0</ele><time>2026-04-04T13:32:08Z</time></trkpt><trkpt lat="45.872842188840806" lon="10.95640945838304"><ele>1089.0</ele><time>2026-04-04T13:32:09Z</time></trkpt><trkpt lat="45.87278397029645" lon="10.956523011585203"><ele>1089.0</ele><time>2026-04-04T13:32:10Z</time></trkpt><trkpt lat="45.872735881744106" lon="10.956654097951908"><ele>1094.8</ele><time>2026-04-04T13:32:11Z</time></trkpt><trkpt lat="45.872684324024576" lon="10.95679322643477"><ele>1100.6000000000001</ele><time>2026-04-04T13:32:12Z</time></trkpt><trkpt lat="45.87263836836289" lon="10.956928594692378"><ele>1106.4</ele><time>2026-04-04T13:32:13Z</time></trkpt><trkpt lat="45.87258927019249" lon="10.957056539306667"><ele>1112.2</ele><time>2026-04-04T13:32:14Z</time></trkpt><trkpt lat="45.872545826414616" lon="10.957205391008268"><ele>1118.0</ele><time>2026-04-04T13:32:15Z</time></trkpt><trkpt lat="45.872505589195136" lon="10.957324985201028"><ele>1108.0</ele><time>2026-04-04T13:32:16Z</time></trkpt><trkpt lat="45.87242360901851" lon="10.957443944866094"><ele>1098.0</ele><time>2026-04-04T13:32:17Z</time></trkpt><trkpt lat="45.87235624632799" lon="10.957560913814934"><ele>1088.0</ele><time>2026-04-04T13:32:18Z</time></trkpt><trkpt lat="45.87231002559748" lon="10.957668693279432"><ele>1078.0</ele><time>2026-04-04T13:32:19Z</time></trkpt><trkpt lat="45.87229975908411" lon="10.95778063601088"><ele>1068.0</ele><time>2026-04-04T13:32:20Z</time></trkpt><trkpt lat="45.87228824035043" lon="10.957937270434153"><ele>1068.0</ele><time>2026-04-04T13:32:21Z</time></trkpt><trkpt lat="45.872238543049356" lon="10.958078269276843"><ele>1068.0</ele><time>2026-04-04T13:32:22Z</time></trkpt><trkpt lat="45.8721885659106" lon="10.958225255409747"><ele>1068.0</ele><time>2026-04-04T13:32:23Z</time></trkpt><trkpt lat="45.87214054517544" lon="10.958365468819375"><ele>1068.0</ele><time>2026-04-04T13:32:24Z</time></trkpt><trkpt lat="45.87209679342201" lon="10.958510429180988"><ele>1068.0</ele><time>2026-04-04T13:32:25Z</time></trkpt><trkpt lat="45.87205252582975" lon="10.95863918707257"><ele>1071.0</ele><time>2026-04-04T13:32:26Z</time></trkpt><trkpt lat="45.87201213544876" lon="10.958768407370389"><ele>1074.0</ele><time>2026-04-04T13:32:27Z</time></trkpt><trkpt lat="45.8719620398191" lon="10.958865108908663"><ele>1077.0</ele><time>2026-04-04T13:32:28Z</time></trkpt><trkpt lat="45.871923030473326" lon="10.958936484761988"><ele>1080.0</ele><time>2026-04-04T13:32:29Z</time></trkpt><trkpt lat="45.871894386537086" lon="10.959129841223122"><ele>1083.0</ele><time>2026-04-04T13:32:31Z</time></trkpt><trkpt lat="45.87185701527988" lon="10.959262070436317"><ele>1087.25</ele><time>2026-04-04T13:32:32Z</time></trkpt><trkpt lat="45.87181076823151" lon="10.9594188682556"><ele>1091.5</ele><time>2026-04-04T13:32:33Z</time></trkpt><trkpt lat="45.871758516501444" lon="10.959591599868364"><ele>1095.75</ele><time>2026-04-04T13:32:34Z</time></trkpt><trkpt lat="45.871704867439576" lon="10.959731321904654"><ele>1100.0</ele><time>2026-04-04T13:32:35Z</time></trkpt><trkpt lat="45.871643896424985" lon="10.959883198953358"><ele>1088.0</ele><time>2026-04-04T13:32:36Z</time></trkpt><trkpt lat="45.87158228184562" lon="10.960051813892633"><ele>1076.0</ele><time>2026-04-04T13:32:37Z</time></trkpt><trkpt lat="45.87153046976048" lon="10.960207830240206"><ele>1064.0</ele><time>2026-04-04T13:32:38Z</time></trkpt><trkpt lat="45.87149429457413" lon="10.960338557617593"><ele>1052.0</ele><time>2026-04-04T13:32:39Z</time></trkpt><trkpt lat="45.871449280047834" lon="10.960441534142026"><ele>1040.0</ele><time>2026-04-04T13:32:40Z</time></trkpt><trkpt lat="45.87143934061951" lon="10.960548154905828"><ele>1040.0</ele><time>2026-04-04T13:32:41Z</time></trkpt><trkpt lat="45.871450388961655" lon="10.96068948498445"><ele>1040.0</ele><time>2026-04-04T13:32:42Z</time></trkpt><trkpt lat="45.87147501925242" lon="10.960881746991857"><ele>1040.0</ele><time>2026-04-04T13:32:43Z</time></trkpt><trkpt lat="45.87142151348149" lon="10.960991743559287"><ele>1040.0</ele><time>2026-04-04T13:32:44Z</time></trkpt><trkpt lat="45.871392860197346" lon="10.961116156107348"><ele>1040.0</ele><time>2026-04-04T13:32:45Z</time></trkpt><trkpt lat="45.871346749028106" lon="10.96122754340476"><ele>1040.8</ele><time>2026-04-04T13:32:46Z</time></trkpt><trkpt lat="45.87130887763997" lon="10.961369080829826"><ele>1041.6</ele><time>2026-04-04T13:32:47Z</time></trkpt><trkpt lat="45.8712348030383" lon="10.96148063650203"><ele>1042.4</ele><time>2026-04-04T13:32:48Z</time></trkpt><trkpt lat="45.87117425978501" lon="10.961633318641647"><ele>1043.2</ele><time>2026-04-04T13:32:49Z</time></trkpt><trkpt lat="45.87112227975764" lon="10.961737730723668"><ele>1044.0</ele><time>2026-04-04T13:32:50Z</time></trkpt><trkpt lat="45.87107198498343" lon="10.96183108479712"><ele>1044.0</ele><time>2026-04-04T13:32:52Z</time></trkpt><trkpt lat="45.87118232618707" lon="10.96213699014804"><ele>1044.0</ele><time>2026-04-04T13:32:55Z</time></trkpt><trkpt lat="45.8712150902913" lon="10.962258587138821"><ele>1044.0</ele><time>2026-04-04T13:32:56Z</time></trkpt><trkpt lat="45.87122013709094" lon="10.962377732130776"><ele>1044.0</ele><time>2026-04-04T13:32:57Z</time></trkpt><trkpt lat="45.87122075565299" lon="10.962509186847257"><ele>1043.2</ele><time>2026-04-04T13:32:58Z</time></trkpt><trkpt lat="45.87122567261147" lon="10.962650230068734"><ele>1042.4</ele><time>2026-04-04T13:32:59Z</time></trkpt><trkpt lat="45.87124737568255" lon="10.962755647266402"><ele>1041.6</ele><time>2026-04-04T13:33:00Z</time></trkpt><trkpt lat="45.87132641836212" lon="10.962840860891506"><ele>1040.8</ele><time>2026-04-04T13:33:01Z</time></trkpt><trkpt lat="45.871395310729945" lon="10.962943101888024"><ele>1040.0</ele><time>2026-04-04T13:33:02Z</time></trkpt><trkpt lat="45.871452465505236" lon="10.963043800512427"><ele>1040.0</ele><time>2026-04-04T13:33:03Z</time></trkpt><trkpt lat="45.87145372926394" lon="10.963158978183845"><ele>1040.0</ele><time>2026-04-04T13:33:04Z</time></trkpt><trkpt lat="45.87146699815897" lon="10.963262207848642"><ele>1040.0</ele><time>2026-04-04T13:33:05Z</time></trkpt><trkpt lat="45.871421923734395" lon="10.96339357097344"><ele>1040.0</ele><time>2026-04-04T13:33:06Z</time></trkpt><trkpt lat="45.87136802822449" lon="10.963526450374886"><ele>1040.0</ele><time>2026-04-04T13:33:07Z</time></trkpt><trkpt lat="45.871310792911316" lon="10.963638744808028"><ele>1042.0</ele><time>2026-04-04T13:33:08Z</time></trkpt><trkpt lat="45.871263064172474" lon="10.963737117475347"><ele>1044.0</ele><time>2026-04-04T13:33:09Z</time></trkpt><trkpt lat="45.87122733531869" lon="10.963849052279357"><ele>1046.0</ele><time>2026-04-04T13:33:10Z</time></trkpt><trkpt lat="45.87119265677051" lon="10.963979627614128"><ele>1048.0</ele><time>2026-04-04T13:33:11Z</time></trkpt><trkpt lat="45.87116631917948" lon="10.964121787538133"><ele>1050.0</ele><time>2026-04-04T13:33:12Z</time></trkpt><trkpt lat="45.871139354063374" lon="10.964275878913265"><ele>1054.2</ele><time>2026-04-04T13:33:13Z</time></trkpt><trkpt lat="45.87110196461911" lon="10.964419665319523"><ele>1058.4</ele><time>2026-04-04T13:33:14Z</time></trkpt><trkpt lat="45.87106243213551" lon="10.964590191870748"><ele>1062.6</ele><time>2026-04-04T13:33:15Z</time></trkpt><trkpt lat="45.87103258982508" lon="10.964734551060532"><ele>1066.8</ele><time>2026-04-04T13:33:15.999Z</time></trkpt><trkpt lat="45.871010188210306" lon="10.964868356172438"><ele>1071.0</ele><time>2026-04-04T13:33:16.999Z</time></trkpt><trkpt lat="45.870991813310084" lon="10.965050918938829"><ele>1068.0</ele><time>2026-04-04T13:33:17.999Z</time></trkpt><trkpt lat="45.870974370140125" lon="10.96519538271679"><ele>1065.0</ele><time>2026-04-04T13:33:18.999Z</time></trkpt><trkpt lat="45.87094812567539" lon="10.965319241934868"><ele>1062.0</ele><time>2026-04-04T13:33:19.999Z</time></trkpt><trkpt lat="45.87091390462767" lon="10.965442346620065"><ele>1059.0</ele><time>2026-04-04T13:33:20.999Z</time></trkpt><trkpt lat="45.87088555665906" lon="10.9655625877557"><ele>1056.0</ele><time>2026-04-04T13:33:21.999Z</time></trkpt><trkpt lat="45.870866608330836" lon="10.96568112363457"><ele>1056.0</ele><time>2026-04-04T13:33:22.999Z</time></trkpt><trkpt lat="45.87086882923989" lon="10.96580133350749"><ele>1056.0</ele><time>2026-04-04T13:33:23.999Z</time></trkpt><trkpt lat="45.87087860878859" lon="10.965915904222095"><ele>1056.0</ele><time>2026-04-04T13:33:24.999Z</time></trkpt><trkpt lat="45.87082522092444" lon="10.966090304151209"><ele>1056.0</ele><time>2026-04-04T13:33:26.999Z</time></trkpt><trkpt lat="45.87077852562121" lon="10.966231371449547"><ele>1056.0</ele><time>2026-04-04T13:33:28.999Z</time></trkpt><trkpt lat="45.87083534277516" lon="10.966311257350771"><ele>1061.6</ele><time>2026-04-04T13:33:32Z</time></trkpt><trkpt lat="45.870925449330834" lon="10.966297846310956"><ele>1067.1999999999998</ele><time>2026-04-04T13:33:34Z</time></trkpt><trkpt lat="45.871031206651594" lon="10.966243738310284"><ele>1072.8000000000002</ele><time>2026-04-04T13:33:36Z</time></trkpt><trkpt lat="45.8711466266631" lon="10.966172217917995"><ele>1078.4</ele><time>2026-04-04T13:33:38Z</time></trkpt><trkpt lat="45.87121029965249" lon="10.966154830166735"><ele>1084.0</ele><time>2026-04-04T13:33:39Z</time></trkpt><trkpt lat="45.871317870584754" lon="10.966066600513317"><ele>1087.4</ele><time>2026-04-04T13:33:41Z</time></trkpt><trkpt lat="45.871442586405024" lon="10.965983645299234"><ele>1090.8000000000002</ele><time>2026-04-04T13:33:43Z</time></trkpt><trkpt lat="45.87150219019585" lon="10.965937983173465"><ele>1094.1999999999998</ele><time>2026-04-04T13:33:44Z</time></trkpt><trkpt lat="45.87161748531094" lon="10.965878395688259"><ele>1097.6</ele><time>2026-04-04T13:33:46Z</time></trkpt><trkpt lat="45.87171161306168" lon="10.965798134578028"><ele>1101.0</ele><time>2026-04-04T13:33:48Z</time></trkpt><trkpt lat="45.87178589489731" lon="10.965709386521198"><ele>1109.0</ele><time>2026-04-04T13:33:50Z</time></trkpt><trkpt lat="45.871856906262096" lon="10.965599819063378"><ele>1117.0</ele><time>2026-04-04T13:33:52Z</time></trkpt><trkpt lat="45.87193200438835" lon="10.965466536937727"><ele>1125.0</ele><time>2026-04-04T13:33:54Z</time></trkpt><trkpt lat="45.87199475557716" lon="10.965403921069337"><ele>1133.0</ele><time>2026-04-04T13:33:55Z</time></trkpt><trkpt lat="45.872079360659235" lon="10.965336076327503"><ele>1141.0</ele><time>2026-04-04T13:33:56Z</time></trkpt><trkpt lat="45.87213779396254" lon="10.96527822742454"><ele>1141.0</ele><time>2026-04-04T13:33:57Z</time></trkpt><trkpt lat="45.87220176983306" lon="10.96521543871121"><ele>1141.0</ele><time>2026-04-04T13:33:58Z</time></trkpt><trkpt lat="45.87227632829421" lon="10.965091168611462"><ele>1141.0</ele><time>2026-04-04T13:34:00Z</time></trkpt><trkpt lat="45.87234762368717" lon="10.964965954549415"><ele>1141.0</ele><time>2026-04-04T13:34:02Z</time></trkpt><trkpt lat="45.872413756592344" lon="10.964899339664234"><ele>1141.0</ele><time>2026-04-04T13:34:04Z</time></trkpt><trkpt lat="45.87246815262286" lon="10.964825781498432"><ele>1140.0</ele><time>2026-04-04T13:34:05Z</time></trkpt><trkpt lat="45.87252588329998" lon="10.964764485313522"><ele>1139.0</ele><time>2026-04-04T13:34:06Z</time></trkpt><trkpt lat="45.87258283920754" lon="10.96469648580199"><ele>1138.0</ele><time>2026-04-04T13:34:07Z</time></trkpt><trkpt lat="45.87263672986746" lon="10.96464072618913"><ele>1137.0</ele><time>2026-04-04T13:34:08Z</time></trkpt><trkpt lat="45.872700793842014" lon="10.964595351091667"><ele>1136.0</ele><time>2026-04-04T13:34:09Z</time></trkpt><trkpt lat="45.872806765582155" lon="10.96449436244877"><ele>1135.0</ele><time>2026-04-04T13:34:11Z</time></trkpt><trkpt lat="45.87289687207861" lon="10.964414530404163"><ele>1135.0</ele><time>2026-04-04T13:34:13Z</time></trkpt><trkpt lat="45.87297653530565" lon="10.964380381404212"><ele>1135.0</ele><time>2026-04-04T13:34:15Z</time></trkpt><trkpt lat="45.873051105114804" lon="10.964422999734063"><ele>1135.0</ele><time>2026-04-04T13:34:17Z</time></trkpt><trkpt lat="45.873021115284544" lon="10.964578968930798"><ele>1135.0</ele><time>2026-04-04T13:34:20Z</time></trkpt><trkpt lat="45.87296460692843" lon="10.964657575851374"><ele>1135.0</ele><time>2026-04-04T13:34:21Z</time></trkpt><trkpt lat="45.8728970477135" lon="10.964758717913773"><ele>1135.0</ele><time>2026-04-04T13:34:22Z</time></trkpt><trkpt lat="45.87284071568556" lon="10.964819197035181"><ele>1135.0</ele><time>2026-04-04T13:34:23Z</time></trkpt><trkpt lat="45.872852086441895" lon="10.964963710703989"><ele>1135.0</ele><time>2026-04-04T13:34:25Z</time></trkpt><trkpt lat="45.872980205252" lon="10.965030601653183"><ele>1135.0</ele><time>2026-04-04T13:34:26Z</time></trkpt><trkpt lat="45.87305247639799" lon="10.965092877489422"><ele>1135.0</ele><time>2026-04-04T13:34:28Z</time></trkpt><trkpt lat="45.872936997843034" lon="10.965137789607706"><ele>1136.2</ele><time>2026-04-04T13:34:31Z</time></trkpt><trkpt lat="45.872829527403624" lon="10.965219137655732"><ele>1137.4</ele><time>2026-04-04T13:34:33Z</time></trkpt><trkpt lat="45.87274381161099" lon="10.965311137410616"><ele>1138.6</ele><time>2026-04-04T13:34:34Z</time></trkpt><trkpt lat="45.87269390630302" lon="10.965368258518316"><ele>1139.8</ele><time>2026-04-04T13:34:35Z</time></trkpt><trkpt lat="45.87263441732216" lon="10.965403141836239"><ele>1141.0</ele><time>2026-04-04T13:34:36Z</time></trkpt><trkpt lat="45.87252574619602" lon="10.96541246476034"><ele>1141.0</ele><time>2026-04-04T13:34:38Z</time></trkpt><trkpt lat="45.87243206529122" lon="10.965438569675943"><ele>1141.0</ele><time>2026-04-04T13:34:39Z</time></trkpt><trkpt lat="45.8723669657458" lon="10.965451412081178"><ele>1141.0</ele><time>2026-04-04T13:34:40Z</time></trkpt><trkpt lat="45.872313728036595" lon="10.965513561197467"><ele>1141.0</ele><time>2026-04-04T13:34:42Z</time></trkpt><trkpt lat="45.87238020450059" lon="10.965587717386567"><ele>1141.0</ele><time>2026-04-04T13:34:44Z</time></trkpt><trkpt lat="45.87244443016125" lon="10.96559437133916"><ele>1141.0</ele><time>2026-04-04T13:34:45Z</time></trkpt><trkpt lat="45.87252725815541" lon="10.965689222689225"><ele>1141.0</ele><time>2026-04-04T13:34:47Z</time></trkpt><trkpt lat="45.87258249122935" lon="10.965785091858072"><ele>1141.0</ele><time>2026-04-04T13:34:48Z</time></trkpt><trkpt lat="45.87265626928651" lon="10.96590529675203"><ele>1141.0</ele><time>2026-04-04T13:34:49Z</time></trkpt><trkpt lat="45.87272386362705" lon="10.965992363339678"><ele>1141.0</ele><time>2026-04-04T13:34:50Z</time></trkpt><trkpt lat="45.87276625874223" lon="10.9660911171351"><ele>1141.0</ele><time>2026-04-04T13:34:51Z</time></trkpt><trkpt lat="45.872835513276364" lon="10.966134276099268"><ele>1141.0</ele><time>2026-04-04T13:34:52Z</time></trkpt><trkpt lat="45.87291094906939" lon="10.96618829022916"><ele>1146.2</ele><time>2026-04-04T13:34:54Z</time></trkpt><trkpt lat="45.872873272311395" lon="10.966268054161883"><ele>1151.3999999999999</ele><time>2026-04-04T13:34:56Z</time></trkpt><trkpt lat="45.87278968948004" lon="10.966302560906222"><ele>1156.6</ele><time>2026-04-04T13:34:57Z</time></trkpt><trkpt lat="45.872691120817855" lon="10.966369436539317"><ele>1161.8</ele><time>2026-04-04T13:34:58Z</time></trkpt><trkpt lat="45.87259885319166" lon="10.966476038010468"><ele>1167.0</ele><time>2026-04-04T13:34:59Z</time></trkpt><trkpt lat="45.872541306961324" lon="10.966545615148698"><ele>1167.0</ele><time>2026-04-04T13:35:00Z</time></trkpt><trkpt lat="45.87247507562497" lon="10.966629956314389"><ele>1167.0</ele><time>2026-04-04T13:35:01Z</time></trkpt><trkpt lat="45.87241073540793" lon="10.966712743419057"><ele>1167.0</ele><time>2026-04-04T13:35:02Z</time></trkpt><trkpt lat="45.87230426628818" lon="10.966698785531445"><ele>1167.0</ele><time>2026-04-04T13:35:04Z</time></trkpt><trkpt lat="45.87220684426573" lon="10.96667246821767"><ele>1167.0</ele><time>2026-04-04T13:35:06Z</time></trkpt><trkpt lat="45.87217125184477" lon="10.966753456169801"><ele>1167.0</ele><time>2026-04-04T13:35:07Z</time></trkpt><trkpt lat="45.872114823192675" lon="10.966896324876664"><ele>1170.8</ele><time>2026-04-04T13:35:08Z</time></trkpt><trkpt lat="45.872027970754665" lon="10.967005081062071"><ele>1174.6</ele><time>2026-04-04T13:35:09Z</time></trkpt><trkpt lat="45.871935099350324" lon="10.967156060033835"><ele>1178.3999999999999</ele><time>2026-04-04T13:35:10Z</time></trkpt><trkpt lat="45.871877725062966" lon="10.967282289679478"><ele>1182.2</ele><time>2026-04-04T13:35:11Z</time></trkpt><trkpt lat="45.871852056536255" lon="10.967402809788862"><ele>1186.0</ele><time>2026-04-04T13:35:12Z</time></trkpt><trkpt lat="45.871845465034134" lon="10.967494596899977"><ele>1188.6</ele><time>2026-04-04T13:35:13Z</time></trkpt><trkpt lat="45.87186249295785" lon="10.967613366736368"><ele>1191.1999999999998</ele><time>2026-04-04T13:35:14Z</time></trkpt><trkpt lat="45.87188131512346" lon="10.967747366001587"><ele>1193.8000000000002</ele><time>2026-04-04T13:35:15Z</time></trkpt><trkpt lat="45.8719089740318" lon="10.967893743117651"><ele>1196.4</ele><time>2026-04-04T13:35:16Z</time></trkpt><trkpt lat="45.87193314378227" lon="10.96803074909694"><ele>1199.0</ele><time>2026-04-04T13:35:17Z</time></trkpt><trkpt lat="45.871926705886814" lon="10.968147006209096"><ele>1199.0</ele><time>2026-04-04T13:35:17.999Z</time></trkpt><trkpt lat="45.871902142608945" lon="10.968264263790385"><ele>1199.0</ele><time>2026-04-04T13:35:18.999Z</time></trkpt><trkpt lat="45.87188888718036" lon="10.968358481054551"><ele>1199.0</ele><time>2026-04-04T13:35:19.999Z</time></trkpt><trkpt lat="45.871902115813775" lon="10.96846516192766"><ele>1199.0</ele><time>2026-04-04T13:35:32.999Z</time></trkpt><trkpt lat="45.87198301092395" lon="10.968605463685464"><ele>1199.0</ele><time>2026-04-04T13:35:34.999Z</time></trkpt><trkpt lat="45.87203851045712" lon="10.96869361999207"><ele>1199.0</ele><time>2026-04-04T13:35:35.999Z</time></trkpt><trkpt lat="45.87211246223217" lon="10.968828947121633"><ele>1199.3333333333335</ele><time>2026-04-04T13:35:38Z</time></trkpt><trkpt lat="45.872132996694646" lon="10.968919294918491"><ele>1199.6666666666667</ele><time>2026-04-04T13:35:39Z</time></trkpt><trkpt lat="45.872174460037435" lon="10.9690683202322"><ele>1200.0</ele><time>2026-04-04T13:35:41Z</time></trkpt><trkpt lat="45.872217352845226" lon="10.969147829980114"><ele>1200.3333333333333</ele><time>2026-04-04T13:35:42Z</time></trkpt><trkpt lat="45.87232059326628" lon="10.969239566357922"><ele>1200.6666666666665</ele><time>2026-04-04T13:35:44Z</time></trkpt><trkpt lat="45.87237807591362" lon="10.969295212453229"><ele>1201.0</ele><time>2026-04-04T13:35:45Z</time></trkpt><trkpt lat="45.872456553654295" lon="10.969413855830446"><ele>1201.0</ele><time>2026-04-04T13:35:47Z</time></trkpt><trkpt lat="45.872528231159706" lon="10.969502973768469"><ele>1201.0</ele><time>2026-04-04T13:35:49Z</time></trkpt><trkpt lat="45.87262907172537" lon="10.969532330861506"><ele>1201.0</ele><time>2026-04-04T13:35:51Z</time></trkpt><trkpt lat="45.87272584499786" lon="10.969610494211757"><ele>1201.0</ele><time>2026-04-04T13:35:53Z</time></trkpt><trkpt lat="45.872792768973625" lon="10.969675094520014"><ele>1201.0</ele><time>2026-04-04T13:35:55Z</time></trkpt><trkpt lat="45.872685651122325" lon="10.969577641554986"><ele>1201.0</ele><time>2026-04-04T13:37:25Z</time></trkpt><trkpt lat="45.872623138514605" lon="10.969537859761553"><ele>1201.0</ele><time>2026-04-04T13:37:26Z</time></trkpt><trkpt lat="45.872533806422645" lon="10.96947299357782"><ele>1201.0</ele><time>2026-04-04T13:37:28Z</time></trkpt><trkpt lat="45.872462414831496" lon="10.969417102687977"><ele>1201.0</ele><time>2026-04-04T13:37:30Z</time></trkpt><trkpt lat="45.87241079710387" lon="10.96930015841906"><ele>1201.0</ele><time>2026-04-04T13:37:32Z</time></trkpt><trkpt lat="45.8723386805445" lon="10.969226443626516"><ele>1201.0</ele><time>2026-04-04T13:37:33.999Z</time></trkpt><trkpt lat="45.87224778599597" lon="10.969152847381926"><ele>1202.2</ele><time>2026-04-04T13:37:35.999Z</time></trkpt><trkpt lat="45.872199781785255" lon="10.969066999204998"><ele>1203.3999999999999</ele><time>2026-04-04T13:37:37.999Z</time></trkpt><trkpt lat="45.872159719494405" lon="10.968956182208506"><ele>1204.6</ele><time>2026-04-04T13:37:39.999Z</time></trkpt><trkpt lat="45.872131755584356" lon="10.9688329246892"><ele>1205.8</ele><time>2026-04-04T13:37:41.999Z</time></trkpt><trkpt lat="45.87206082636822" lon="10.968690650836532"><ele>1207.0</ele><time>2026-04-04T13:37:44Z</time></trkpt><trkpt lat="45.87198037340712" lon="10.96856828391265"><ele>1207.0</ele><time>2026-04-04T13:37:46Z</time></trkpt><trkpt lat="45.87194933070944" lon="10.968478782838593"><ele>1207.0</ele><time>2026-04-04T13:37:47Z</time></trkpt><trkpt lat="45.87192609620771" lon="10.968374124868957"><ele>1207.0</ele><time>2026-04-04T13:37:49Z</time></trkpt><trkpt lat="45.87188826444882" lon="10.968461362781762"><ele>1207.0</ele><time>2026-04-04T13:37:51Z</time></trkpt><trkpt lat="45.87188792020739" lon="10.968578282790606"><ele>1207.0</ele><time>2026-04-04T13:37:52Z</time></trkpt><trkpt lat="45.87188446728325" lon="10.968690199715388"><ele>1207.0</ele><time>2026-04-04T13:37:53Z</time></trkpt><trkpt lat="45.87184956308162" lon="10.9688421933455"><ele>1207.0</ele><time>2026-04-04T13:37:54Z</time></trkpt><trkpt lat="45.87178994813977" lon="10.969010165263185"><ele>1207.0</ele><time>2026-04-04T13:37:55Z</time></trkpt><trkpt lat="45.87175810273853" lon="10.969156817276707"><ele>1207.0</ele><time>2026-04-04T13:37:56Z</time></trkpt><trkpt lat="45.87173113449678" lon="10.969290895921047"><ele>1207.0</ele><time>2026-04-04T13:37:57Z</time></trkpt><trkpt lat="45.871703586930174" lon="10.969395888034539"><ele>1207.0</ele><time>2026-04-04T13:37:58Z</time></trkpt><trkpt lat="45.871698354842714" lon="10.96949255919473"><ele>1206.0</ele><time>2026-04-04T13:37:59Z</time></trkpt><trkpt lat="45.871709333817215" lon="10.969583860514385"><ele>1205.0</ele><time>2026-04-04T13:38:00Z</time></trkpt><trkpt lat="45.871755374857095" lon="10.969645784175599"><ele>1204.0</ele><time>2026-04-04T13:38:01Z</time></trkpt><trkpt lat="45.871814104641174" lon="10.969701843925796"><ele>1203.0</ele><time>2026-04-04T13:38:02Z</time></trkpt><trkpt lat="45.87187302161006" lon="10.969780629862376"><ele>1202.0</ele><time>2026-04-04T13:38:03Z</time></trkpt><trkpt lat="45.871961688991306" lon="10.969869042279155"><ele>1201.0</ele><time>2026-04-04T13:38:05Z</time></trkpt><trkpt lat="45.87200219942625" lon="10.969939185064568"><ele>1201.0</ele><time>2026-04-04T13:38:06Z</time></trkpt><trkpt lat="45.87205824000783" lon="10.970009081055595"><ele>1201.0</ele><time>2026-04-04T13:38:07Z</time></trkpt><trkpt lat="45.87211499967185" lon="10.9700901273944"><ele>1201.0</ele><time>2026-04-04T13:38:08Z</time></trkpt><trkpt lat="45.872160553062635" lon="10.970205810486693"><ele>1201.0</ele><time>2026-04-04T13:38:09Z</time></trkpt><trkpt lat="45.87220368123975" lon="10.970341201120732"><ele>1201.0</ele><time>2026-04-04T13:38:10Z</time></trkpt><trkpt lat="45.87221263250495" lon="10.970455087680975"><ele>1201.0</ele><time>2026-04-04T13:38:11Z</time></trkpt><trkpt lat="45.872262459385574" lon="10.970512917911188"><ele>1196.8</ele><time>2026-04-04T13:38:12Z</time></trkpt><trkpt lat="45.87231633546981" lon="10.970570895106237"><ele>1192.6</ele><time>2026-04-04T13:38:13Z</time></trkpt><trkpt lat="45.872170095179094" lon="10.970500842808576"><ele>1188.4</ele><time>2026-04-04T13:38:17Z</time></trkpt><trkpt lat="45.872086626651466" lon="10.970397874078754"><ele>1184.2</ele><time>2026-04-04T13:38:18Z</time></trkpt><trkpt lat="45.87201410874998" lon="10.970340952348334"><ele>1180.0</ele><time>2026-04-04T13:38:20Z</time></trkpt><trkpt lat="45.87199077091709" lon="10.97046163700096"><ele>1180.0</ele><time>2026-04-04T13:38:22Z</time></trkpt><trkpt lat="45.87199099578031" lon="10.970579885230116"><ele>1180.0</ele><time>2026-04-04T13:38:23Z</time></trkpt><trkpt lat="45.87199953650711" lon="10.970720825119365"><ele>1180.0</ele><time>2026-04-04T13:38:24Z</time></trkpt><trkpt lat="45.87204342952244" lon="10.970863426314093"><ele>1180.0</ele><time>2026-04-04T13:38:26Z</time></trkpt><trkpt lat="45.87207408070234" lon="10.970944465758473"><ele>1180.0</ele><time>2026-04-04T13:38:27Z</time></trkpt><trkpt lat="45.87210187228312" lon="10.971051034112975"><ele>1180.0</ele><time>2026-04-04T13:38:29Z</time></trkpt><trkpt lat="45.872193529393144" lon="10.971186859436282"><ele>1175.2</ele><time>2026-04-04T13:38:32Z</time></trkpt><trkpt lat="45.87225990061161" lon="10.971291968491599"><ele>1170.4</ele><time>2026-04-04T13:38:33Z</time></trkpt><trkpt lat="45.87230186331317" lon="10.971427151264445"><ele>1165.6</ele><time>2026-04-04T13:38:34Z</time></trkpt><trkpt lat="45.872299346945475" lon="10.971537395538423"><ele>1160.8</ele><time>2026-04-04T13:38:35Z</time></trkpt><trkpt lat="45.87237822710557" lon="10.971703249480464"><ele>1156.0</ele><time>2026-04-04T13:38:37Z</time></trkpt><trkpt lat="45.87231302089469" lon="10.971712585923612"><ele>1156.0</ele><time>2026-04-04T13:38:40Z</time></trkpt><trkpt lat="45.87227401530998" lon="10.971628867338739"><ele>1156.0</ele><time>2026-04-04T13:38:41Z</time></trkpt><trkpt lat="45.872182187012235" lon="10.971555165700957"><ele>1156.0</ele><time>2026-04-04T13:38:42Z</time></trkpt><trkpt lat="45.87217283096798" lon="10.971665116797242"><ele>1156.0</ele><time>2026-04-04T13:38:45Z</time></trkpt><trkpt lat="45.872203758530844" lon="10.971789630763013"><ele>1156.0</ele><time>2026-04-04T13:38:46Z</time></trkpt><trkpt lat="45.872244950923665" lon="10.971950127520849"><ele>1151.5</ele><time>2026-04-04T13:38:47Z</time></trkpt><trkpt lat="45.8722873203765" lon="10.972075101210132"><ele>1147.0</ele><time>2026-04-04T13:38:48Z</time></trkpt><trkpt lat="45.87232994692362" lon="10.972194925037392"><ele>1142.5</ele><time>2026-04-04T13:38:50Z</time></trkpt><trkpt lat="45.87238651842926" lon="10.972240104800402"><ele>1138.0</ele><time>2026-04-04T13:38:52Z</time></trkpt><trkpt lat="45.87244488562843" lon="10.97232868786644"><ele>1133.5</ele><time>2026-04-04T13:38:53Z</time></trkpt><trkpt lat="45.8724989617024" lon="10.972433592200517"><ele>1129.0</ele><time>2026-04-04T13:38:54Z</time></trkpt><trkpt lat="45.872562254807384" lon="10.972519716675892"><ele>1132.3333333333333</ele><time>2026-04-04T13:38:55Z</time></trkpt><trkpt lat="45.87260495437182" lon="10.972603147126904"><ele>1135.6666666666665</ele><time>2026-04-04T13:38:56Z</time></trkpt><trkpt lat="45.87264932345772" lon="10.972703046371654"><ele>1139.0</ele><time>2026-04-04T13:38:57Z</time></trkpt><trkpt lat="45.87274439763343" lon="10.972831883354068"><ele>1142.3333333333333</ele><time>2026-04-04T13:38:59Z</time></trkpt><trkpt lat="45.872792278574465" lon="10.972908305995997"><ele>1145.6666666666667</ele><time>2026-04-04T13:39:00Z</time></trkpt><trkpt lat="45.872855365930256" lon="10.972989491374939"><ele>1149.0</ele><time>2026-04-04T13:39:01Z</time></trkpt><trkpt lat="45.87291353371143" lon="10.97306374502402"><ele>1149.0</ele><time>2026-04-04T13:39:02Z</time></trkpt><trkpt lat="45.872956244890126" lon="10.973151851630655"><ele>1149.0</ele><time>2026-04-04T13:39:03Z</time></trkpt><trkpt lat="45.87299533788085" lon="10.973239170845261"><ele>1149.0</ele><time>2026-04-04T13:39:04Z</time></trkpt><trkpt lat="45.87302682667183" lon="10.973339293031598"><ele>1149.0</ele><time>2026-04-04T13:39:05Z</time></trkpt><trkpt lat="45.873059852900745" lon="10.973446059689682"><ele>1149.0</ele><time>2026-04-04T13:39:06Z</time></trkpt><trkpt lat="45.87312020737113" lon="10.97354072832057"><ele>1149.0</ele><time>2026-04-04T13:39:07Z</time></trkpt><trkpt lat="45.87318217438476" lon="10.973621251625104"><ele>1146.8333333333333</ele><time>2026-04-04T13:39:08Z</time></trkpt><trkpt lat="45.87323658433822" lon="10.973707435693663"><ele>1144.6666666666667</ele><time>2026-04-04T13:39:09Z</time></trkpt><trkpt lat="45.873287364124245" lon="10.973787282899432"><ele>1142.5</ele><time>2026-04-04T13:39:10Z</time></trkpt><trkpt lat="45.87333932351995" lon="10.973879790076063"><ele>1140.3333333333335</ele><time>2026-04-04T13:39:11Z</time></trkpt><trkpt lat="45.87339535183338" lon="10.973966713683033"><ele>1138.1666666666667</ele><time>2026-04-04T13:39:12Z</time></trkpt><trkpt lat="45.87344224672771" lon="10.974059920207054"><ele>1136.0</ele><time>2026-04-04T13:39:13Z</time></trkpt><trkpt lat="45.87353063482624" lon="10.97410815780986"><ele>1136.0</ele><time>2026-04-04T13:39:14Z</time></trkpt><trkpt lat="45.873611680828894" lon="10.974166152580302"><ele>1136.0</ele><time>2026-04-04T13:39:15Z</time></trkpt><trkpt lat="45.87369631723301" lon="10.974232491834131"><ele>1136.0</ele><time>2026-04-04T13:39:16Z</time></trkpt><trkpt lat="45.873776494790306" lon="10.974296091241072"><ele>1136.0</ele><time>2026-04-04T13:39:17Z</time></trkpt><trkpt lat="45.87385216135031" lon="10.974343900753658"><ele>1136.0</ele><time>2026-04-04T13:39:18Z</time></trkpt><trkpt lat="45.87392008730122" lon="10.974415852536042"><ele>1136.0</ele><time>2026-04-04T13:39:19Z</time></trkpt><trkpt lat="45.87397749541849" lon="10.974489095933897"><ele>1129.6666666666667</ele><time>2026-04-04T13:39:20Z</time></trkpt><trkpt lat="45.87404449222169" lon="10.974557026016026"><ele>1123.3333333333335</ele><time>2026-04-04T13:39:21Z</time></trkpt><trkpt lat="45.874097501694266" lon="10.974614135507293"><ele>1117.0</ele><time>2026-04-04T13:39:22Z</time></trkpt><trkpt lat="45.87415815850656" lon="10.974751795243558"><ele>1110.6666666666667</ele><time>2026-04-04T13:39:24Z</time></trkpt><trkpt lat="45.87413742921491" lon="10.974884423674744"><ele>1104.3333333333333</ele><time>2026-04-04T13:39:25Z</time></trkpt><trkpt lat="45.87414215687056" lon="10.974999667509321"><ele>1098.0</ele><time>2026-04-04T13:39:26Z</time></trkpt><trkpt lat="45.874179767942" lon="10.975087811896513"><ele>1101.6666666666667</ele><time>2026-04-04T13:39:27Z</time></trkpt><trkpt lat="45.87428217981266" lon="10.975174974249493"><ele>1105.3333333333333</ele><time>2026-04-04T13:39:29Z</time></trkpt><trkpt lat="45.87432845959907" lon="10.975245070165219"><ele>1109.0</ele><time>2026-04-04T13:39:31Z</time></trkpt><trkpt lat="45.87440791358646" lon="10.975356621885512"><ele>1112.6666666666665</ele><time>2026-04-04T13:39:34Z</time></trkpt><trkpt lat="45.87446038606239" lon="10.975421043524419"><ele>1116.3333333333333</ele><time>2026-04-04T13:39:35Z</time></trkpt><trkpt lat="45.87452286317055" lon="10.975495440812548"><ele>1120.0</ele><time>2026-04-04T13:39:36Z</time></trkpt><trkpt lat="45.87458140634404" lon="10.975588680643908"><ele>1120.0</ele><time>2026-04-04T13:39:37Z</time></trkpt><trkpt lat="45.87462806811947" lon="10.975689669561222"><ele>1120.0</ele><time>2026-04-04T13:39:38Z</time></trkpt><trkpt lat="45.874670552959415" lon="10.975819442008207"><ele>1120.0</ele><time>2026-04-04T13:39:38.999Z</time></trkpt><trkpt lat="45.874723071839604" lon="10.975938694560018"><ele>1120.0</ele><time>2026-04-04T13:39:39.999Z</time></trkpt><trkpt lat="45.87476821677998" lon="10.976034545316924"><ele>1120.0</ele><time>2026-04-04T13:39:40.999Z</time></trkpt><trkpt lat="45.87486625001461" lon="10.97611694215207"><ele>1122.0</ele><time>2026-04-04T13:39:42.999Z</time></trkpt><trkpt lat="45.87501713007101" lon="10.97611258301075"><ele>1124.0</ele><time>2026-04-04T13:39:44.999Z</time></trkpt><trkpt lat="45.87510926609186" lon="10.976114516435135"><ele>1126.0</ele><time>2026-04-04T13:39:45.999Z</time></trkpt><trkpt lat="45.87521748166815" lon="10.97611317680724"><ele>1128.0</ele><time>2026-04-04T13:39:46.999Z</time></trkpt><trkpt lat="45.875307056128875" lon="10.97610951942428"><ele>1130.0</ele><time>2026-04-04T13:39:47.999Z</time></trkpt><trkpt lat="45.87543923256455" lon="10.976146186223692"><ele>1130.0</ele><time>2026-04-04T13:39:50Z</time></trkpt><trkpt lat="45.875499592511204" lon="10.976218481337687"><ele>1130.0</ele><time>2026-04-04T13:39:51Z</time></trkpt><trkpt lat="45.87555408509971" lon="10.976306525915717"><ele>1130.0</ele><time>2026-04-04T13:39:52Z</time></trkpt><trkpt lat="45.875580548084216" lon="10.976402202031325"><ele>1130.0</ele><time>2026-04-04T13:39:53Z</time></trkpt><trkpt lat="45.87561570717698" lon="10.976500157375021"><ele>1130.0</ele><time>2026-04-04T13:39:54Z</time></trkpt><trkpt lat="45.87565202898669" lon="10.976594938943302"><ele>1130.0</ele><time>2026-04-04T13:39:55Z</time></trkpt><trkpt lat="45.87571647825893" lon="10.976682887490563"><ele>1132.75</ele><time>2026-04-04T13:39:56Z</time></trkpt><trkpt lat="45.87583392999553" lon="10.97678218600582"><ele>1135.5</ele><time>2026-04-04T13:39:57Z</time></trkpt><trkpt lat="45.8759803409737" lon="10.976893128381509"><ele>1138.25</ele><time>2026-04-04T13:39:58Z</time></trkpt><trkpt lat="45.87608777528776" lon="10.976961085700982"><ele>1141.0</ele><time>2026-04-04T13:39:59Z</time></trkpt><trkpt lat="45.87618754697118" lon="10.977024596478904"><ele>1141.0</ele><time>2026-04-04T13:40:00Z</time></trkpt><trkpt lat="45.87627805003082" lon="10.977085025277548"><ele>1141.0</ele><time>2026-04-04T13:40:01Z</time></trkpt><trkpt lat="45.87636714533046" lon="10.977143484500521"><ele>1141.0</ele><time>2026-04-04T13:40:02Z</time></trkpt><trkpt lat="45.87644856269085" lon="10.977204989097462"><ele>1141.0</ele><time>2026-04-04T13:40:03Z</time></trkpt><trkpt lat="45.876530736255525" lon="10.97731338546473"><ele>1141.0</ele><time>2026-04-04T13:40:04Z</time></trkpt><trkpt lat="45.87660635927034" lon="10.977413723069025"><ele>1141.0</ele><time>2026-04-04T13:40:05Z</time></trkpt><trkpt lat="45.87665486747489" lon="10.97750037960399"><ele>1141.0</ele><time>2026-04-04T13:40:06Z</time></trkpt><trkpt lat="45.87670301636163" lon="10.97756090988418"><ele>1141.0</ele><time>2026-04-04T13:40:07Z</time></trkpt><trkpt lat="45.876816582025256" lon="10.977650141312441"><ele>1141.0</ele><time>2026-04-04T13:40:09Z</time></trkpt><trkpt lat="45.87691434636673" lon="10.977692452083852"><ele>1141.0</ele><time>2026-04-04T13:40:10Z</time></trkpt><trkpt lat="45.877026566408055" lon="10.97773531817623"><ele>1137.2</ele><time>2026-04-04T13:40:11Z</time></trkpt><trkpt lat="45.877125375371094" lon="10.977800561226202"><ele>1133.3999999999999</ele><time>2026-04-04T13:40:12Z</time></trkpt><trkpt lat="45.8772136797306" lon="10.977857770970465"><ele>1129.6</ele><time>2026-04-04T13:40:13Z</time></trkpt><trkpt lat="45.87730013514438" lon="10.977900381651837"><ele>1125.8</ele><time>2026-04-04T13:40:14Z</time></trkpt><trkpt lat="45.87738949607351" lon="10.977916727325256"><ele>1122.0</ele><time>2026-04-04T13:40:15Z</time></trkpt><trkpt lat="45.87747719413186" lon="10.97792988040652"><ele>1126.75</ele><time>2026-04-04T13:40:16Z</time></trkpt><trkpt lat="45.877612875404154" lon="10.977911195814942"><ele>1131.5</ele><time>2026-04-04T13:40:17Z</time></trkpt><trkpt lat="45.8777482121296" lon="10.977899277429715"><ele>1136.25</ele><time>2026-04-04T13:40:18Z</time></trkpt><trkpt lat="45.877848177992085" lon="10.977904442272033"><ele>1141.0</ele><time>2026-04-04T13:40:19Z</time></trkpt><trkpt lat="45.877933710133334" lon="10.977924642980842"><ele>1141.0</ele><time>2026-04-04T13:40:20Z</time></trkpt><trkpt lat="45.87801771653584" lon="10.977941082430497"><ele>1141.0</ele><time>2026-04-04T13:40:21Z</time></trkpt><trkpt lat="45.8781037784352" lon="10.977935353074994"><ele>1141.0</ele><time>2026-04-04T13:40:22Z</time></trkpt><trkpt lat="45.87819748156647" lon="10.977904354928924"><ele>1141.0</ele><time>2026-04-04T13:40:23Z</time></trkpt><trkpt lat="45.87830028047204" lon="10.977864174463365"><ele>1141.0</ele><time>2026-04-04T13:40:24Z</time></trkpt><trkpt lat="45.87840801668434" lon="10.977841326916518"><ele>1148.2</ele><time>2026-04-04T13:40:25Z</time></trkpt><trkpt lat="45.87849472790959" lon="10.97784486620953"><ele>1155.3999999999999</ele><time>2026-04-04T13:40:26Z</time></trkpt><trkpt lat="45.87855954460772" lon="10.977825481869335"><ele>1162.6</ele><time>2026-04-04T13:40:27Z</time></trkpt><trkpt lat="45.87866075209077" lon="10.977959651549645"><ele>1169.8</ele><time>2026-04-04T13:40:29Z</time></trkpt><trkpt lat="45.878712519825775" lon="10.978097128156312"><ele>1177.0</ele><time>2026-04-04T13:40:30Z</time></trkpt><trkpt lat="45.87876754834187" lon="10.978208232843123"><ele>1177.0</ele><time>2026-04-04T13:40:31Z</time></trkpt><trkpt lat="45.87883475849562" lon="10.978319737670464"><ele>1177.0</ele><time>2026-04-04T13:40:32Z</time></trkpt><trkpt lat="45.87890999275879" lon="10.978413080249455"><ele>1177.0</ele><time>2026-04-04T13:40:33Z</time></trkpt><trkpt lat="45.87899125760292" lon="10.97848548339445"><ele>1177.0</ele><time>2026-04-04T13:40:34Z</time></trkpt><trkpt lat="45.87908172386804" lon="10.978558239695039"><ele>1177.0</ele><time>2026-04-04T13:40:35Z</time></trkpt><trkpt lat="45.879175843862505" lon="10.978629154143881"><ele>1175.1666666666665</ele><time>2026-04-04T13:40:36Z</time></trkpt><trkpt lat="45.87925961186288" lon="10.978703811915794"><ele>1173.3333333333333</ele><time>2026-04-04T13:40:37Z</time></trkpt><trkpt lat="45.879326357617465" lon="10.978788188158125"><ele>1171.5</ele><time>2026-04-04T13:40:38Z</time></trkpt><trkpt lat="45.87938215817812" lon="10.978840337480971"><ele>1169.6666666666667</ele><time>2026-04-04T13:40:39Z</time></trkpt><trkpt lat="45.879440494090446" lon="10.978906600846082"><ele>1167.8333333333335</ele><time>2026-04-04T13:40:41Z</time></trkpt><trkpt lat="45.87951175290736" lon="10.978990044100291"><ele>1166.0</ele><time>2026-04-04T13:40:45Z</time></trkpt><trkpt lat="45.87958331009482" lon="10.979018050307896"><ele>1166.0</ele><time>2026-04-04T13:40:47Z</time></trkpt><trkpt lat="45.87966905964807" lon="10.978993670008043"><ele>1166.0</ele><time>2026-04-04T13:42:22Z</time></trkpt><trkpt lat="45.879752700889895" lon="10.978934912698646"><ele>1166.0</ele><time>2026-04-04T13:42:23Z</time></trkpt><trkpt lat="45.87982344875268" lon="10.978889580680116"><ele>1166.0</ele><time>2026-04-04T13:42:24Z</time></trkpt><trkpt lat="45.879908349242385" lon="10.978862052514248"><ele>1166.0</ele><time>2026-04-04T13:42:25Z</time></trkpt><trkpt lat="45.87998624712261" lon="10.97883343964849"><ele>1166.0</ele><time>2026-04-04T13:42:26Z</time></trkpt><trkpt lat="45.88006858723992" lon="10.978820602498947"><ele>1171.2</ele><time>2026-04-04T13:42:27Z</time></trkpt><trkpt lat="45.8801597955233" lon="10.978823805122579"><ele>1176.3999999999999</ele><time>2026-04-04T13:42:28Z</time></trkpt><trkpt lat="45.88028248792045" lon="10.978815838970311"><ele>1181.6</ele><time>2026-04-04T13:42:29Z</time></trkpt><trkpt lat="45.88041113461373" lon="10.978818975071997"><ele>1186.8</ele><time>2026-04-04T13:42:30Z</time></trkpt><trkpt lat="45.88049364611721" lon="10.978826354943095"><ele>1192.0</ele><time>2026-04-04T13:42:31Z</time></trkpt><trkpt lat="45.88056005651502" lon="10.9788461281217"><ele>1192.0</ele><time>2026-04-04T13:42:32Z</time></trkpt><trkpt lat="45.88062438203929" lon="10.97888274175155"><ele>1192.0</ele><time>2026-04-04T13:42:33Z</time></trkpt><trkpt lat="45.8806856945541" lon="10.978932346919224"><ele>1192.0</ele><time>2026-04-04T13:42:34Z</time></trkpt><trkpt lat="45.88076813516057" lon="10.979002848669225"><ele>1192.0</ele><time>2026-04-04T13:42:35Z</time></trkpt><trkpt lat="45.88085016696488" lon="10.97905872691817"><ele>1192.0</ele><time>2026-04-04T13:42:36Z</time></trkpt><trkpt lat="45.88093164732162" lon="10.979098108988348"><ele>1192.0</ele><time>2026-04-04T13:42:37Z</time></trkpt><trkpt lat="45.88100443893041" lon="10.979140835621156"><ele>1193.0</ele><time>2026-04-04T13:42:38Z</time></trkpt><trkpt lat="45.8810845474287" lon="10.979177084177008"><ele>1194.0</ele><time>2026-04-04T13:42:39Z</time></trkpt><trkpt lat="45.881165487085624" lon="10.97921886704916"><ele>1195.0</ele><time>2026-04-04T13:42:40Z</time></trkpt><trkpt lat="45.88122569905529" lon="10.97927929805576"><ele>1196.0</ele><time>2026-04-04T13:42:41Z</time></trkpt><trkpt lat="45.8812690622427" lon="10.979355155689444"><ele>1197.0</ele><time>2026-04-04T13:42:42Z</time></trkpt><trkpt lat="45.881314000665874" lon="10.979427688410526"><ele>1198.0</ele><time>2026-04-04T13:42:43Z</time></trkpt><trkpt lat="45.88137659573527" lon="10.979501749594736"><ele>1198.0</ele><time>2026-04-04T13:42:44Z</time></trkpt><trkpt lat="45.881432753013165" lon="10.979594499543198"><ele>1198.0</ele><time>2026-04-04T13:42:45Z</time></trkpt><trkpt lat="45.88150798965263" lon="10.979662474101563"><ele>1198.0</ele><time>2026-04-04T13:42:46Z</time></trkpt><trkpt lat="45.881567573522155" lon="10.97974058482612"><ele>1198.0</ele><time>2026-04-04T13:42:47Z</time></trkpt><trkpt lat="45.88163088954613" lon="10.979823907126496"><ele>1198.0</ele><time>2026-04-04T13:42:48Z</time></trkpt><trkpt lat="45.8816924851377" lon="10.979870791989475"><ele>1198.0</ele><time>2026-04-04T13:42:49Z</time></trkpt><trkpt lat="45.881756111344586" lon="10.979876725388038"><ele>1197.0</ele><time>2026-04-04T13:42:50Z</time></trkpt><trkpt lat="45.88184209839553" lon="10.97991164922125"><ele>1196.0</ele><time>2026-04-04T13:42:51Z</time></trkpt><trkpt lat="45.881908526829456" lon="10.979951459619146"><ele>1195.0</ele><time>2026-04-04T13:42:52Z</time></trkpt><trkpt lat="45.881973451397215" lon="10.979994988453726"><ele>1194.0</ele><time>2026-04-04T13:42:53Z</time></trkpt><trkpt lat="45.88203368706062" lon="10.980044891318743"><ele>1193.0</ele><time>2026-04-04T13:42:54Z</time></trkpt><trkpt lat="45.882134752398294" lon="10.980047102182098"><ele>1192.0</ele><time>2026-04-04T13:42:56Z</time></trkpt><trkpt lat="45.88219898561043" lon="10.980051454963377"><ele>1192.0</ele><time>2026-04-04T13:42:57Z</time></trkpt><trkpt lat="45.8822733587489" lon="10.98007785132503"><ele>1192.0</ele><time>2026-04-04T13:42:58Z</time></trkpt><trkpt lat="45.8823663664659" lon="10.980121994578372"><ele>1192.0</ele><time>2026-04-04T13:42:59Z</time></trkpt><trkpt lat="45.8824704248091" lon="10.980142778252265"><ele>1192.0</ele><time>2026-04-04T13:43:00Z</time></trkpt><trkpt lat="45.88256672498099" lon="10.98018428030891"><ele>1192.0</ele><time>2026-04-04T13:43:01Z</time></trkpt><trkpt lat="45.88265588111054" lon="10.980228509729685"><ele>1194.2</ele><time>2026-04-04T13:43:02Z</time></trkpt><trkpt lat="45.88274630499776" lon="10.980254643246289"><ele>1196.4</ele><time>2026-04-04T13:43:03Z</time></trkpt><trkpt lat="45.88284901124638" lon="10.980264050269634"><ele>1198.6</ele><time>2026-04-04T13:43:04Z</time></trkpt><trkpt lat="45.88296338835851" lon="10.98026675469522"><ele>1200.8</ele><time>2026-04-04T13:43:05Z</time></trkpt><trkpt lat="45.88307775067653" lon="10.980260598075995"><ele>1203.0</ele><time>2026-04-04T13:43:06Z</time></trkpt><trkpt lat="45.88318260040207" lon="10.98023488170148"><ele>1203.0</ele><time>2026-04-04T13:43:07Z</time></trkpt><trkpt lat="45.88328486094619" lon="10.980207907549836"><ele>1203.0</ele><time>2026-04-04T13:43:08Z</time></trkpt><trkpt lat="45.88337832674667" lon="10.980192474710826"><ele>1203.0</ele><time>2026-04-04T13:43:09Z</time></trkpt><trkpt lat="45.883470011335454" lon="10.98019655924454"><ele>1203.0</ele><time>2026-04-04T13:43:10Z</time></trkpt><trkpt lat="45.8835805589591" lon="10.980200287529714"><ele>1203.0</ele><time>2026-04-04T13:43:12Z</time></trkpt><trkpt lat="45.88366341698153" lon="10.980163507016439"><ele>1203.0</ele><time>2026-04-04T13:43:13Z</time></trkpt><trkpt lat="45.883750703384614" lon="10.980137006682115"><ele>1203.0</ele><time>2026-04-04T13:43:14Z</time></trkpt><trkpt lat="45.88389021664282" lon="10.980078406294943"><ele>1203.0</ele><time>2026-04-04T13:43:16Z</time></trkpt><trkpt lat="45.88396901209384" lon="10.980037312988548"><ele>1203.0</ele><time>2026-04-04T13:43:17Z</time></trkpt><trkpt lat="45.88404902771509" lon="10.979949459886956"><ele>1203.0</ele><time>2026-04-04T13:43:18Z</time></trkpt><trkpt lat="45.88412198464196" lon="10.979865954636233"><ele>1203.0</ele><time>2026-04-04T13:43:19Z</time></trkpt><trkpt lat="45.884186973573506" lon="10.979782516467186"><ele>1203.0</ele><time>2026-04-04T13:43:20Z</time></trkpt><trkpt lat="45.88425175550626" lon="10.979678171981275"><ele>1203.0</ele><time>2026-04-04T13:43:21Z</time></trkpt><trkpt lat="45.88431799381054" lon="10.97957604135906"><ele>1203.0</ele><time>2026-04-04T13:43:22Z</time></trkpt><trkpt lat="45.88438014100354" lon="10.979460286075179"><ele>1203.0</ele><time>2026-04-04T13:43:23Z</time></trkpt><trkpt lat="45.884425218955144" lon="10.979363219297143"><ele>1200.6666666666667</ele><time>2026-04-04T13:43:24Z</time></trkpt><trkpt lat="45.88446397472307" lon="10.979261868130187"><ele>1198.3333333333333</ele><time>2026-04-04T13:43:25Z</time></trkpt><trkpt lat="45.88451055389689" lon="10.979168508498283"><ele>1196.0</ele><time>2026-04-04T13:43:26Z</time></trkpt><trkpt lat="45.884560552908255" lon="10.979075417508046"><ele>1193.6666666666665</ele><time>2026-04-04T13:43:27Z</time></trkpt><trkpt lat="45.88459505121209" lon="10.9789671901064"><ele>1191.3333333333333</ele><time>2026-04-04T13:43:28Z</time></trkpt><trkpt lat="45.88464068689755" lon="10.97885146285883"><ele>1189.0</ele><time>2026-04-04T13:43:29Z</time></trkpt><trkpt lat="45.8846686714628" lon="10.978763710305165"><ele>1189.0</ele><time>2026-04-04T13:43:30Z</time></trkpt><trkpt lat="45.88472053875235" lon="10.97867587973032"><ele>1189.0</ele><time>2026-04-04T13:43:31Z</time></trkpt><trkpt lat="45.884789327400654" lon="10.9786346313278"><ele>1189.0</ele><time>2026-04-04T13:43:33Z</time></trkpt><trkpt lat="45.884863203355906" lon="10.978674300638579"><ele>1189.0</ele><time>2026-04-04T13:43:34Z</time></trkpt><trkpt lat="45.884949709418" lon="10.978739650973543"><ele>1189.0</ele><time>2026-04-04T13:43:35Z</time></trkpt><trkpt lat="45.88506073849204" lon="10.978806047540095"><ele>1189.0</ele><time>2026-04-04T13:43:36Z</time></trkpt><trkpt lat="45.885195576479205" lon="10.978835297334578"><ele>1189.0</ele><time>2026-04-04T13:43:37Z</time></trkpt><trkpt lat="45.88532504292912" lon="10.978878263341963"><ele>1189.0</ele><time>2026-04-04T13:43:38Z</time></trkpt><trkpt lat="45.88543339999364" lon="10.978920710474272"><ele>1189.0</ele><time>2026-04-04T13:43:39Z</time></trkpt><trkpt lat="45.8855399146513" lon="10.978947903997225"><ele>1189.0</ele><time>2026-04-04T13:43:40Z</time></trkpt><trkpt lat="45.8856375645706" lon="10.978983419299295"><ele>1189.0</ele><time>2026-04-04T13:43:41Z</time></trkpt><trkpt lat="45.88571789795661" lon="10.979003313799309"><ele>1189.0</ele><time>2026-04-04T13:43:42Z</time></trkpt><trkpt lat="45.88578137274249" lon="10.97901994036761"><ele>1189.0</ele><time>2026-04-04T13:43:43Z</time></trkpt><trkpt lat="45.885881836981206" lon="10.979141699236289"><ele>1189.0</ele><time>2026-04-04T13:43:45Z</time></trkpt><trkpt lat="45.88591893651177" lon="10.979245194350622"><ele>1187.4</ele><time>2026-04-04T13:43:48Z</time></trkpt><trkpt lat="45.88591440853837" lon="10.979341868417277"><ele>1185.8000000000002</ele><time>2026-04-04T13:43:49Z</time></trkpt><trkpt lat="45.88590164511011" lon="10.979450347627843"><ele>1184.1999999999998</ele><time>2026-04-04T13:43:50Z</time></trkpt><trkpt lat="45.88589067398311" lon="10.97962736504512"><ele>1182.6</ele><time>2026-04-04T13:43:52Z</time></trkpt><trkpt lat="45.88594663470244" lon="10.979791617454644"><ele>1181.0</ele><time>2026-04-04T13:43:54Z</time></trkpt><trkpt lat="45.886006656395985" lon="10.979860229818447"><ele>1181.0</ele><time>2026-04-04T13:43:55Z</time></trkpt><trkpt lat="45.886071685935015" lon="10.979908029608723"><ele>1181.0</ele><time>2026-04-04T13:43:56Z</time></trkpt><trkpt lat="45.88613352160856" lon="10.979961061093498"><ele>1181.0</ele><time>2026-04-04T13:43:57Z</time></trkpt><trkpt lat="45.88618764282761" lon="10.980025092820123"><ele>1181.0</ele><time>2026-04-04T13:43:58Z</time></trkpt><trkpt lat="45.88624087264083" lon="10.980099974233614"><ele>1181.0</ele><time>2026-04-04T13:43:59Z</time></trkpt><trkpt lat="45.88629883724786" lon="10.980162865087093"><ele>1181.0</ele><time>2026-04-04T13:44:00Z</time></trkpt><trkpt lat="45.88635826204351" lon="10.980221390516387"><ele>1181.0</ele><time>2026-04-04T13:44:01Z</time></trkpt><trkpt lat="45.88641968113364" lon="10.980271934383257"><ele>1178.3333333333335</ele><time>2026-04-04T13:44:02Z</time></trkpt><trkpt lat="45.886480698383544" lon="10.980318598573508"><ele>1175.6666666666667</ele><time>2026-04-04T13:44:03Z</time></trkpt><trkpt lat="45.88659060693596" lon="10.980419101377159"><ele>1173.0</ele><time>2026-04-04T13:44:05Z</time></trkpt><trkpt lat="45.88665364755721" lon="10.980467870174639"><ele>1170.3333333333333</ele><time>2026-04-04T13:44:06Z</time></trkpt><trkpt lat="45.886721735383205" lon="10.980490404804382"><ele>1167.6666666666665</ele><time>2026-04-04T13:44:07Z</time></trkpt><trkpt lat="45.88679236532926" lon="10.980512550042768"><ele>1165.0</ele><time>2026-04-04T13:44:08Z</time></trkpt><trkpt lat="45.886856608568074" lon="10.980533236552807"><ele>1164.8333333333333</ele><time>2026-04-04T13:44:09Z</time></trkpt><trkpt lat="45.886928328446736" lon="10.980549101122138"><ele>1164.6666666666665</ele><time>2026-04-04T13:44:10Z</time></trkpt><trkpt lat="45.88705392182194" lon="10.980577622787035"><ele>1164.5</ele><time>2026-04-04T13:44:12Z</time></trkpt><trkpt lat="45.887117102100255" lon="10.980592855629688"><ele>1164.3333333333333</ele><time>2026-04-04T13:44:13Z</time></trkpt><trkpt lat="45.88718500793668" lon="10.980599220790156"><ele>1164.1666666666667</ele><time>2026-04-04T13:44:14Z</time></trkpt><trkpt lat="45.88725849375575" lon="10.980588869417884"><ele>1164.0</ele><time>2026-04-04T13:44:15Z</time></trkpt><trkpt lat="45.887345934087115" lon="10.980574677007823"><ele>1164.0</ele><time>2026-04-04T13:44:16Z</time></trkpt><trkpt lat="45.887447185995455" lon="10.980556213697298"><ele>1164.0</ele><time>2026-04-04T13:44:17Z</time></trkpt><trkpt lat="45.88754526476045" lon="10.980508240455123"><ele>1164.0</ele><time>2026-04-04T13:44:18Z</time></trkpt><trkpt lat="45.88763567083846" lon="10.980478493243064"><ele>1164.0</ele><time>2026-04-04T13:44:19Z</time></trkpt><trkpt lat="45.88770535504454" lon="10.980456824758381"><ele>1164.0</ele><time>2026-04-04T13:44:20Z</time></trkpt><trkpt lat="45.887781393350394" lon="10.980496064303619"><ele>1166.0</ele><time>2026-04-04T13:44:21Z</time></trkpt><trkpt lat="45.88786197265622" lon="10.980543222405268"><ele>1168.0</ele><time>2026-04-04T13:44:22Z</time></trkpt><trkpt lat="45.887930451050465" lon="10.98060618271989"><ele>1170.0</ele><time>2026-04-04T13:44:23Z</time></trkpt><trkpt lat="45.88805016921214" lon="10.980570564014933"><ele>1172.0</ele><time>2026-04-04T13:44:24Z</time></trkpt><trkpt lat="45.888134702655535" lon="10.980571998859961"><ele>1174.0</ele><time>2026-04-04T13:44:25Z</time></trkpt><trkpt lat="45.88821897546594" lon="10.98059209971208"><ele>1174.0</ele><time>2026-04-04T13:44:26Z</time></trkpt><trkpt lat="45.88831806513212" lon="10.980600503330548"><ele>1174.0</ele><time>2026-04-04T13:44:27Z</time></trkpt><trkpt lat="45.88843971372506" lon="10.980639593128585"><ele>1174.0</ele><time>2026-04-04T13:44:28Z</time></trkpt><trkpt lat="45.88853569753774" lon="10.980689033958669"><ele>1174.0</ele><time>2026-04-04T13:44:29Z</time></trkpt><trkpt lat="45.88863125462729" lon="10.980733838589218"><ele>1174.0</ele><time>2026-04-04T13:44:30Z</time></trkpt><trkpt lat="45.88873432705492" lon="10.980766733987034"><ele>1178.6000000000001</ele><time>2026-04-04T13:44:31Z</time></trkpt><trkpt lat="45.88882054800311" lon="10.980770058674393"><ele>1183.2</ele><time>2026-04-04T13:44:32Z</time></trkpt><trkpt lat="45.888911609623996" lon="10.980745060338753"><ele>1187.8000000000002</ele><time>2026-04-04T13:44:33Z</time></trkpt><trkpt lat="45.88901163942753" lon="10.980757088167762"><ele>1192.4</ele><time>2026-04-04T13:44:34Z</time></trkpt><trkpt lat="45.88911245647129" lon="10.980770764776603"><ele>1197.0</ele><time>2026-04-04T13:44:35Z</time></trkpt><trkpt lat="45.88919159281337" lon="10.98073953488676"><ele>1197.0</ele><time>2026-04-04T13:44:36Z</time></trkpt><trkpt lat="45.88924966879692" lon="10.980698286072622"><ele>1197.0</ele><time>2026-04-04T13:44:37Z</time></trkpt><trkpt lat="45.88934310511895" lon="10.98074420770478"><ele>1197.0</ele><time>2026-04-04T13:44:38Z</time></trkpt><trkpt lat="45.88943121283756" lon="10.98083305208656"><ele>1197.0</ele><time>2026-04-04T13:44:39Z</time></trkpt><trkpt lat="45.8895256900278" lon="10.980906234710275"><ele>1197.0</ele><time>2026-04-04T13:44:40Z</time></trkpt><trkpt lat="45.8896508675929" lon="10.980966864068815"><ele>1197.5</ele><time>2026-04-04T13:44:41Z</time></trkpt><trkpt lat="45.88978471611606" lon="10.981054725367338"><ele>1198.0</ele><time>2026-04-04T13:44:42Z</time></trkpt><trkpt lat="45.88989617340256" lon="10.981120449557476"><ele>1198.5</ele><time>2026-04-04T13:44:43Z</time></trkpt><trkpt lat="45.88999719428264" lon="10.981167339845804"><ele>1199.0</ele><time>2026-04-04T13:44:44Z</time></trkpt><trkpt lat="45.8901088944079" lon="10.981195426420065"><ele>1204.5</ele><time>2026-04-04T13:44:45Z</time></trkpt><trkpt lat="45.89022968247541" lon="10.981227111090929"><ele>1210.0</ele><time>2026-04-04T13:44:46Z</time></trkpt><trkpt lat="45.89033055811382" lon="10.981252878562282"><ele>1215.5</ele><time>2026-04-04T13:44:47Z</time></trkpt><trkpt lat="45.8904501939213" lon="10.9812530593783"><ele>1221.0</ele><time>2026-04-04T13:44:48Z</time></trkpt><trkpt lat="45.8905593391313" lon="10.981288485747541"><ele>1221.0</ele><time>2026-04-04T13:44:49Z</time></trkpt><trkpt lat="45.89066463669377" lon="10.981319973068063"><ele>1221.0</ele><time>2026-04-04T13:44:50Z</time></trkpt><trkpt lat="45.89077689244929" lon="10.981330436296554"><ele>1221.0</ele><time>2026-04-04T13:44:51Z</time></trkpt><trkpt lat="45.89089260661514" lon="10.981358366196718"><ele>1221.0</ele><time>2026-04-04T13:44:52Z</time></trkpt><trkpt lat="45.8909870373447" lon="10.981388247153944"><ele>1221.0</ele><time>2026-04-04T13:44:53Z</time></trkpt><trkpt lat="45.891104290825" lon="10.981428677505873"><ele>1223.5</ele><time>2026-04-04T13:44:54Z</time></trkpt><trkpt lat="45.89119750188658" lon="10.9814623212161"><ele>1226.0</ele><time>2026-04-04T13:44:55Z</time></trkpt><trkpt lat="45.89131838021287" lon="10.981518913675037"><ele>1228.5</ele><time>2026-04-04T13:44:56Z</time></trkpt><trkpt lat="45.891424923670684" lon="10.981592872412513"><ele>1231.0</ele><time>2026-04-04T13:44:57Z</time></trkpt><trkpt lat="45.8915536341642" lon="10.981689942413059"><ele>1231.0</ele><time>2026-04-04T13:44:58Z</time></trkpt><trkpt lat="45.89168746895468" lon="10.981804126636328"><ele>1231.0</ele><time>2026-04-04T13:44:59Z</time></trkpt><trkpt lat="45.891802185923545" lon="10.981940437847976"><ele>1231.0</ele><time>2026-04-04T13:45:00Z</time></trkpt><trkpt lat="45.891922627924785" lon="10.982074778561799"><ele>1235.6</ele><time>2026-04-04T13:45:01Z</time></trkpt><trkpt lat="45.89203232438998" lon="10.982151004852465"><ele>1240.1999999999998</ele><time>2026-04-04T13:45:02Z</time></trkpt><trkpt lat="45.892123177049285" lon="10.982227002408578"><ele>1244.8000000000002</ele><time>2026-04-04T13:45:03Z</time></trkpt><trkpt lat="45.89219566812535" lon="10.982296251502973"><ele>1249.4</ele><time>2026-04-04T13:45:04Z</time></trkpt><trkpt lat="45.89228300910749" lon="10.982386148410214"><ele>1254.0</ele><time>2026-04-04T13:45:05Z</time></trkpt><trkpt lat="45.892385519379694" lon="10.982464606718478"><ele>1252.25</ele><time>2026-04-04T13:45:06Z</time></trkpt><trkpt lat="45.892495585016114" lon="10.982554634599195"><ele>1250.5</ele><time>2026-04-04T13:45:07Z</time></trkpt><trkpt lat="45.89260494012994" lon="10.982655098094599"><ele>1248.75</ele><time>2026-04-04T13:45:08Z</time></trkpt><trkpt lat="45.89271170456502" lon="10.982731358746017"><ele>1247.0</ele><time>2026-04-04T13:45:09Z</time></trkpt><trkpt lat="45.89279319449976" lon="10.982799046853623"><ele>1247.0</ele><time>2026-04-04T13:45:10Z</time></trkpt><trkpt lat="45.892910241862815" lon="10.982865578582384"><ele>1247.0</ele><time>2026-04-04T13:45:11Z</time></trkpt><trkpt lat="45.89303317885654" lon="10.982941791812248"><ele>1247.0</ele><time>2026-04-04T13:45:12Z</time></trkpt><trkpt lat="45.89317133880952" lon="10.983021444689856"><ele>1247.0</ele><time>2026-04-04T13:45:13Z</time></trkpt><trkpt lat="45.89329393866105" lon="10.983061486393215"><ele>1247.0</ele><time>2026-04-04T13:45:14Z</time></trkpt><trkpt lat="45.89340295341627" lon="10.983122143179362"><ele>1247.0</ele><time>2026-04-04T13:45:15Z</time></trkpt><trkpt lat="45.89349243082744" lon="10.983169301260402"><ele>1247.0</ele><time>2026-04-04T13:45:16Z</time></trkpt><trkpt lat="45.89357755457571" lon="10.983207757838384"><ele>1247.0</ele><time>2026-04-04T13:45:17Z</time></trkpt><trkpt lat="45.89365860601488" lon="10.98324853308775"><ele>1247.0</ele><time>2026-04-04T13:45:18Z</time></trkpt><trkpt lat="45.89374493987742" lon="10.98329075301909"><ele>1249.3333333333335</ele><time>2026-04-04T13:45:20Z</time></trkpt><trkpt lat="45.89385816379178" lon="10.983299184683712"><ele>1251.6666666666667</ele><time>2026-04-04T13:48:16Z</time></trkpt><trkpt lat="45.89392572403802" lon="10.983342027804083"><ele>1254.0</ele><time>2026-04-04T13:48:17Z</time></trkpt><trkpt lat="45.89400604638155" lon="10.983352557703295"><ele>1256.3333333333333</ele><time>2026-04-04T13:48:18Z</time></trkpt><trkpt lat="45.89407978851305" lon="10.983414657663754"><ele>1258.6666666666665</ele><time>2026-04-04T13:48:19Z</time></trkpt><trkpt lat="45.894159716040846" lon="10.983462439560368"><ele>1261.0</ele><time>2026-04-04T13:48:20Z</time></trkpt><trkpt lat="45.894243461432666" lon="10.983516273812437"><ele>1257.0</ele><time>2026-04-04T13:48:21Z</time></trkpt><trkpt lat="45.8943320109367" lon="10.983563383219229"><ele>1253.0</ele><time>2026-04-04T13:48:22Z</time></trkpt><trkpt lat="45.89441967777544" lon="10.98359805487979"><ele>1249.0</ele><time>2026-04-04T13:48:23Z</time></trkpt><trkpt lat="45.89451653601565" lon="10.983637231776651"><ele>1245.0</ele><time>2026-04-04T13:48:24Z</time></trkpt><trkpt lat="45.89461104228518" lon="10.983671515768247"><ele>1241.0</ele><time>2026-04-04T13:48:25Z</time></trkpt><trkpt lat="45.89472143498972" lon="10.983688705135487"><ele>1241.0</ele><time>2026-04-04T13:48:26Z</time></trkpt><trkpt lat="45.89479885231742" lon="10.983720319356397"><ele>1241.0</ele><time>2026-04-04T13:48:27Z</time></trkpt><trkpt lat="45.894860824046724" lon="10.983768362764836"><ele>1241.0</ele><time>2026-04-04T13:48:28Z</time></trkpt><trkpt lat="45.894937761662575" lon="10.98380275773066"><ele>1241.0</ele><time>2026-04-04T13:48:29Z</time></trkpt><trkpt lat="45.89502145360252" lon="10.98384876731085"><ele>1241.0</ele><time>2026-04-04T13:48:30Z</time></trkpt><trkpt lat="45.89509383899187" lon="10.98390786041236"><ele>1241.0</ele><time>2026-04-04T13:48:31Z</time></trkpt><trkpt lat="45.89517544709685" lon="10.983946868525802"><ele>1244.8</ele><time>2026-04-04T13:48:32Z</time></trkpt><trkpt lat="45.89524825426001" lon="10.984000315387132"><ele>1248.6</ele><time>2026-04-04T13:48:33Z</time></trkpt><trkpt lat="45.895334922842416" lon="10.984050513534473"><ele>1252.4</ele><time>2026-04-04T13:48:34Z</time></trkpt><trkpt lat="45.89542373320313" lon="10.984118990661235"><ele>1256.2</ele><time>2026-04-04T13:48:35Z</time></trkpt><trkpt lat="45.89552056550574" lon="10.984165096097497"><ele>1260.0</ele><time>2026-04-04T13:48:36Z</time></trkpt><trkpt lat="45.89561795351537" lon="10.984179601094722"><ele>1252.75</ele><time>2026-04-04T13:48:37Z</time></trkpt><trkpt lat="45.89571677160776" lon="10.984200159568973"><ele>1245.5</ele><time>2026-04-04T13:48:38Z</time></trkpt><trkpt lat="45.89582693863217" lon="10.984243891427743"><ele>1238.25</ele><time>2026-04-04T13:48:39Z</time></trkpt><trkpt lat="45.895921285200416" lon="10.984290298335381"><ele>1231.0</ele><time>2026-04-04T13:48:40Z</time></trkpt><trkpt lat="45.896057826229914" lon="10.984273966965755"><ele>1231.0</ele><time>2026-04-04T13:48:41Z</time></trkpt><trkpt lat="45.896147871561375" lon="10.984292384227905"><ele>1231.0</ele><time>2026-04-04T13:48:42Z</time></trkpt><trkpt lat="45.89622153412951" lon="10.984336727445113"><ele>1231.0</ele><time>2026-04-04T13:48:43Z</time></trkpt><trkpt lat="45.896327287212706" lon="10.984332761231178"><ele>1231.0</ele><time>2026-04-04T13:48:44Z</time></trkpt><trkpt lat="45.89643147039603" lon="10.984347898028739"><ele>1231.0</ele><time>2026-04-04T13:48:45Z</time></trkpt><trkpt lat="45.89652588497289" lon="10.984347452992328"><ele>1231.0</ele><time>2026-04-04T13:48:46Z</time></trkpt><trkpt lat="45.896608910830125" lon="10.98429885262912"><ele>1231.0</ele><time>2026-04-04T13:48:47Z</time></trkpt><trkpt lat="45.89669508187713" lon="10.984271619521541"><ele>1231.0</ele><time>2026-04-04T13:48:48Z</time></trkpt><trkpt lat="45.89679158469885" lon="10.984210914335726"><ele>1231.0</ele><time>2026-04-04T13:48:49Z</time></trkpt><trkpt lat="45.896881776177835" lon="10.984184359607015"><ele>1231.0</ele><time>2026-04-04T13:48:50Z</time></trkpt><trkpt lat="45.89696734203607" lon="10.984169714297241"><ele>1233.5</ele><time>2026-04-04T13:48:51Z</time></trkpt><trkpt lat="45.897053804230325" lon="10.984164921052896"><ele>1236.0</ele><time>2026-04-04T13:48:52Z</time></trkpt><trkpt lat="45.89714361261647" lon="10.984175943853318"><ele>1238.5</ele><time>2026-04-04T13:48:53Z</time></trkpt><trkpt lat="45.89722095046833" lon="10.984170687121043"><ele>1241.0</ele><time>2026-04-04T13:48:54Z</time></trkpt><trkpt lat="45.89730707341984" lon="10.984187834795463"><ele>1243.5</ele><time>2026-04-04T13:48:55Z</time></trkpt><trkpt lat="45.897384371316186" lon="10.984262658916231"><ele>1246.0</ele><time>2026-04-04T13:48:56Z</time></trkpt><trkpt lat="45.89749535808445" lon="10.984329335822167"><ele>1249.6</ele><time>2026-04-04T13:48:57Z</time></trkpt><trkpt lat="45.897591826531915" lon="10.984362066640253"><ele>1253.1999999999998</ele><time>2026-04-04T13:48:58Z</time></trkpt><trkpt lat="45.89769180773015" lon="10.98440852328293"><ele>1256.8000000000002</ele><time>2026-04-04T13:48:59Z</time></trkpt><trkpt lat="45.897787165195204" lon="10.984478243748953"><ele>1260.4</ele><time>2026-04-04T13:49:00Z</time></trkpt><trkpt lat="45.897871124941275" lon="10.984537024693768"><ele>1264.0</ele><time>2026-04-04T13:49:01Z</time></trkpt><trkpt lat="45.89798044043055" lon="10.984530471861605"><ele>1264.0</ele><time>2026-04-04T13:49:02Z</time></trkpt><trkpt lat="45.898079607218946" lon="10.984504063413471"><ele>1264.0</ele><time>2026-04-04T13:49:03Z</time></trkpt><trkpt lat="45.89815608509636" lon="10.984479248787377"><ele>1264.0</ele><time>2026-04-04T13:49:04Z</time></trkpt><trkpt lat="45.89821980511692" lon="10.98445459643421"><ele>1264.0</ele><time>2026-04-04T13:49:05Z</time></trkpt><trkpt lat="45.89829933983275" lon="10.98447674779798"><ele>1264.0</ele><time>2026-04-04T13:49:07Z</time></trkpt><trkpt lat="45.89838635241981" lon="10.984612064061581"><ele>1264.0</ele><time>2026-04-04T13:49:09Z</time></trkpt><trkpt lat="45.898344224025614" lon="10.984698724283609"><ele>1264.0</ele><time>2026-04-04T13:49:12Z</time></trkpt><trkpt lat="45.89827701263425" lon="10.984686468150397"><ele>1264.0</ele><time>2026-04-04T13:49:13Z</time></trkpt><trkpt lat="45.89818825025845" lon="10.984668168979347"><ele>1264.0</ele><time>2026-04-04T13:49:14Z</time></trkpt><trkpt lat="45.89806162670637" lon="10.984675351035905"><ele>1264.0</ele><time>2026-04-04T13:49:15Z</time></trkpt><trkpt lat="45.89799326149247" lon="10.984659738977093"><ele>1264.0</ele><time>2026-04-04T13:49:16Z</time></trkpt><trkpt lat="45.89792178467072" lon="10.984683202955315"><ele>1264.0</ele><time>2026-04-04T13:49:18Z</time></trkpt><trkpt lat="45.89792931920494" lon="10.984790016817396"><ele>1264.0</ele><time>2026-04-04T13:49:20Z</time></trkpt><trkpt lat="45.89795461721307" lon="10.984921082347196"><ele>1264.0</ele><time>2026-04-04T13:49:21Z</time></trkpt><trkpt lat="45.89798561809587" lon="10.985072516741575"><ele>1264.0</ele><time>2026-04-04T13:49:22Z</time></trkpt><trkpt lat="45.898017338703184" lon="10.985206779028585"><ele>1264.0</ele><time>2026-04-04T13:49:23Z</time></trkpt><trkpt lat="45.89806423234559" lon="10.98529180636994"><ele>1259.8</ele><time>2026-04-04T13:49:24Z</time></trkpt><trkpt lat="45.89812285306819" lon="10.985341044779542"><ele>1255.6000000000001</ele><time>2026-04-04T13:49:25Z</time></trkpt><trkpt lat="45.89819819847769" lon="10.985364678603988"><ele>1251.4</ele><time>2026-04-04T13:49:26Z</time></trkpt><trkpt lat="45.89830192596729" lon="10.985373199046295"><ele>1247.2</ele><time>2026-04-04T13:49:27Z</time></trkpt><trkpt lat="45.898404619290226" lon="10.9853798593668"><ele>1243.0</ele><time>2026-04-04T13:49:28Z</time></trkpt><trkpt lat="45.89855901332493" lon="10.985384424884302"><ele>1243.0</ele><time>2026-04-04T13:49:29Z</time></trkpt><trkpt lat="45.89869069876341" lon="10.985409054356094"><ele>1243.0</ele><time>2026-04-04T13:49:30Z</time></trkpt><trkpt lat="45.89880045506933" lon="10.985459642003214"><ele>1243.0</ele><time>2026-04-04T13:49:31Z</time></trkpt><trkpt lat="45.89890568616969" lon="10.985494953490466"><ele>1243.0</ele><time>2026-04-04T13:49:32Z</time></trkpt><trkpt lat="45.89900081094927" lon="10.98549170855666"><ele>1243.0</ele><time>2026-04-04T13:49:33Z</time></trkpt><trkpt lat="45.89907726998686" lon="10.985504539618965"><ele>1243.0</ele><time>2026-04-04T13:49:34Z</time></trkpt><trkpt lat="45.89917707412182" lon="10.985555737323919"><ele>1243.0</ele><time>2026-04-04T13:49:35Z</time></trkpt><trkpt lat="45.89927987959317" lon="10.985645768565076"><ele>1243.0</ele><time>2026-04-04T13:49:36Z</time></trkpt><trkpt lat="45.89938275154033" lon="10.985708553402247"><ele>1243.0</ele><time>2026-04-04T13:49:37Z</time></trkpt><trkpt lat="45.8994694783021" lon="10.98573883769418"><ele>1243.0</ele><time>2026-04-04T13:49:38Z</time></trkpt><trkpt lat="45.89955144977486" lon="10.985775749426947"><ele>1243.0</ele><time>2026-04-04T13:49:40Z</time></trkpt><trkpt lat="45.89949625866659" lon="10.985822475006387"><ele>1243.0</ele><time>2026-04-04T13:49:45Z</time></trkpt><trkpt lat="45.89940558933161" lon="10.98579817520279"><ele>1243.0</ele><time>2026-04-04T13:49:51Z</time></trkpt><trkpt lat="45.89932248820575" lon="10.985780289995793"><ele>1243.0</ele><time>2026-04-04T13:49:52Z</time></trkpt><trkpt lat="45.899231166472234" lon="10.985784807725683"><ele>1243.0</ele><time>2026-04-04T13:49:53Z</time></trkpt><trkpt lat="45.8991916672938" lon="10.985883212968819"><ele>1236.0</ele><time>2026-04-04T13:49:56Z</time></trkpt><trkpt lat="45.89923857296193" lon="10.985946025346967"><ele>1229.0</ele><time>2026-04-04T13:49:57Z</time></trkpt><trkpt lat="45.89929877851015" lon="10.985981844277921"><ele>1222.0</ele><time>2026-04-04T13:49:58Z</time></trkpt><trkpt lat="45.89938994604687" lon="10.985999416061011"><ele>1215.0</ele><time>2026-04-04T13:49:59Z</time></trkpt><trkpt lat="45.89951563840655" lon="10.986075049422665"><ele>1208.0</ele><time>2026-04-04T13:50:00Z</time></trkpt><trkpt lat="45.899618709061194" lon="10.986182017205348"><ele>1208.0</ele><time>2026-04-04T13:50:01Z</time></trkpt><trkpt lat="45.899718697305524" lon="10.986272063561147"><ele>1208.0</ele><time>2026-04-04T13:50:02Z</time></trkpt><trkpt lat="45.899808250712006" lon="10.986345844310357"><ele>1208.0</ele><time>2026-04-04T13:50:03Z</time></trkpt><trkpt lat="45.8998983081113" lon="10.986414796419831"><ele>1208.0</ele><time>2026-04-04T13:50:04Z</time></trkpt><trkpt lat="45.90000400524005" lon="10.98644175110865"><ele>1208.0</ele><time>2026-04-04T13:50:05Z</time></trkpt><trkpt lat="45.90014628864961" lon="10.986496511138125"><ele>1209.5</ele><time>2026-04-04T13:50:06Z</time></trkpt><trkpt lat="45.90027115839031" lon="10.98656108212489"><ele>1211.0</ele><time>2026-04-04T13:50:07Z</time></trkpt><trkpt lat="45.900393363166586" lon="10.986612408990949"><ele>1212.5</ele><time>2026-04-04T13:50:08Z</time></trkpt><trkpt lat="45.90050710922758" lon="10.986671406876502"><ele>1214.0</ele><time>2026-04-04T13:50:09Z</time></trkpt><trkpt lat="45.90062052127487" lon="10.986721453769746"><ele>1208.4</ele><time>2026-04-04T13:50:10Z</time></trkpt><trkpt lat="45.900742226874264" lon="10.986770679001195"><ele>1202.8000000000002</ele><time>2026-04-04T13:50:11Z</time></trkpt><trkpt lat="45.90084089390566" lon="10.986803346617677"><ele>1197.1999999999998</ele><time>2026-04-04T13:50:12Z</time></trkpt><trkpt lat="45.90094028190764" lon="10.986835174163792"><ele>1191.6</ele><time>2026-04-04T13:50:13Z</time></trkpt><trkpt lat="45.90104421120965" lon="10.98686501687405"><ele>1186.0</ele><time>2026-04-04T13:50:14Z</time></trkpt><trkpt lat="45.90113229959129" lon="10.98690706988592"><ele>1186.0</ele><time>2026-04-04T13:50:15Z</time></trkpt><trkpt lat="45.90122288850786" lon="10.986961056962226"><ele>1186.0</ele><time>2026-04-04T13:50:16Z</time></trkpt><trkpt lat="45.901303441624115" lon="10.987042790676867"><ele>1186.0</ele><time>2026-04-04T13:50:17Z</time></trkpt><trkpt lat="45.90137872946527" lon="10.987173984752292"><ele>1186.0</ele><time>2026-04-04T13:50:18Z</time></trkpt><trkpt lat="45.90145087743933" lon="10.987273451014264"><ele>1186.0</ele><time>2026-04-04T13:50:19Z</time></trkpt><trkpt lat="45.90153195288366" lon="10.987355348262085"><ele>1186.0</ele><time>2026-04-04T13:50:20Z</time></trkpt><trkpt lat="45.9016189760679" lon="10.987440965718779"><ele>1186.0</ele><time>2026-04-04T13:50:21Z</time></trkpt><trkpt lat="45.90171832904711" lon="10.987537896094542"><ele>1186.0</ele><time>2026-04-04T13:50:22Z</time></trkpt><trkpt lat="45.90179824111849" lon="10.987638889707512"><ele>1186.0</ele><time>2026-04-04T13:50:23Z</time></trkpt><trkpt lat="45.9018542668283" lon="10.987715850785785"><ele>1186.0</ele><time>2026-04-04T13:50:24Z</time></trkpt><trkpt lat="45.90191836945036" lon="10.987775481392832"><ele>1180.3999999999999</ele><time>2026-04-04T13:50:25Z</time></trkpt><trkpt lat="45.90199072564839" lon="10.987824617816916"><ele>1174.8</ele><time>2026-04-04T13:50:26Z</time></trkpt><trkpt lat="45.902068312308266" lon="10.98786709360135"><ele>1169.1999999999998</ele><time>2026-04-04T13:50:27Z</time></trkpt><trkpt lat="45.9021600179079" lon="10.987878630219734"><ele>1163.6</ele><time>2026-04-04T13:50:28Z</time></trkpt><trkpt lat="45.90225590017201" lon="10.987894640668125"><ele>1158.0</ele><time>2026-04-04T13:50:29Z</time></trkpt><trkpt lat="45.90236033825637" lon="10.9878965183913"><ele>1158.0</ele><time>2026-04-04T13:50:30Z</time></trkpt><trkpt lat="45.902457057473036" lon="10.987865368593923"><ele>1158.0</ele><time>2026-04-04T13:50:31Z</time></trkpt><trkpt lat="45.9025393729867" lon="10.987848982683856"><ele>1158.0</ele><time>2026-04-04T13:50:32Z</time></trkpt><trkpt lat="45.90260781911421" lon="10.987841577879886"><ele>1158.0</ele><time>2026-04-04T13:50:33Z</time></trkpt><trkpt lat="45.90267565517637" lon="10.98783335186428"><ele>1158.0</ele><time>2026-04-04T13:50:34Z</time></trkpt><trkpt lat="45.902751699161435" lon="10.987779231044282"><ele>1158.0</ele><time>2026-04-04T13:50:35Z</time></trkpt><trkpt lat="45.902815528954164" lon="10.98773483324335"><ele>1156.8333333333333</ele><time>2026-04-04T13:50:36Z</time></trkpt><trkpt lat="45.90290144905668" lon="10.987719376028407"><ele>1155.6666666666667</ele><time>2026-04-04T13:50:37Z</time></trkpt><trkpt lat="45.902974102845235" lon="10.987704902860335"><ele>1154.5</ele><time>2026-04-04T13:50:38Z</time></trkpt><trkpt lat="45.90304653275547" lon="10.987722481248367"><ele>1153.3333333333335</ele><time>2026-04-04T13:50:40Z</time></trkpt><trkpt lat="45.90304923395125" lon="10.987840247665012"><ele>1152.1666666666667</ele><time>2026-04-04T13:50:43Z</time></trkpt><trkpt lat="45.902981937272905" lon="10.98796291166051"><ele>1151.0</ele><time>2026-04-04T13:50:45Z</time></trkpt><trkpt lat="45.90304171369259" lon="10.988030081497772"><ele>1151.0</ele><time>2026-04-04T13:50:48Z</time></trkpt><trkpt lat="45.90313791062086" lon="10.98818550400074"><ele>1151.0</ele><time>2026-04-04T13:50:49Z</time></trkpt><trkpt lat="45.903187193798274" lon="10.988292876438448"><ele>1151.0</ele><time>2026-04-04T13:50:50Z</time></trkpt><trkpt lat="45.903208541900206" lon="10.988423783632419"><ele>1151.0</ele><time>2026-04-04T13:50:52Z</time></trkpt><trkpt lat="45.90313414635698" lon="10.988525349828963"><ele>1151.0</ele><time>2026-04-04T13:50:54Z</time></trkpt><trkpt lat="45.90306002594359" lon="10.988564267155908"><ele>1144.3999999999999</ele><time>2026-04-04T13:50:55Z</time></trkpt><trkpt lat="45.90298290101094" lon="10.98857641935624"><ele>1137.8</ele><time>2026-04-04T13:50:56Z</time></trkpt><trkpt lat="45.902891964709696" lon="10.988563252765655"><ele>1131.1999999999998</ele><time>2026-04-04T13:50:58Z</time></trkpt><trkpt lat="45.90291861653023" lon="10.988655519011568"><ele>1124.6</ele><time>2026-04-04T13:51:01Z</time></trkpt><trkpt lat="45.90306906364139" lon="10.988745932831531"><ele>1118.0</ele><time>2026-04-04T13:51:03Z</time></trkpt><trkpt lat="45.90318275146055" lon="10.988799403243203"><ele>1118.0</ele><time>2026-04-04T13:51:04Z</time></trkpt><trkpt lat="45.90328043564081" lon="10.988842644955888"><ele>1118.0</ele><time>2026-04-04T13:51:05Z</time></trkpt><trkpt lat="45.90336691910339" lon="10.988868679962573"><ele>1118.0</ele><time>2026-04-04T13:51:06Z</time></trkpt><trkpt lat="45.903469433748924" lon="10.98889355608721"><ele>1118.0</ele><time>2026-04-04T13:51:07Z</time></trkpt><trkpt lat="45.90354048548806" lon="10.98888101724628"><ele>1118.0</ele><time>2026-04-04T13:51:08Z</time></trkpt><trkpt lat="45.903643531768104" lon="10.988861274674004"><ele>1116.6666666666667</ele><time>2026-04-04T13:51:10Z</time></trkpt><trkpt lat="45.90369654726831" lon="10.988745606622373"><ele>1115.3333333333335</ele><time>2026-04-04T13:51:12Z</time></trkpt><trkpt lat="45.903730709944426" lon="10.988643398699628"><ele>1114.0</ele><time>2026-04-04T13:51:13Z</time></trkpt><trkpt lat="45.90376734372214" lon="10.988566084296076"><ele>1112.6666666666667</ele><time>2026-04-04T13:51:14Z</time></trkpt><trkpt lat="45.90383007330122" lon="10.988580620575622"><ele>1111.3333333333333</ele><time>2026-04-04T13:51:16Z</time></trkpt><trkpt lat="45.90393370393255" lon="10.988572490636036"><ele>1110.0</ele><time>2026-04-04T13:51:19Z</time></trkpt><trkpt lat="45.90400386077823" lon="10.988579154116628"><ele>1110.0</ele><time>2026-04-04T13:51:20Z</time></trkpt><trkpt lat="45.90407133990164" lon="10.988602887644358"><ele>1110.0</ele><time>2026-04-04T13:51:21Z</time></trkpt><trkpt lat="45.90414369559824" lon="10.988636185352162"><ele>1110.0</ele><time>2026-04-04T13:51:22Z</time></trkpt><trkpt lat="45.90421205153602" lon="10.988669164723868"><ele>1110.0</ele><time>2026-04-04T13:51:23Z</time></trkpt><trkpt lat="45.90431199820673" lon="10.98869506301207"><ele>1110.0</ele><time>2026-04-04T13:51:24Z</time></trkpt><trkpt lat="45.904445551727605" lon="10.988711471211378"><ele>1110.0</ele><time>2026-04-04T13:51:25Z</time></trkpt><trkpt lat="45.90455874895724" lon="10.988750373906235"><ele>1110.0</ele><time>2026-04-04T13:51:26Z</time></trkpt><trkpt lat="45.904650089409515" lon="10.98881449945908"><ele>1110.0</ele><time>2026-04-04T13:51:27Z</time></trkpt><trkpt lat="45.9047233605509" lon="10.988884702217502"><ele>1110.0</ele><time>2026-04-04T13:51:29Z</time></trkpt><trkpt lat="45.90480570494035" lon="10.988894555755016"><ele>1110.0</ele><time>2026-04-04T13:51:31Z</time></trkpt><trkpt lat="45.9049333444889" lon="10.988968455447203"><ele>1110.0</ele><time>2026-04-04T13:51:33Z</time></trkpt><trkpt lat="45.904999799489644" lon="10.98901706346425"><ele>1110.0</ele><time>2026-04-04T13:51:34Z</time></trkpt><trkpt lat="45.90507635237966" lon="10.989051472830578"><ele>1110.0</ele><time>2026-04-04T13:51:35Z</time></trkpt><trkpt lat="45.90514535160413" lon="10.989090558329284"><ele>1110.0</ele><time>2026-04-04T13:51:36Z</time></trkpt><trkpt lat="45.90523566798289" lon="10.989119559472652"><ele>1110.0</ele><time>2026-04-04T13:51:37Z</time></trkpt><trkpt lat="45.90532209100562" lon="10.989156217090049"><ele>1110.0</ele><time>2026-04-04T13:51:38Z</time></trkpt><trkpt lat="45.90539909042582" lon="10.989206916732188"><ele>1103.8</ele><time>2026-04-04T13:51:39Z</time></trkpt><trkpt lat="45.90548809615162" lon="10.989252970711572"><ele>1097.6</ele><time>2026-04-04T13:51:40Z</time></trkpt><trkpt lat="45.90559584633826" lon="10.989306983191353"><ele>1091.4</ele><time>2026-04-04T13:51:41Z</time></trkpt><trkpt lat="45.905677216793194" lon="10.989327602394535"><ele>1085.2</ele><time>2026-04-04T13:51:42Z</time></trkpt><trkpt lat="45.90578369786143" lon="10.9893659523539"><ele>1079.0</ele><time>2026-04-04T13:51:43Z</time></trkpt><trkpt lat="45.90584861340421" lon="10.989382642400905"><ele>1081.0</ele><time>2026-04-04T13:51:44Z</time></trkpt><trkpt lat="45.90591629590263" lon="10.989417669725308"><ele>1083.0</ele><time>2026-04-04T13:51:45Z</time></trkpt><trkpt lat="45.906049482636234" lon="10.98945932324053"><ele>1085.0</ele><time>2026-04-04T13:51:47Z</time></trkpt><trkpt lat="45.906118329069024" lon="10.989489044239784"><ele>1087.0</ele><time>2026-04-04T13:51:48Z</time></trkpt><trkpt lat="45.906195703980636" lon="10.98957313382653"><ele>1089.0</ele><time>2026-04-04T13:51:49Z</time></trkpt><trkpt lat="45.90626844061577" lon="10.989620429046814"><ele>1089.0</ele><time>2026-04-04T13:51:50Z</time></trkpt><trkpt lat="45.90637199361754" lon="10.989714437846539"><ele>1089.0</ele><time>2026-04-04T13:51:52Z</time></trkpt><trkpt lat="45.90645024055922" lon="10.989767568943252"><ele>1089.0</ele><time>2026-04-04T13:51:53Z</time></trkpt><trkpt lat="45.906545493966604" lon="10.98980211596079"><ele>1089.0</ele><time>2026-04-04T13:51:54Z</time></trkpt><trkpt lat="45.906638556251664" lon="10.989872008112254"><ele>1089.0</ele><time>2026-04-04T13:51:55Z</time></trkpt><trkpt lat="45.90672702775986" lon="10.98989237511164"><ele>1089.6666666666667</ele><time>2026-04-04T13:51:56Z</time></trkpt><trkpt lat="45.906802585807505" lon="10.989921849993664"><ele>1090.3333333333333</ele><time>2026-04-04T13:51:57Z</time></trkpt><trkpt lat="45.90687820501773" lon="10.989940110647646"><ele>1091.0</ele><time>2026-04-04T13:51:58Z</time></trkpt><trkpt lat="45.90695687296478" lon="10.989950097029618"><ele>1091.6666666666665</ele><time>2026-04-04T13:51:59Z</time></trkpt><trkpt lat="45.90705034280343" lon="10.989942690921476"><ele>1092.3333333333333</ele><time>2026-04-04T13:52:00Z</time></trkpt><trkpt lat="45.907143303448095" lon="10.989934913849577"><ele>1093.0</ele><time>2026-04-04T13:52:01Z</time></trkpt><trkpt lat="45.907239095073855" lon="10.989925954313954"><ele>1093.0</ele><time>2026-04-04T13:52:02Z</time></trkpt><trkpt lat="45.90732908616289" lon="10.989911730965408"><ele>1093.0</ele><time>2026-04-04T13:52:03Z</time></trkpt><trkpt lat="45.90741411609223" lon="10.989906032584381"><ele>1093.0</ele><time>2026-04-04T13:52:04Z</time></trkpt><trkpt lat="45.90748366190004" lon="10.989942929803744"><ele>1093.0</ele><time>2026-04-04T13:52:05Z</time></trkpt><trkpt lat="45.907573551888184" lon="10.990027585780043"><ele>1093.0</ele><time>2026-04-04T13:52:06Z</time></trkpt><trkpt lat="45.907677241370855" lon="10.990089453987615"><ele>1082.2</ele><time>2026-04-04T13:52:07Z</time></trkpt><trkpt lat="45.90777977015929" lon="10.990127355065525"><ele>1071.4</ele><time>2026-04-04T13:52:08Z</time></trkpt><trkpt lat="45.90788781546173" lon="10.99015670940653"><ele>1060.6000000000001</ele><time>2026-04-04T13:52:09Z</time></trkpt><trkpt lat="45.90798672645999" lon="10.99019718516797"><ele>1049.8</ele><time>2026-04-04T13:52:10Z</time></trkpt><trkpt lat="45.90808180325085" lon="10.990268882360864"><ele>1039.0</ele><time>2026-04-04T13:52:11Z</time></trkpt><trkpt lat="45.90815638094186" lon="10.990309141886062"><ele>1039.0</ele><time>2026-04-04T13:52:12Z</time></trkpt><trkpt lat="45.90822174662473" lon="10.990322123783677"><ele>1039.0</ele><time>2026-04-04T13:52:13Z</time></trkpt><trkpt lat="45.90829805531862" lon="10.990300230894544"><ele>1039.0</ele><time>2026-04-04T13:52:14Z</time></trkpt><trkpt lat="45.908417189376515" lon="10.99025165366787"><ele>1039.0</ele><time>2026-04-04T13:52:15Z</time></trkpt><trkpt lat="45.908529083996925" lon="10.990292330999997"><ele>1039.0</ele><time>2026-04-04T13:52:16Z</time></trkpt><trkpt lat="45.90867362745384" lon="10.990310311747692"><ele>1043.2</ele><time>2026-04-04T13:52:17Z</time></trkpt><trkpt lat="45.90879252554721" lon="10.990341891726397"><ele>1047.4</ele><time>2026-04-04T13:52:18Z</time></trkpt><trkpt lat="45.90889095697292" lon="10.99037256697829"><ele>1051.6</ele><time>2026-04-04T13:52:19Z</time></trkpt><trkpt lat="45.90895977657785" lon="10.99045738064443"><ele>1055.8</ele><time>2026-04-04T13:52:20Z</time></trkpt><trkpt lat="45.90906083657652" lon="10.990499615911624"><ele>1060.0</ele><time>2026-04-04T13:52:21Z</time></trkpt><trkpt lat="45.909148172567875" lon="10.990555298596304"><ele>1060.0</ele><time>2026-04-04T13:52:21.999Z</time></trkpt><trkpt lat="45.909230269751525" lon="10.990636748302826"><ele>1060.0</ele><time>2026-04-04T13:52:22.999Z</time></trkpt><trkpt lat="45.90931644131415" lon="10.990757886178958"><ele>1060.0</ele><time>2026-04-04T13:52:23.999Z</time></trkpt><trkpt lat="45.90939488201077" lon="10.990866832686427"><ele>1060.0</ele><time>2026-04-04T13:52:25Z</time></trkpt><trkpt lat="45.90946511370881" lon="10.990973844685978"><ele>1060.0</ele><time>2026-04-04T13:52:26Z</time></trkpt><trkpt lat="45.9095386392601" lon="10.99108049074633"><ele>1055.2</ele><time>2026-04-04T13:52:27Z</time></trkpt><trkpt lat="45.909609484393684" lon="10.991188871091557"><ele>1050.4</ele><time>2026-04-04T13:52:28Z</time></trkpt><trkpt lat="45.9096884317147" lon="10.991260719058372"><ele>1045.6</ele><time>2026-04-04T13:52:29Z</time></trkpt><trkpt lat="45.90977235579317" lon="10.991335407417099"><ele>1040.8</ele><time>2026-04-04T13:52:30Z</time></trkpt><trkpt lat="45.90985747326229" lon="10.991405912979792"><ele>1036.0</ele><time>2026-04-04T13:52:31Z</time></trkpt><trkpt lat="45.90994245284761" lon="10.991470249187199"><ele>1036.0</ele><time>2026-04-04T13:52:32Z</time></trkpt><trkpt lat="45.91002855229311" lon="10.991525903367673"><ele>1036.0</ele><time>2026-04-04T13:52:33Z</time></trkpt><trkpt lat="45.9101128920231" lon="10.99154479942675"><ele>1036.0</ele><time>2026-04-04T13:52:34Z</time></trkpt><trkpt lat="45.91017683109757" lon="10.991564155665195"><ele>1036.0</ele><time>2026-04-04T13:52:35Z</time></trkpt><trkpt lat="45.91024613092096" lon="10.99159397630234"><ele>1036.0</ele><time>2026-04-04T13:52:36Z</time></trkpt><trkpt lat="45.91030248669844" lon="10.991638204648892"><ele>1036.0</ele><time>2026-04-04T13:52:37Z</time></trkpt><trkpt lat="45.910391736526776" lon="10.99174832462938"><ele>1032.8</ele><time>2026-04-04T13:52:39Z</time></trkpt><trkpt lat="45.910490672537385" lon="10.991807257135973"><ele>1029.6</ele><time>2026-04-04T13:52:41Z</time></trkpt><trkpt lat="45.910583814794215" lon="10.991822609153461"><ele>1026.4</ele><time>2026-04-04T13:52:43Z</time></trkpt><trkpt lat="45.910653001930285" lon="10.99183063251432"><ele>1023.2</ele><time>2026-04-04T13:52:44Z</time></trkpt><trkpt lat="45.910756597930586" lon="10.99191732121184"><ele>1020.0</ele><time>2026-04-04T13:52:46Z</time></trkpt><trkpt lat="45.910819696484836" lon="10.991931775061472"><ele>1020.0</ele><time>2026-04-04T13:52:47Z</time></trkpt><trkpt lat="45.91089468359296" lon="10.991963119770743"><ele>1020.0</ele><time>2026-04-04T13:52:48Z</time></trkpt><trkpt lat="45.91095785720735" lon="10.992028667048046"><ele>1020.0</ele><time>2026-04-04T13:52:49Z</time></trkpt><trkpt lat="45.91106833741015" lon="10.992058074541626"><ele>1020.0</ele><time>2026-04-04T13:52:51Z</time></trkpt><trkpt lat="45.91118264149054" lon="10.99209613337947"><ele>1020.0</ele><time>2026-04-04T13:52:53Z</time></trkpt><trkpt lat="45.91125216661243" lon="10.992087951548152"><ele>1021.6</ele><time>2026-04-04T13:52:54Z</time></trkpt><trkpt lat="45.911333222747324" lon="10.992109083588879"><ele>1023.2</ele><time>2026-04-04T13:52:56Z</time></trkpt><trkpt lat="45.91142957543367" lon="10.992181652367453"><ele>1024.8</ele><time>2026-04-04T13:52:58Z</time></trkpt><trkpt lat="45.91151201262004" lon="10.992205033250281"><ele>1026.4</ele><time>2026-04-04T13:53:00Z</time></trkpt><trkpt lat="45.91157813440085" lon="10.992293499427804"><ele>1028.0</ele><time>2026-04-04T13:53:03Z</time></trkpt><trkpt lat="45.911824435087645" lon="10.992400627189255"><ele>1024.8333333333335</ele><time>2026-04-04T13:53:06Z</time></trkpt><trkpt lat="45.91188752694955" lon="10.992374584413874"><ele>1021.6666666666667</ele><time>2026-04-04T13:53:08Z</time></trkpt><trkpt lat="45.91195874362216" lon="10.992358427197814"><ele>1018.5</ele><time>2026-04-04T13:53:11Z</time></trkpt><trkpt lat="45.91203811932682" lon="10.992376407266974"><ele>1015.3333333333333</ele><time>2026-04-04T13:53:13Z</time></trkpt><trkpt lat="45.91209685555272" lon="10.992426454055611"><ele>1012.1666666666666</ele><time>2026-04-04T13:53:15Z</time></trkpt><trkpt lat="45.912161200992564" lon="10.992371164481876"><ele>1009.0</ele><time>2026-04-04T13:53:17Z</time></trkpt><trkpt lat="45.91224311327117" lon="10.992424293568982"><ele>1006.2</ele><time>2026-04-04T13:53:21Z</time></trkpt><trkpt lat="45.91228484146995" lon="10.992540822335231"><ele>1003.4000000000001</ele><time>2026-04-04T13:53:23Z</time></trkpt><trkpt lat="45.912352831020215" lon="10.992633563267184"><ele>1000.6</ele><time>2026-04-04T13:53:25Z</time></trkpt><trkpt lat="45.91243656845306" lon="10.992663410104281"><ele>997.8</ele><time>2026-04-04T13:53:27Z</time></trkpt><trkpt lat="45.91253692455083" lon="10.992623687557414"><ele>995.0</ele><time>2026-04-04T13:53:29Z</time></trkpt><trkpt lat="45.91263202004357" lon="10.992529993596287"><ele>995.0</ele><time>2026-04-04T13:53:31Z</time></trkpt><trkpt lat="45.91266064834486" lon="10.992412726019671"><ele>995.0</ele><time>2026-04-04T13:53:33Z</time></trkpt><trkpt lat="45.912714410408455" lon="10.992340627428622"><ele>995.0</ele><time>2026-04-04T13:53:36Z</time></trkpt><trkpt lat="45.912844863090434" lon="10.992398666011466"><ele>995.0</ele><time>2026-04-04T13:53:38Z</time></trkpt><trkpt lat="45.912941726636056" lon="10.992466252420995"><ele>995.0</ele><time>2026-04-04T13:53:39Z</time></trkpt><trkpt lat="45.91301954236493" lon="10.992535631960129"><ele>995.0</ele><time>2026-04-04T13:53:40Z</time></trkpt><trkpt lat="45.91309429376353" lon="10.992620679286217"><ele>995.0</ele><time>2026-04-04T13:53:41Z</time></trkpt><trkpt lat="45.91316597710212" lon="10.992758076260344"><ele>995.0</ele><time>2026-04-04T13:53:42Z</time></trkpt><trkpt lat="45.91325353206761" lon="10.992863490671203"><ele>995.0</ele><time>2026-04-04T13:53:43Z</time></trkpt><trkpt lat="45.91336718624824" lon="10.99297183232453"><ele>999.2</ele><time>2026-04-04T13:53:44Z</time></trkpt><trkpt lat="45.91347202536763" lon="10.993049312172001"><ele>1003.4</ele><time>2026-04-04T13:53:45Z</time></trkpt><trkpt lat="45.91355348687691" lon="10.993109132341063"><ele>1007.5999999999999</ele><time>2026-04-04T13:53:46Z</time></trkpt><trkpt lat="45.913615578820796" lon="10.99316444014174"><ele>1011.8</ele><time>2026-04-04T13:53:47Z</time></trkpt><trkpt lat="45.91366827424133" lon="10.9932152764734"><ele>1016.0</ele><time>2026-04-04T13:53:48Z</time></trkpt><trkpt lat="45.91375266859415" lon="10.99332841547022"><ele>1008.0000000000001</ele><time>2026-04-04T13:53:50Z</time></trkpt><trkpt lat="45.91381742151933" lon="10.993455527336534"><ele>1000.0</ele><time>2026-04-04T13:53:52Z</time></trkpt><trkpt lat="45.91387820114991" lon="10.993514512559804"><ele>992.0</ele><time>2026-04-04T13:53:53Z</time></trkpt><trkpt lat="45.9139411472929" lon="10.99356035757321"><ele>984.0</ele><time>2026-04-04T13:53:54Z</time></trkpt><trkpt lat="45.913998044398696" lon="10.993604895483955"><ele>976.0000000000001</ele><time>2026-04-04T13:53:55Z</time></trkpt><trkpt lat="45.9140595223998" lon="10.993635710298909"><ele>968.0</ele><time>2026-04-04T13:53:56Z</time></trkpt><trkpt lat="45.91412720682649" lon="10.993648407451115"><ele>968.0000000000001</ele><time>2026-04-04T13:53:57Z</time></trkpt><trkpt lat="45.914199975886554" lon="10.993676327228336"><ele>968.0</ele><time>2026-04-04T13:53:58Z</time></trkpt><trkpt lat="45.91428298195315" lon="10.993710631225323"><ele>968.0</ele><time>2026-04-04T13:53:59Z</time></trkpt><trkpt lat="45.914370047078215" lon="10.99372937013392"><ele>968.0</ele><time>2026-04-04T13:54:00Z</time></trkpt><trkpt lat="45.91444190021065" lon="10.99371894943484"><ele>968.0000000000001</ele><time>2026-04-04T13:54:01Z</time></trkpt><trkpt lat="45.91451246873816" lon="10.99369068786045"><ele>968.0</ele><time>2026-04-04T13:54:02Z</time></trkpt><trkpt lat="45.91458556481642" lon="10.99365432631661"><ele>971.5999999999999</ele><time>2026-04-04T13:54:03Z</time></trkpt><trkpt lat="45.914678120425066" lon="10.993646092769923"><ele>975.1999999999999</ele><time>2026-04-04T13:54:04Z</time></trkpt><trkpt lat="45.914787501868545" lon="10.993643864719413"><ele>978.8</ele><time>2026-04-04T13:54:05Z</time></trkpt><trkpt lat="45.91489388753168" lon="10.993644426830222"><ele>982.4</ele><time>2026-04-04T13:54:06Z</time></trkpt><trkpt lat="45.914989928259786" lon="10.993665221258041"><ele>986.0</ele><time>2026-04-04T13:54:07Z</time></trkpt><trkpt lat="45.91508289052538" lon="10.99369584780507"><ele>989.5999999999999</ele><time>2026-04-04T13:54:08Z</time></trkpt><trkpt lat="45.91518660473231" lon="10.99373552700916"><ele>993.1999999999999</ele><time>2026-04-04T13:54:09Z</time></trkpt><trkpt lat="45.915296939109375" lon="10.993799408581115"><ele>996.8000000000001</ele><time>2026-04-04T13:54:10Z</time></trkpt><trkpt lat="45.91540701707842" lon="10.993843847729876"><ele>1000.4000000000001</ele><time>2026-04-04T13:54:11Z</time></trkpt><trkpt lat="45.915504329259754" lon="10.99388348502708"><ele>1004.0</ele><time>2026-04-04T13:54:12Z</time></trkpt><trkpt lat="45.915595526520654" lon="10.99392748830786"><ele>1004.0</ele><time>2026-04-04T13:54:13Z</time></trkpt><trkpt lat="45.91568083528745" lon="10.993972256186412"><ele>1004.0000000000001</ele><time>2026-04-04T13:54:14Z</time></trkpt><trkpt lat="45.91575971766186" lon="10.994012298447785"><ele>1004.0000000000001</ele><time>2026-04-04T13:54:15Z</time></trkpt><trkpt lat="45.915854041255045" lon="10.9940471402883"><ele>1004.0</ele><time>2026-04-04T13:54:17Z</time></trkpt><trkpt lat="45.91596785598608" lon="10.994147978539694"><ele>1004.0</ele><time>2026-04-04T13:54:19Z</time></trkpt><trkpt lat="45.916030897417826" lon="10.9941809958723"><ele>1003.2</ele><time>2026-04-04T13:54:20Z</time></trkpt><trkpt lat="45.91613503615144" lon="10.994217554821791"><ele>1002.4000000000001</ele><time>2026-04-04T13:54:22Z</time></trkpt><trkpt lat="45.916263036799776" lon="10.994159883795996"><ele>1001.6</ele><time>2026-04-04T13:54:24Z</time></trkpt><trkpt lat="45.91633335361321" lon="10.994119336029499"><ele>1000.8</ele><time>2026-04-04T13:54:25Z</time></trkpt><trkpt lat="45.91639600559201" lon="10.994084660438292"><ele>1000.0</ele><time>2026-04-04T13:54:26Z</time></trkpt><trkpt lat="45.91645536895644" lon="10.994025074100383"><ele>999.9999999999999</ele><time>2026-04-04T13:54:27Z</time></trkpt><trkpt lat="45.916560167539934" lon="10.993959370296023"><ele>1000.0</ele><time>2026-04-04T13:54:29Z</time></trkpt><trkpt lat="45.91662075894436" lon="10.993986386429913"><ele>1000.0</ele><time>2026-04-04T13:54:30Z</time></trkpt><trkpt lat="45.916675217119185" lon="10.994072879102246"><ele>1000.0</ele><time>2026-04-04T13:54:31Z</time></trkpt><trkpt lat="45.916744628399535" lon="10.994122118963823"><ele>999.9999999999999</ele><time>2026-04-04T13:54:32Z</time></trkpt><trkpt lat="45.91682252825068" lon="10.994188423647705"><ele>1000.0</ele><time>2026-04-04T13:54:33Z</time></trkpt><trkpt lat="45.91688935627789" lon="10.99430318683142"><ele>995.6666666666666</ele><time>2026-04-04T13:54:34Z</time></trkpt><trkpt lat="45.916950619279184" lon="10.994382651726518"><ele>991.3333333333333</ele><time>2026-04-04T13:54:35Z</time></trkpt><trkpt lat="45.917006475978255" lon="10.994445414544991"><ele>987.0</ele><time>2026-04-04T13:54:36Z</time></trkpt><trkpt lat="45.91709939950508" lon="10.994511724051282"><ele>982.6666666666667</ele><time>2026-04-04T13:54:37Z</time></trkpt><trkpt lat="45.917190373399094" lon="10.994572409769567"><ele>978.3333333333334</ele><time>2026-04-04T13:54:38Z</time></trkpt><trkpt lat="45.917255800166174" lon="10.994619549973699"><ele>974.0</ele><time>2026-04-04T13:54:39Z</time></trkpt><trkpt lat="45.917314547755645" lon="10.994679670046235"><ele>974.0</ele><time>2026-04-04T13:54:40Z</time></trkpt><trkpt lat="45.917391370917365" lon="10.994746081910073"><ele>974.0000000000001</ele><time>2026-04-04T13:54:41Z</time></trkpt><trkpt lat="45.917471302620164" lon="10.994825459684812"><ele>974.0000000000001</ele><time>2026-04-04T13:54:42Z</time></trkpt><trkpt lat="45.91756899577636" lon="10.994901468887923"><ele>974.0</ele><time>2026-04-04T13:54:43Z</time></trkpt><trkpt lat="45.91766167263302" lon="10.994953415247675"><ele>974.0</ele><time>2026-04-04T13:54:44Z</time></trkpt><trkpt lat="45.91775533139974" lon="10.995001835405613"><ele>969.0000000000001</ele><time>2026-04-04T13:54:45Z</time></trkpt><trkpt lat="45.917850278722455" lon="10.995031778003344"><ele>964.0</ele><time>2026-04-04T13:54:46Z</time></trkpt><trkpt lat="45.9179621564203" lon="10.995024185561402"><ele>959.0</ele><time>2026-04-04T13:54:47Z</time></trkpt><trkpt lat="45.918021821461295" lon="10.995075593125886"><ele>954.0</ele><time>2026-04-04T13:54:48Z</time></trkpt><trkpt lat="45.91809149876282" lon="10.995116507537004"><ele>949.0000000000001</ele><time>2026-04-04T13:54:49Z</time></trkpt><trkpt lat="45.91815360532006" lon="10.995159543874527"><ele>944.0</ele><time>2026-04-04T13:54:50Z</time></trkpt><trkpt lat="45.91825690687156" lon="10.995260003411232"><ele>944.0</ele><time>2026-04-04T13:54:52Z</time></trkpt><trkpt lat="45.918347707466594" lon="10.995367714085036"><ele>944.0000000000001</ele><time>2026-04-04T13:54:54Z</time></trkpt><trkpt lat="45.91842209128311" lon="10.995478871487585"><ele>944.0000000000001</ele><time>2026-04-04T13:54:56Z</time></trkpt><trkpt lat="45.91847130613186" lon="10.995638368017431"><ele>944.0</ele><time>2026-04-04T13:54:58Z</time></trkpt><trkpt lat="45.918451323873356" lon="10.99577193900934"><ele>944.0</ele><time>2026-04-04T13:55:00Z</time></trkpt><trkpt lat="45.918390664339306" lon="10.995832786279568"><ele>944.0</ele><time>2026-04-04T13:55:02Z</time></trkpt><trkpt lat="45.91826201455739" lon="10.995753056204187"><ele>944.0000000000001</ele><time>2026-04-04T13:55:04Z</time></trkpt><trkpt lat="45.91816450821449" lon="10.995727199941514"><ele>944.0000000000001</ele><time>2026-04-04T13:55:05Z</time></trkpt><trkpt lat="45.91806621658662" lon="10.99567289212188"><ele>944.0</ele><time>2026-04-04T13:55:06Z</time></trkpt><trkpt lat="45.917980248435434" lon="10.995634411286938"><ele>944.0</ele><time>2026-04-04T13:55:07Z</time></trkpt><trkpt lat="45.91790850191452" lon="10.995585735821942"><ele>944.0</ele><time>2026-04-04T13:55:08Z</time></trkpt><trkpt lat="45.91781996793506" lon="10.995617217403689"><ele>944.0000000000001</ele><time>2026-04-04T13:55:09Z</time></trkpt><trkpt lat="45.917718475326076" lon="10.995578362181572"><ele>944.0000000000001</ele><time>2026-04-04T13:55:10Z</time></trkpt><trkpt lat="45.917609957920924" lon="10.99559303495274"><ele>944.0</ele><time>2026-04-04T13:55:11Z</time></trkpt><trkpt lat="45.917521535542534" lon="10.995580896279275"><ele>944.0</ele><time>2026-04-04T13:55:12Z</time></trkpt><trkpt lat="45.91743356111992" lon="10.995579567551394"><ele>942.0</ele><time>2026-04-04T13:55:13Z</time></trkpt><trkpt lat="45.91735140195212" lon="10.995593582628038"><ele>940.0000000000001</ele><time>2026-04-04T13:55:14Z</time></trkpt><trkpt lat="45.91728611378139" lon="10.99560017023356"><ele>938.0000000000001</ele><time>2026-04-04T13:55:15Z</time></trkpt><trkpt lat="45.917144474145864" lon="10.995705879796093"><ele>936.0</ele><time>2026-04-04T13:55:17Z</time></trkpt><trkpt lat="45.917067253903404" lon="10.995765906352077"><ele>934.0</ele><time>2026-04-04T13:55:18Z</time></trkpt><trkpt lat="45.917003979431115" lon="10.995794658583934"><ele>924.75</ele><time>2026-04-04T13:55:19Z</time></trkpt><trkpt lat="45.9170055275176" lon="10.995910905900688"><ele>915.5</ele><time>2026-04-04T13:55:22Z</time></trkpt><trkpt lat="45.91712242092236" lon="10.996011882176477"><ele>906.25</ele><time>2026-04-04T13:55:24Z</time></trkpt><trkpt lat="45.91725783362169" lon="10.996057964529829"><ele>897.0</ele><time>2026-04-04T13:55:25Z</time></trkpt><trkpt lat="45.917356329701306" lon="10.996074371670636"><ele>897.0</ele><time>2026-04-04T13:55:26Z</time></trkpt><trkpt lat="45.917455064072925" lon="10.996123758467695"><ele>897.0</ele><time>2026-04-04T13:55:28Z</time></trkpt><trkpt lat="45.91743189125491" lon="10.996234880865252"><ele>897.0</ele><time>2026-04-04T13:55:30Z</time></trkpt><trkpt lat="45.917364784044864" lon="10.996273277755133"><ele>897.0</ele><time>2026-04-04T13:55:31Z</time></trkpt><trkpt lat="45.91724085430252" lon="10.996299299404217"><ele>897.0</ele><time>2026-04-04T13:55:32Z</time></trkpt><trkpt lat="45.91713722525785" lon="10.996348046430668"><ele>897.0</ele><time>2026-04-04T13:55:33Z</time></trkpt><trkpt lat="45.91705493465638" lon="10.996398331933777"><ele>897.0</ele><time>2026-04-04T13:55:34Z</time></trkpt><trkpt lat="45.917001898331634" lon="10.996455332578343"><ele>897.0</ele><time>2026-04-04T13:55:35Z</time></trkpt><trkpt lat="45.9169150372822" lon="10.996475373558033"><ele>897.0</ele><time>2026-04-04T13:55:36Z</time></trkpt><trkpt lat="45.916828611581295" lon="10.996515119655482"><ele>897.0</ele><time>2026-04-04T13:55:37Z</time></trkpt><trkpt lat="45.916758135028644" lon="10.996571039003644"><ele>897.0</ele><time>2026-04-04T13:55:38Z</time></trkpt><trkpt lat="45.91668884843073" lon="10.996608869542023"><ele>893.8333333333334</ele><time>2026-04-04T13:55:39Z</time></trkpt><trkpt lat="45.91661338641612" lon="10.996670733828095"><ele>890.6666666666667</ele><time>2026-04-04T13:55:41Z</time></trkpt><trkpt lat="45.916660221713514" lon="10.99675461568446"><ele>887.5</ele><time>2026-04-04T13:55:47Z</time></trkpt><trkpt lat="45.91668808331238" lon="10.99684549106571"><ele>884.3333333333334</ele><time>2026-04-04T13:55:53Z</time></trkpt><trkpt lat="45.916704371506256" lon="10.996935693711054"><ele>881.1666666666667</ele><time>2026-04-04T13:55:56Z</time></trkpt><trkpt lat="45.91672873913037" lon="10.997073699969825"><ele>878.0</ele><time>2026-04-04T13:55:58Z</time></trkpt><trkpt lat="45.91667760604275" lon="10.997197608052016"><ele>878.0</ele><time>2026-04-04T13:56:00Z</time></trkpt><trkpt lat="45.91668075624726" lon="10.9973450309533"><ele>878.0</ele><time>2026-04-04T13:56:02Z</time></trkpt><trkpt lat="45.91660539355655" lon="10.997425651224352"><ele>878.0</ele><time>2026-04-04T13:56:04Z</time></trkpt><trkpt lat="45.91652201388325" lon="10.997379730280183"><ele>878.0</ele><time>2026-04-04T13:56:06Z</time></trkpt><trkpt lat="45.9164416145021" lon="10.99731449744068"><ele>878.0</ele><time>2026-04-04T13:56:07Z</time></trkpt><trkpt lat="45.9163592202026" lon="10.997333466888227"><ele>878.0000000000001</ele><time>2026-04-04T13:56:09Z</time></trkpt><trkpt lat="45.91629713820914" lon="10.997384913023852"><ele>878.0</ele><time>2026-04-04T13:56:10Z</time></trkpt><trkpt lat="45.91620254388031" lon="10.997410184361659"><ele>878.0</ele><time>2026-04-04T13:56:12Z</time></trkpt><trkpt lat="45.916136462169945" lon="10.997424781272043"><ele>878.0</ele><time>2026-04-04T13:56:13Z</time></trkpt><trkpt lat="45.91605466919394" lon="10.99750869599642"><ele>878.0000000000001</ele><time>2026-04-04T13:56:15Z</time></trkpt><trkpt lat="45.91598497621303" lon="10.997546887001333"><ele>878.0</ele><time>2026-04-04T13:56:18Z</time></trkpt><trkpt lat="45.915928761344304" lon="10.997588477783818"><ele>871.8</ele><time>2026-04-04T13:56:20Z</time></trkpt><trkpt lat="45.9158813769806" lon="10.997714508854251"><ele>865.5999999999999</ele><time>2026-04-04T13:56:22Z</time></trkpt><trkpt lat="45.91586580981169" lon="10.997809784111274"><ele>859.4000000000001</ele><time>2026-04-04T13:56:23Z</time></trkpt><trkpt lat="45.915855848447926" lon="10.997912568667754"><ele>853.2</ele><time>2026-04-04T13:56:25Z</time></trkpt><trkpt lat="45.915767847792274" lon="10.997979761466619"><ele>847.0</ele><time>2026-04-04T13:56:27Z</time></trkpt><trkpt lat="45.915696828638474" lon="10.998137901078522"><ele>846.9999999999999</ele><time>2026-04-04T13:56:29Z</time></trkpt><trkpt lat="45.91562301212415" lon="10.9982549392494"><ele>847.0</ele><time>2026-04-04T13:56:30Z</time></trkpt><trkpt lat="45.91556544815437" lon="10.99834966375803"><ele>847.0</ele><time>2026-04-04T13:56:31Z</time></trkpt><trkpt lat="45.9155163300044" lon="10.998407420795438"><ele>847.0</ele><time>2026-04-04T13:56:32Z</time></trkpt><trkpt lat="45.9154699763463" lon="10.998504498792709"><ele>846.9999999999999</ele><time>2026-04-04T13:56:33Z</time></trkpt><trkpt lat="45.91544081109533" lon="10.9986249542932"><ele>847.0</ele><time>2026-04-04T13:56:34Z</time></trkpt><trkpt lat="45.915382466075094" lon="10.998710452918125"><ele>844.1666666666666</ele><time>2026-04-04T13:56:35Z</time></trkpt><trkpt lat="45.915327335871154" lon="10.99877341488862"><ele>841.3333333333333</ele><time>2026-04-04T13:56:35.999Z</time></trkpt><trkpt lat="45.91527029355651" lon="10.998842863780382"><ele>838.5</ele><time>2026-04-04T13:56:37Z</time></trkpt><trkpt lat="45.91515783664436" lon="10.998907627771153"><ele>835.6666666666667</ele><time>2026-04-04T13:56:39Z</time></trkpt><trkpt lat="45.9150860810819" lon="10.998913260604908"><ele>832.8333333333334</ele><time>2026-04-04T13:56:41Z</time></trkpt><trkpt lat="45.915005754859656" lon="10.998944943825435"><ele>830.0</ele><time>2026-04-04T13:56:43Z</time></trkpt><trkpt lat="45.91495525810934" lon="10.999004976151037"><ele>830.0000000000001</ele><time>2026-04-04T13:56:44Z</time></trkpt><trkpt lat="45.91491242480892" lon="10.999074932601985"><ele>830.0</ele><time>2026-04-04T14:04:23Z</time></trkpt><trkpt lat="45.91497414190645" lon="10.999033918890829"><ele>830.0</ele><time>2026-04-04T14:04:27Z</time></trkpt><trkpt lat="45.91501291745625" lon="10.998937197058314"><ele>830.0</ele><time>2026-04-04T14:04:29Z</time></trkpt><trkpt lat="45.9150809829172" lon="10.998846210626002"><ele>830.0000000000001</ele><time>2026-04-04T14:04:32Z</time></trkpt><trkpt lat="45.91514766995121" lon="10.99886079712349"><ele>830.0</ele><time>2026-04-04T14:04:33Z</time></trkpt><trkpt lat="45.91523347571046" lon="10.998849384835484"><ele>828.0000000000001</ele><time>2026-04-04T14:04:35Z</time></trkpt><trkpt lat="45.91529434550025" lon="10.998803020152698"><ele>826.0</ele><time>2026-04-04T14:04:36Z</time></trkpt><trkpt lat="45.91535205356582" lon="10.998742207917408"><ele>824.0</ele><time>2026-04-04T14:04:37Z</time></trkpt><trkpt lat="45.91539756514769" lon="10.99865399836201"><ele>822.0</ele><time>2026-04-04T14:04:38Z</time></trkpt><trkpt lat="45.91545145916419" lon="10.998497098452702"><ele>820.0000000000001</ele><time>2026-04-04T14:04:40Z</time></trkpt><trkpt lat="45.91548295819064" lon="10.998414031172569"><ele>818.0</ele><time>2026-04-04T14:04:41Z</time></trkpt><trkpt lat="45.915532739945625" lon="10.998339725277333"><ele>822.8333333333334</ele><time>2026-04-04T14:04:42Z</time></trkpt><trkpt lat="45.91558529749759" lon="10.99828085928866"><ele>827.6666666666667</ele><time>2026-04-04T14:04:43Z</time></trkpt><trkpt lat="45.91563114812008" lon="10.998209146135022"><ele>832.5</ele><time>2026-04-04T14:04:44Z</time></trkpt><trkpt lat="45.91567297236856" lon="10.99811731294689"><ele>837.3333333333333</ele><time>2026-04-04T14:04:45Z</time></trkpt><trkpt lat="45.91571397349719" lon="10.998048582004063"><ele>842.1666666666666</ele><time>2026-04-04T14:04:46Z</time></trkpt><trkpt lat="45.91575255769405" lon="10.99793489117704"><ele>847.0</ele><time>2026-04-04T14:04:48Z</time></trkpt><trkpt lat="45.915787366899835" lon="10.997797357764583"><ele>847.0</ele><time>2026-04-04T14:04:52Z</time></trkpt><trkpt lat="45.915820231320566" lon="10.997717498166118"><ele>847.0</ele><time>2026-04-04T14:04:53Z</time></trkpt><trkpt lat="45.915863990197145" lon="10.99760971526486"><ele>847.0</ele><time>2026-04-04T14:04:54.999Z</time></trkpt><trkpt lat="45.91592139204941" lon="10.997566582859934"><ele>847.0</ele><time>2026-04-04T14:04:57.999Z</time></trkpt><trkpt lat="45.916018830486756" lon="10.997563508294892"><ele>847.0</ele><time>2026-04-04T14:04:59.999Z</time></trkpt><trkpt lat="45.916144538977" lon="10.99746094220553"><ele>853.2</ele><time>2026-04-04T14:05:04Z</time></trkpt><trkpt lat="45.91626309158131" lon="10.99741765294874"><ele>859.4000000000001</ele><time>2026-04-04T14:05:06Z</time></trkpt><trkpt lat="45.91633195016405" lon="10.997387887626088"><ele>865.5999999999999</ele><time>2026-04-04T14:05:07Z</time></trkpt><trkpt lat="45.91640136217272" lon="10.997374447371753"><ele>871.8</ele><time>2026-04-04T14:05:09Z</time></trkpt><trkpt lat="45.916499065787654" lon="10.99743083004559"><ele>878.0</ele><time>2026-04-04T14:05:11Z</time></trkpt><trkpt lat="45.916580877513276" lon="10.997447473181758"><ele>878.0000000000001</ele><time>2026-04-04T14:05:14Z</time></trkpt><trkpt lat="45.91663497577787" lon="10.997389575526977"><ele>878.0</ele><time>2026-04-04T14:05:16Z</time></trkpt><trkpt lat="45.9166541492997" lon="10.997227916106759"><ele>878.0</ele><time>2026-04-04T14:05:19Z</time></trkpt><trkpt lat="45.91670651330095" lon="10.997145183301729"><ele>878.0</ele><time>2026-04-04T14:05:22Z</time></trkpt><trkpt lat="45.916744695998815" lon="10.99701171588039"><ele>878.0000000000001</ele><time>2026-04-04T14:05:44Z</time></trkpt><trkpt lat="45.91671448603642" lon="10.996929854488263"><ele>878.0</ele><time>2026-04-04T14:05:45Z</time></trkpt><trkpt lat="45.916674321524305" lon="10.99683362812123"><ele>878.0000000000001</ele><time>2026-04-04T14:05:49Z</time></trkpt><trkpt lat="45.91665955648328" lon="10.996732292245849"><ele>878.0</ele><time>2026-04-04T14:06:23Z</time></trkpt><trkpt lat="45.916604859460456" lon="10.996660896437643"><ele>878.0</ele><time>2026-04-04T14:06:30Z</time></trkpt><trkpt lat="45.916724763387684" lon="10.996717445499863"><ele>878.0</ele><time>2026-04-04T14:12:57Z</time></trkpt><trkpt lat="45.91665028087333" lon="10.996706965035434"><ele>878.0000000000001</ele><time>2026-04-04T14:13:49Z</time></trkpt><trkpt lat="45.916661071540354" lon="10.99658192631259"><ele>878.0</ele><time>2026-04-04T14:13:52Z</time></trkpt><trkpt lat="45.91675142341926" lon="10.996528942919019"><ele>878.0</ele><time>2026-04-04T14:13:54Z</time></trkpt><trkpt lat="45.91683451259376" lon="10.996489310723598"><ele>878.0</ele><time>2026-04-04T14:13:56Z</time></trkpt><trkpt lat="45.916739909337686" lon="10.99652712209321"><ele>878.0</ele><time>2026-04-04T14:16:41Z</time></trkpt><trkpt lat="45.91664758843671" lon="10.996604838212667"><ele>878.0</ele><time>2026-04-04T14:16:43Z</time></trkpt><trkpt lat="45.91658831753378" lon="10.996675010832705"><ele>878.0</ele><time>2026-04-04T14:16:45Z</time></trkpt><trkpt lat="45.91665038104487" lon="10.996783874359997"><ele>878.0000000000001</ele><time>2026-04-04T14:16:48Z</time></trkpt><trkpt lat="45.9167070867478" lon="10.996831302756345"><ele>878.0</ele><time>2026-04-04T14:16:49Z</time></trkpt><trkpt lat="45.9167441679541" lon="10.996921996907652"><ele>878.0</ele><time>2026-04-04T14:16:51Z</time></trkpt><trkpt lat="45.91675093111251" lon="10.997019225984236"><ele>878.0</ele><time>2026-04-04T14:16:53Z</time></trkpt><trkpt lat="45.91677161937695" lon="10.997112388599502"><ele>878.0000000000001</ele><time>2026-04-04T14:16:55Z</time></trkpt><trkpt lat="45.916694257531894" lon="10.997249905157739"><ele>878.0</ele><time>2026-04-04T14:16:57Z</time></trkpt><trkpt lat="45.91668766236721" lon="10.997364317631094"><ele>878.0000000000001</ele><time>2026-04-04T14:16:59Z</time></trkpt><trkpt lat="45.916618429726704" lon="10.997468534162676"><ele>878.0</ele><time>2026-04-04T14:17:01Z</time></trkpt><trkpt lat="45.91651550013552" lon="10.997432546997898"><ele>878.0</ele><time>2026-04-04T14:17:03Z</time></trkpt><trkpt lat="45.91644285998996" lon="10.99735707844333"><ele>878.0</ele><time>2026-04-04T14:17:04Z</time></trkpt><trkpt lat="45.91636846797302" lon="10.997337023683054"><ele>878.0000000000001</ele><time>2026-04-04T14:17:06Z</time></trkpt><trkpt lat="45.916302148841474" lon="10.997361276497275"><ele>878.0</ele><time>2026-04-04T14:17:07Z</time></trkpt><trkpt lat="45.91624212964594" lon="10.997389303574199"><ele>878.0</ele><time>2026-04-04T14:17:08Z</time></trkpt><trkpt lat="45.91615839638058" lon="10.997422053477198"><ele>878.0</ele><time>2026-04-04T14:17:10Z</time></trkpt><trkpt lat="45.916064469101386" lon="10.997487314673252"><ele>878.0</ele><time>2026-04-04T14:17:14Z</time></trkpt><trkpt lat="45.91595456579038" lon="10.997521198975356"><ele>878.0</ele><time>2026-04-04T14:17:16Z</time></trkpt><trkpt lat="45.91589078226016" lon="10.99762737309846"><ele>878.0</ele><time>2026-04-04T14:17:19Z</time></trkpt><trkpt lat="45.91588431821487" lon="10.997770769250808"><ele>872.8333333333334</ele><time>2026-04-04T14:17:22Z</time></trkpt><trkpt lat="45.9158625226485" lon="10.997902291460484"><ele>867.6666666666667</ele><time>2026-04-04T14:17:24Z</time></trkpt><trkpt lat="45.91581065543784" lon="10.99796403386544"><ele>862.5</ele><time>2026-04-04T14:17:26Z</time></trkpt><trkpt lat="45.91577366770529" lon="10.998051185344838"><ele>857.3333333333333</ele><time>2026-04-04T14:17:28Z</time></trkpt><trkpt lat="45.91574315063123" lon="10.99814672252757"><ele>852.1666666666666</ele><time>2026-04-04T14:17:29Z</time></trkpt><trkpt lat="45.915682913823204" lon="10.998238492313591"><ele>847.0</ele><time>2026-04-04T14:17:30Z</time></trkpt><trkpt lat="45.91562939630392" lon="10.998329451271237"><ele>842.1666666666666</ele><time>2026-04-04T14:17:31Z</time></trkpt><trkpt lat="45.91555013862614" lon="10.998412937675782"><ele>837.3333333333333</ele><time>2026-04-04T14:17:33Z</time></trkpt><trkpt lat="45.915497951332576" lon="10.99848056393134"><ele>832.5</ele><time>2026-04-04T14:17:34Z</time></trkpt><trkpt lat="45.91546708980692" lon="10.99858530865125"><ele>827.6666666666667</ele><time>2026-04-04T14:17:35Z</time></trkpt><trkpt lat="45.91542092484759" lon="10.998689151817347"><ele>822.8333333333334</ele><time>2026-04-04T14:17:36Z</time></trkpt><trkpt lat="45.9153729535092" lon="10.998769117678568"><ele>818.0</ele><time>2026-04-04T14:17:37Z</time></trkpt><trkpt lat="45.91526132426477" lon="10.998870861566168"><ele>818.0000000000001</ele><time>2026-04-04T14:17:39Z</time></trkpt><trkpt lat="45.91516447008148" lon="10.998920257920405"><ele>818.0</ele><time>2026-04-04T14:17:41Z</time></trkpt><trkpt lat="45.91508009006513" lon="10.998931262914688"><ele>818.0</ele><time>2026-04-04T14:17:43Z</time></trkpt><trkpt lat="45.91499397348458" lon="10.998977398050858"><ele>818.0</ele><time>2026-04-04T14:17:45Z</time></trkpt><trkpt lat="45.91492800243904" lon="10.999034750208578"><ele>818.0000000000001</ele><time>2026-04-04T14:17:47Z</time></trkpt><trkpt lat="45.9148556168081" lon="10.998989581521965"><ele>818.0</ele><time>2026-04-04T14:17:50Z</time></trkpt><trkpt lat="45.91483467517327" lon="10.999110598980202"><ele>817.1666666666667</ele><time>2026-04-04T14:17:53Z</time></trkpt><trkpt lat="45.91484433746793" lon="10.999240470890971"><ele>816.3333333333334</ele><time>2026-04-04T14:17:55Z</time></trkpt><trkpt lat="45.91485704780684" lon="10.999353291373684"><ele>815.5</ele><time>2026-04-04T14:17:57Z</time></trkpt><trkpt lat="45.91487469809738" lon="10.999458995174248"><ele>814.6666666666667</ele><time>2026-04-04T14:17:58Z</time></trkpt><trkpt lat="45.91488002534555" lon="10.999564343938706"><ele>813.8333333333334</ele><time>2026-04-04T14:17:59Z</time></trkpt><trkpt lat="45.914854890185296" lon="10.999714579349217"><ele>813.0</ele><time>2026-04-04T14:18:01Z</time></trkpt><trkpt lat="45.91487036362363" lon="10.999872705858941"><ele>813.0</ele><time>2026-04-04T14:18:03Z</time></trkpt><trkpt lat="45.91491349248358" lon="11.00000792217869"><ele>813.0</ele><time>2026-04-04T14:18:05Z</time></trkpt><trkpt lat="45.91495488612317" lon="11.00008742385283"><ele>813.0</ele><time>2026-04-04T14:18:06Z</time></trkpt><trkpt lat="45.91504282399883" lon="11.000169166086225"><ele>813.0</ele><time>2026-04-04T14:18:08Z</time></trkpt><trkpt lat="45.91512058023859" lon="11.00021924041303"><ele>813.0</ele><time>2026-04-04T14:18:11Z</time></trkpt><trkpt lat="45.91515907765603" lon="11.000335193894394"><ele>810.1666666666666</ele><time>2026-04-04T14:18:13Z</time></trkpt><trkpt lat="45.915215949993176" lon="11.000425067540188"><ele>807.3333333333333</ele><time>2026-04-04T14:18:15Z</time></trkpt><trkpt lat="45.91524769330399" lon="11.000539746098148"><ele>804.5</ele><time>2026-04-04T14:18:17Z</time></trkpt><trkpt lat="45.9152403273302" lon="11.000666090407963"><ele>801.6666666666666</ele><time>2026-04-04T14:18:19Z</time></trkpt><trkpt lat="45.9152220632011" lon="11.000761401016947"><ele>798.8333333333333</ele><time>2026-04-04T14:18:20Z</time></trkpt><trkpt lat="45.91520861714202" lon="11.000864791597637"><ele>796.0</ele><time>2026-04-04T14:18:21Z</time></trkpt><trkpt lat="45.91517739629642" lon="11.001016266555942"><ele>796.1999999999999</ele><time>2026-04-04T14:18:23Z</time></trkpt><trkpt lat="45.91516106936801" lon="11.00114808954329"><ele>796.4</ele><time>2026-04-04T14:18:25Z</time></trkpt><trkpt lat="45.91507672025873" lon="11.001238562454052"><ele>796.6</ele><time>2026-04-04T14:18:27Z</time></trkpt><trkpt lat="45.91499080155795" lon="11.001345470615872"><ele>796.8</ele><time>2026-04-04T14:18:29Z</time></trkpt><trkpt lat="45.91492482756947" lon="11.001414997658305"><ele>797.0</ele><time>2026-04-04T14:18:30Z</time></trkpt><trkpt lat="45.91486122392906" lon="11.00143567120763"><ele>797.0</ele><time>2026-04-04T14:18:31Z</time></trkpt><trkpt lat="45.914787966817" lon="11.001466299259318"><ele>797.0</ele><time>2026-04-04T14:18:32Z</time></trkpt><trkpt lat="45.9147083509306" lon="11.001489551759372"><ele>797.0</ele><time>2026-04-04T14:18:33Z</time></trkpt><trkpt lat="45.91460445534661" lon="11.00152792804932"><ele>797.0</ele><time>2026-04-04T14:18:35Z</time></trkpt><trkpt lat="45.91449814559905" lon="11.001548977401576"><ele>797.0</ele><time>2026-04-04T14:18:37Z</time></trkpt><trkpt lat="45.91436054552922" lon="11.001488939576479"><ele>797.0</ele><time>2026-04-04T14:18:39Z</time></trkpt><trkpt lat="45.91425734921064" lon="11.00144457821482"><ele>797.0</ele><time>2026-04-04T14:18:40Z</time></trkpt><trkpt lat="45.91415992817883" lon="11.0013668173643"><ele>797.0</ele><time>2026-04-04T14:18:41Z</time></trkpt><trkpt lat="45.914073294557895" lon="11.00126737640537"><ele>797.0</ele><time>2026-04-04T14:18:42Z</time></trkpt><trkpt lat="45.91398823059467" lon="11.001195017817121"><ele>797.0</ele><time>2026-04-04T14:18:43Z</time></trkpt><trkpt lat="45.91389302077895" lon="11.001170851447172"><ele>795.0</ele><time>2026-04-04T14:18:44Z</time></trkpt><trkpt lat="45.913775788067795" lon="11.001155060397211"><ele>793.0</ele><time>2026-04-04T14:18:45Z</time></trkpt><trkpt lat="45.91366748626252" lon="11.00111824187383"><ele>791.0</ele><time>2026-04-04T14:18:46Z</time></trkpt><trkpt lat="45.913578432962886" lon="11.001083150240172"><ele>789.0</ele><time>2026-04-04T14:18:47Z</time></trkpt><trkpt lat="45.91350402725953" lon="11.001039213937519"><ele>787.0</ele><time>2026-04-04T14:18:48Z</time></trkpt><trkpt lat="45.91343362845753" lon="11.001033696888799"><ele>786.9999999999999</ele><time>2026-04-04T14:18:50Z</time></trkpt><trkpt lat="45.913417411941076" lon="11.001127844981047"><ele>787.0</ele><time>2026-04-04T14:18:52Z</time></trkpt><trkpt lat="45.91350944604561" lon="11.001214229289404"><ele>787.0</ele><time>2026-04-04T14:18:54Z</time></trkpt><trkpt lat="45.9135892584121" lon="11.00123874261176"><ele>787.0</ele><time>2026-04-04T14:18:55Z</time></trkpt><trkpt lat="45.913668040795066" lon="11.001277250368114"><ele>786.9999999999999</ele><time>2026-04-04T14:18:56Z</time></trkpt><trkpt lat="45.91375268866836" lon="11.0013268105556"><ele>787.0</ele><time>2026-04-04T14:18:57Z</time></trkpt><trkpt lat="45.91386199203885" lon="11.001366710747916"><ele>786.9999999999999</ele><time>2026-04-04T14:18:59Z</time></trkpt><trkpt lat="45.91392238140211" lon="11.001418174047162"><ele>787.0</ele><time>2026-04-04T14:19:01Z</time></trkpt><trkpt lat="45.913871658266764" lon="11.001507109013332"><ele>787.0</ele><time>2026-04-04T14:19:03Z</time></trkpt><trkpt lat="45.91379879890631" lon="11.001538553763515"><ele>787.0</ele><time>2026-04-04T14:19:04Z</time></trkpt><trkpt lat="45.913706458692204" lon="11.001499320721612"><ele>786.9999999999999</ele><time>2026-04-04T14:19:05Z</time></trkpt><trkpt lat="45.91358713903658" lon="11.001447311805249"><ele>787.0</ele><time>2026-04-04T14:19:06Z</time></trkpt><trkpt lat="45.91343702065162" lon="11.001419698420413"><ele>782.0</ele><time>2026-04-04T14:19:07Z</time></trkpt><trkpt lat="45.913294476306525" lon="11.001389481031628"><ele>777.0</ele><time>2026-04-04T14:19:08Z</time></trkpt><trkpt lat="45.91317309914477" lon="11.001366016490271"><ele>772.0</ele><time>2026-04-04T14:19:09Z</time></trkpt><trkpt lat="45.91305875149373" lon="11.001351858834948"><ele>767.0</ele><time>2026-04-04T14:19:10Z</time></trkpt><trkpt lat="45.91294097918038" lon="11.001332641237607"><ele>767.0</ele><time>2026-04-04T14:19:11Z</time></trkpt><trkpt lat="45.912833712205" lon="11.00131211500693"><ele>767.0</ele><time>2026-04-04T14:19:12Z</time></trkpt><trkpt lat="45.91273297450664" lon="11.001298740313175"><ele>767.0</ele><time>2026-04-04T14:19:13Z</time></trkpt><trkpt lat="45.9126408236957" lon="11.001269556833416"><ele>767.0</ele><time>2026-04-04T14:19:14Z</time></trkpt><trkpt lat="45.91255282090908" lon="11.001230969478208"><ele>767.0</ele><time>2026-04-04T14:19:15Z</time></trkpt><trkpt lat="45.9124922678184" lon="11.001193242053981"><ele>767.0</ele><time>2026-04-04T14:19:16Z</time></trkpt><trkpt lat="45.91242370879327" lon="11.001185130823627"><ele>767.0</ele><time>2026-04-04T14:19:18Z</time></trkpt><trkpt lat="45.91243815020912" lon="11.001302252297888"><ele>767.0</ele><time>2026-04-04T14:19:20Z</time></trkpt><trkpt lat="45.91249436682815" lon="11.001397764354277"><ele>767.0</ele><time>2026-04-04T14:19:21Z</time></trkpt><trkpt lat="45.91257318997686" lon="11.001476941706514"><ele>767.0</ele><time>2026-04-04T14:19:22Z</time></trkpt><trkpt lat="45.912656738451076" lon="11.001551073641336"><ele>767.0</ele><time>2026-04-04T14:19:23Z</time></trkpt><trkpt lat="45.91272739438143" lon="11.001608235253233"><ele>767.0</ele><time>2026-04-04T14:19:24Z</time></trkpt><trkpt lat="45.91278906096849" lon="11.001650233444922"><ele>767.0</ele><time>2026-04-04T14:19:25Z</time></trkpt><trkpt lat="45.912848421048295" lon="11.001718352108648"><ele>767.0</ele><time>2026-04-04T14:19:26Z</time></trkpt><trkpt lat="45.912897690039834" lon="11.001813565732022"><ele>767.0</ele><time>2026-04-04T14:19:28Z</time></trkpt><trkpt lat="45.912818612890334" lon="11.001901799468111"><ele>767.0</ele><time>2026-04-04T14:19:30Z</time></trkpt><trkpt lat="45.91271200537904" lon="11.001895824579785"><ele>767.0</ele><time>2026-04-04T14:19:31Z</time></trkpt><trkpt lat="45.912584780082085" lon="11.001861117518265"><ele>753.4000000000001</ele><time>2026-04-04T14:19:32Z</time></trkpt><trkpt lat="45.91246068452656" lon="11.00182807192789"><ele>739.8000000000001</ele><time>2026-04-04T14:19:33Z</time></trkpt><trkpt lat="45.91235750797073" lon="11.00180857266933"><ele>726.2</ele><time>2026-04-04T14:19:34Z</time></trkpt><trkpt lat="45.91226929237094" lon="11.001786385946659"><ele>712.6</ele><time>2026-04-04T14:19:35Z</time></trkpt><trkpt lat="45.91216938600841" lon="11.001755431707922"><ele>699.0</ele><time>2026-04-04T14:19:36Z</time></trkpt><trkpt lat="45.91209820228025" lon="11.001685222772736"><ele>707.4000000000001</ele><time>2026-04-04T14:19:37Z</time></trkpt><trkpt lat="45.9120384531916" lon="11.001608527382144"><ele>715.8</ele><time>2026-04-04T14:19:38Z</time></trkpt><trkpt lat="45.91198839074536" lon="11.001488418370611"><ele>724.2</ele><time>2026-04-04T14:19:39Z</time></trkpt><trkpt lat="45.9119266697447" lon="11.001355365305175"><ele>732.5999999999999</ele><time>2026-04-04T14:19:40Z</time></trkpt><trkpt lat="45.91186748676056" lon="11.00124744267564"><ele>741.0</ele><time>2026-04-04T14:19:41Z</time></trkpt><trkpt lat="45.911804872881824" lon="11.001194806705465"><ele>741.0</ele><time>2026-04-04T14:19:42Z</time></trkpt><trkpt lat="45.911704418983426" lon="11.001170857539897"><ele>741.0</ele><time>2026-04-04T14:19:44Z</time></trkpt><trkpt lat="45.91168006641544" lon="11.001269902758528"><ele>741.0</ele><time>2026-04-04T14:19:46Z</time></trkpt><trkpt lat="45.91170124810965" lon="11.001358927478245"><ele>741.0</ele><time>2026-04-04T14:19:47Z</time></trkpt><trkpt lat="45.91176611699258" lon="11.001467711335188"><ele>741.0</ele><time>2026-04-04T14:19:48Z</time></trkpt><trkpt lat="45.911817052631896" lon="11.00157704166607"><ele>741.0</ele><time>2026-04-04T14:19:49Z</time></trkpt><trkpt lat="45.911832815523354" lon="11.001690918439543"><ele>732.5999999999999</ele><time>2026-04-04T14:19:50Z</time></trkpt><trkpt lat="45.91180971485" lon="11.001800846609413"><ele>724.2</ele><time>2026-04-04T14:19:51Z</time></trkpt><trkpt lat="45.911753675943324" lon="11.00189765391078"><ele>715.8</ele><time>2026-04-04T14:19:52Z</time></trkpt><trkpt lat="45.911697572716065" lon="11.002001456680544"><ele>707.4000000000001</ele><time>2026-04-04T14:19:53Z</time></trkpt><trkpt lat="45.911644115320115" lon="11.002149965848105"><ele>699.0</ele><time>2026-04-04T14:19:54Z</time></trkpt><trkpt lat="45.91162444524604" lon="11.002281323854591"><ele>692.8000000000001</ele><time>2026-04-04T14:19:55Z</time></trkpt><trkpt lat="45.91160777535095" lon="11.002414062327318"><ele>686.6</ele><time>2026-04-04T14:19:57Z</time></trkpt><trkpt lat="45.91165701050676" lon="11.002538943557406"><ele>680.4</ele><time>2026-04-04T14:19:59Z</time></trkpt><trkpt lat="45.91170242056155" lon="11.002606828895711"><ele>674.2</ele><time>2026-04-04T14:20:00Z</time></trkpt><trkpt lat="45.91170202387562" lon="11.002719232190726"><ele>668.0</ele><time>2026-04-04T14:20:02Z</time></trkpt><trkpt lat="45.911582441476014" lon="11.002757344007982"><ele>668.0</ele><time>2026-04-04T14:20:04Z</time></trkpt><trkpt lat="45.91150047104856" lon="11.002737942551205"><ele>668.0</ele><time>2026-04-04T14:20:05Z</time></trkpt><trkpt lat="45.911408239985384" lon="11.002714857250304"><ele>668.0</ele><time>2026-04-04T14:20:06Z</time></trkpt><trkpt lat="45.91132753877929" lon="11.002681799843227"><ele>668.0</ele><time>2026-04-04T14:20:07Z</time></trkpt><trkpt lat="45.91124582844498" lon="11.002565325551293"><ele>668.0</ele><time>2026-04-04T14:20:09Z</time></trkpt><trkpt lat="45.91125330040137" lon="11.002446536421154"><ele>668.0</ele><time>2026-04-04T14:20:10Z</time></trkpt><trkpt lat="45.911265280051616" lon="11.002337705461182"><ele>668.0</ele><time>2026-04-04T14:20:11Z</time></trkpt><trkpt lat="45.91128537594144" lon="11.002216746214813"><ele>668.0</ele><time>2026-04-04T14:20:12Z</time></trkpt><trkpt lat="45.911305630471844" lon="11.00206475059045"><ele>668.0</ele><time>2026-04-04T14:20:13Z</time></trkpt><trkpt lat="45.911323045796706" lon="11.001903701904698"><ele>668.0</ele><time>2026-04-04T14:20:14Z</time></trkpt><trkpt lat="45.911322714178326" lon="11.001771960427575"><ele>676.0</ele><time>2026-04-04T14:20:15Z</time></trkpt><trkpt lat="45.91129560443636" lon="11.001659150511648"><ele>684.0</ele><time>2026-04-04T14:20:16Z</time></trkpt><trkpt lat="45.91123855463442" lon="11.00155383349733"><ele>692.0</ele><time>2026-04-04T14:20:17Z</time></trkpt><trkpt lat="45.91117159563019" lon="11.001461924617818"><ele>700.0</ele><time>2026-04-04T14:20:18Z</time></trkpt><trkpt lat="45.91110070626922" lon="11.00133838773646"><ele>708.0</ele><time>2026-04-04T14:20:20Z</time></trkpt><trkpt lat="45.911041711238454" lon="11.001258578128237"><ele>708.0</ele><time>2026-04-04T14:20:22Z</time></trkpt><trkpt lat="45.91099564828686" lon="11.001132667247708"><ele>708.0</ele><time>2026-04-04T14:20:25Z</time></trkpt><trkpt lat="45.91095584021369" lon="11.001016025780352"><ele>708.0</ele><time>2026-04-04T14:20:27Z</time></trkpt><trkpt lat="45.91089131543544" lon="11.000883936144747"><ele>708.0</ele><time>2026-04-04T14:20:29Z</time></trkpt><trkpt lat="45.91085682740047" lon="11.000800977313315"><ele>708.0</ele><time>2026-04-04T14:20:30Z</time></trkpt><trkpt lat="45.91082694906419" lon="11.000708185821278"><ele>708.0</ele><time>2026-04-04T14:20:31Z</time></trkpt><trkpt lat="45.91080190939625" lon="11.000616820289968"><ele>709.5999999999999</ele><time>2026-04-04T14:20:32Z</time></trkpt><trkpt lat="45.91075087972939" lon="11.000500776552588"><ele>711.1999999999999</ele><time>2026-04-04T14:20:34Z</time></trkpt><trkpt lat="45.910637676828834" lon="11.000444489356507"><ele>712.8</ele><time>2026-04-04T14:20:36Z</time></trkpt><trkpt lat="45.91053340692092" lon="11.00037413142797"><ele>714.4</ele><time>2026-04-04T14:20:38Z</time></trkpt><trkpt lat="45.91043538611784" lon="11.000406422681095"><ele>716.0</ele><time>2026-04-04T14:20:40Z</time></trkpt><trkpt lat="45.91037370129496" lon="11.000337168972925"><ele>716.0</ele><time>2026-04-04T14:20:42Z</time></trkpt><trkpt lat="45.910284306347656" lon="11.000366654664246"><ele>716.0</ele><time>2026-04-04T14:20:43Z</time></trkpt><trkpt lat="45.91018586753918" lon="11.000360701930738"><ele>716.0</ele><time>2026-04-04T14:20:44Z</time></trkpt><trkpt lat="45.910087839733045" lon="11.000350351678856"><ele>716.0</ele><time>2026-04-04T14:20:45Z</time></trkpt><trkpt lat="45.910019190684984" lon="11.00032112951763"><ele>716.0</ele><time>2026-04-04T14:20:46Z</time></trkpt><trkpt lat="45.90992633836625" lon="11.00027102472604"><ele>699.5</ele><time>2026-04-04T14:20:47Z</time></trkpt><trkpt lat="45.90982777620785" lon="11.000198099753586"><ele>683.0</ele><time>2026-04-04T14:20:48Z</time></trkpt><trkpt lat="45.90972156085354" lon="11.000114516259401"><ele>666.5</ele><time>2026-04-04T14:20:49Z</time></trkpt><trkpt lat="45.90960043120189" lon="10.999992150842429"><ele>650.0</ele><time>2026-04-04T14:20:50Z</time></trkpt><trkpt lat="45.909466153353996" lon="10.99986116258055"><ele>650.0</ele><time>2026-04-04T14:20:51Z</time></trkpt><trkpt lat="45.90930970017142" lon="10.999754367631354"><ele>650.0</ele><time>2026-04-04T14:20:52Z</time></trkpt><trkpt lat="45.90916869127557" lon="10.999687505168339"><ele>650.0</ele><time>2026-04-04T14:20:53Z</time></trkpt><trkpt lat="45.90903385051389" lon="10.999644511182812"><ele>639.0</ele><time>2026-04-04T14:20:54Z</time></trkpt><trkpt lat="45.90889873029466" lon="10.999604733777185"><ele>628.0</ele><time>2026-04-04T14:20:55Z</time></trkpt><trkpt lat="45.90874314123766" lon="10.99952068021407"><ele>617.0</ele><time>2026-04-04T14:20:56Z</time></trkpt><trkpt lat="45.908588636672455" lon="10.999487764729087"><ele>617.0</ele><time>2026-04-04T14:20:57Z</time></trkpt><trkpt lat="45.908441523556405" lon="10.999480813530509"><ele>617.0</ele><time>2026-04-04T14:20:58Z</time></trkpt><trkpt lat="45.908302203105684" lon="10.999437701328187"><ele>617.0</ele><time>2026-04-04T14:20:59Z</time></trkpt><trkpt lat="45.90816382965707" lon="10.999430860897622"><ele>617.0</ele><time>2026-04-04T14:21:00Z</time></trkpt><trkpt lat="45.90803916210612" lon="10.999437912084954"><ele>614.4</ele><time>2026-04-04T14:21:01Z</time></trkpt><trkpt lat="45.90794331449233" lon="10.999467926878486"><ele>611.8000000000001</ele><time>2026-04-04T14:21:02Z</time></trkpt><trkpt lat="45.90785993576877" lon="10.999467102231494"><ele>609.2</ele><time>2026-04-04T14:21:03Z</time></trkpt><trkpt lat="45.90779586735973" lon="10.999442120014859"><ele>606.6</ele><time>2026-04-04T14:21:04Z</time></trkpt><trkpt lat="45.90772608378849" lon="10.9993529248945"><ele>604.0</ele><time>2026-04-04T14:21:05Z</time></trkpt><trkpt lat="45.907601513063526" lon="10.999245473707873"><ele>602.25</ele><time>2026-04-04T14:21:06Z</time></trkpt><trkpt lat="45.90746229239097" lon="10.999169220375713"><ele>600.5</ele><time>2026-04-04T14:21:07Z</time></trkpt><trkpt lat="45.90734041956253" lon="10.999121642046836"><ele>598.75</ele><time>2026-04-04T14:21:08Z</time></trkpt><trkpt lat="45.90720703991635" lon="10.99908982928777"><ele>597.0</ele><time>2026-04-04T14:21:09Z</time></trkpt><trkpt lat="45.90705419610823" lon="10.999118566677303"><ele>603.25</ele><time>2026-04-04T14:21:10Z</time></trkpt><trkpt lat="45.90692260814796" lon="10.999086922197293"><ele>609.5</ele><time>2026-04-04T14:21:11Z</time></trkpt><trkpt lat="45.90676651295111" lon="10.999063996909946"><ele>615.75</ele><time>2026-04-04T14:21:12Z</time></trkpt><trkpt lat="45.90662861422188" lon="10.999011206783456"><ele>622.0</ele><time>2026-04-04T14:21:13Z</time></trkpt><trkpt lat="45.90650232071887" lon="10.998964357049312"><ele>622.0</ele><time>2026-04-04T14:21:14Z</time></trkpt><trkpt lat="45.906387738852395" lon="10.998908085390905"><ele>622.0</ele><time>2026-04-04T14:21:15Z</time></trkpt><trkpt lat="45.906298395475574" lon="10.998860966168483"><ele>622.0</ele><time>2026-04-04T14:21:16Z</time></trkpt><trkpt lat="45.90622626448259" lon="10.99883938186721"><ele>622.0</ele><time>2026-04-04T14:21:17Z</time></trkpt><trkpt lat="45.90613243319535" lon="10.99889006242363"><ele>622.0</ele><time>2026-04-04T14:21:19Z</time></trkpt><trkpt lat="45.906076009124384" lon="10.998961510862513"><ele>622.0</ele><time>2026-04-04T14:21:20Z</time></trkpt><trkpt lat="45.90601716603454" lon="10.999033978687338"><ele>622.0</ele><time>2026-04-04T14:21:21Z</time></trkpt><trkpt lat="45.90594776274264" lon="10.999083721225789"><ele>622.0</ele><time>2026-04-04T14:21:22Z</time></trkpt><trkpt lat="45.90587454398889" lon="10.999107804937765"><ele>622.0</ele><time>2026-04-04T14:21:23Z</time></trkpt><trkpt lat="45.90579468550049" lon="10.999127169875855"><ele>622.0</ele><time>2026-04-04T14:21:24Z</time></trkpt><trkpt lat="45.90571919203578" lon="10.999155366475536"><ele>622.0</ele><time>2026-04-04T14:21:25Z</time></trkpt><trkpt lat="45.905647035924396" lon="10.999188387461082"><ele>619.0</ele><time>2026-04-04T14:21:26Z</time></trkpt><trkpt lat="45.90557876596852" lon="10.999214127974975"><ele>616.0</ele><time>2026-04-04T14:21:27Z</time></trkpt><trkpt lat="45.90550764283594" lon="10.999236450964684"><ele>613.0</ele><time>2026-04-04T14:21:28Z</time></trkpt><trkpt lat="45.90543891429847" lon="10.999293796348335"><ele>610.0</ele><time>2026-04-04T14:21:29Z</time></trkpt><trkpt lat="45.905376092365906" lon="10.999418833169816"><ele>607.0</ele><time>2026-04-04T14:21:30Z</time></trkpt><trkpt lat="45.905320470549306" lon="10.999570831783155"><ele>607.0</ele><time>2026-04-04T14:21:31Z</time></trkpt><trkpt lat="45.90529003606007" lon="10.999685945353166"><ele>607.0</ele><time>2026-04-04T14:21:32Z</time></trkpt><trkpt lat="45.9052623464467" lon="10.99978270661006"><ele>607.0</ele><time>2026-04-04T14:21:33Z</time></trkpt><trkpt lat="45.905185536036726" lon="10.999914546715274"><ele>607.0</ele><time>2026-04-04T14:21:35Z</time></trkpt><trkpt lat="45.90512359321873" lon="10.9999540435428"><ele>607.0</ele><time>2026-04-04T14:21:36Z</time></trkpt><trkpt lat="45.905042096627945" lon="10.999988850643104"><ele>607.0</ele><time>2026-04-04T14:21:37Z</time></trkpt><trkpt lat="45.90495818587518" lon="11.000019682590105"><ele>609.1666666666667</ele><time>2026-04-04T14:21:38Z</time></trkpt><trkpt lat="45.90488054893595" lon="11.000048092884736"><ele>611.3333333333334</ele><time>2026-04-04T14:21:39Z</time></trkpt><trkpt lat="45.90479711763984" lon="11.000086089492957"><ele>613.5</ele><time>2026-04-04T14:21:40Z</time></trkpt><trkpt lat="45.904714759445326" lon="11.000124905604858"><ele>615.6666666666666</ele><time>2026-04-04T14:21:41Z</time></trkpt><trkpt lat="45.90465487411186" lon="11.000185929443825"><ele>617.8333333333333</ele><time>2026-04-04T14:21:42Z</time></trkpt><trkpt lat="45.90458541340653" lon="11.000226779618842"><ele>620.0</ele><time>2026-04-04T14:21:43Z</time></trkpt><trkpt lat="45.90451554660154" lon="11.000256206234434"><ele>620.0</ele><time>2026-04-04T14:21:44Z</time></trkpt><trkpt lat="45.904451423660944" lon="11.000280299142858"><ele>620.0</ele><time>2026-04-04T14:21:45Z</time></trkpt><trkpt lat="45.90437856600683" lon="11.000317791196897"><ele>620.0</ele><time>2026-04-04T14:22:33Z</time></trkpt><trkpt lat="45.90443966588431" lon="11.00020894198463"><ele>620.0</ele><time>2026-04-04T14:22:49Z</time></trkpt><trkpt lat="45.904509334902734" lon="11.000199780940287"><ele>620.0</ele><time>2026-04-04T14:22:51.018Z</time></trkpt><trkpt lat="45.90458446433844" lon="11.00020623604978"><ele>620.0</ele><time>2026-04-04T14:22:53.021Z</time></trkpt><trkpt lat="45.904674580575254" lon="11.000235401098573"><ele>627.0</ele><time>2026-04-04T14:22:55.023Z</time></trkpt><trkpt lat="45.90412226134262" lon="11.000637374523413"><ele>627.0</ele><time>2026-04-04T14:23:11.017Z</time></trkpt><trkpt lat="45.9040634161982" lon="11.00068855410865"><ele>627.0</ele><time>2026-04-04T14:23:13.012Z</time></trkpt><trkpt lat="45.903995678773235" lon="11.000664103293678"><ele>627.0</ele><time>2026-04-04T14:23:15.014Z</time></trkpt><trkpt lat="45.90418641468553" lon="11.000664062664278"><ele>627.0</ele><time>2026-04-04T14:23:16.017Z</time></trkpt><trkpt lat="45.904070331668564" lon="11.000706329869425"><ele>627.0</ele><time>2026-04-04T14:23:17.011Z</time></trkpt><trkpt lat="45.90397088234261" lon="11.000762558253003"><ele>620.0</ele><time>2026-04-04T14:23:22.011Z</time></trkpt><trkpt lat="45.90445407989859" lon="11.00015007487769"><ele>620.0</ele><time>2026-04-04T14:23:38.488Z</time></trkpt></trkseg></trk></gpx>